[[{"header":{"parameterUnit":"m.s-1","parameterCategory":1,"la1":30.6,"la2":29.2853,"lo1":-89.7004,"lo2":-87.6739,"dy":0.0162,"dx":0.0183,"nx":112,"ny":82,"refTime":"2026-03-01T00:00:00:Z","depth":0,"parameterNumber":2,"parameterNumberName":"U-component_of_WINDS"},"data":[0.0,0.0,0.0,0.0,0.0,0.0,0.0,0.0,0.0,0.0,0.0,0.0,0.0,0.0,0.0,0.0,0.0,0.0,0.0,0.0,0.0,0.0,0.0,0.0,0.0,0.0,0.0,0.0,0.0,0.0,0.0,0.0,0.0,0.0,0.0,0.0,0.0,0.0,0.0,0.0,0.0,0.0,0.0,0.0,0.0,0.0,0.0,0.0,0.0,0.0,0.0,0.0,0.0,0.0,0.0,0.0,0.0,0.0,0.0,0.0,0.0,0.0,0.0,0.0,0.0,0.0,0.0,0.0,0.0,0.0,0.0,0.0,0.0,0.0,0.0,0.0,0.0,0.0,0.0,0.0,0.0,0.0,0.0,0.0,0.0,0.0,0.0,0.0,0.0,0.0,0.0,-2.1667,-2.4111,-2.5385,-2.4838,-2.4318,-2.2799,-1.9974,0.0,0.0,0.0,0.0,0.0,0.0,0.0,0.0,0.0,0.0,0.0,0.0,0.0,0.0,0.0,0.0,0.0,0.0,0.0,0.0,0.0,0.0,0.0,0.0,0.0,0.0,0.0,0.0,0.0,0.0,0.0,0.0,0.0,0.0,0.0,0.0,0.0,0.0,0.0,0.0,0.0,0.0,0.0,0.0,0.0,0.0,0.0,0.0,0.0,0.0,0.0,0.0,0.0,0.0,0.0,0.0,0.0,0.0,0.0,0.0,0.0,0.0,0.0,0.0,0.0,0.0,0.0,0.0,0.0,0.0,0.0,0.0,0.0,0.0,0.0,0.0,0.0,0.0,0.0,0.0,0.0,0.0,0.0,0.0,0.0,0.0,0.0,0.0,0.0,0.0,0.0,0.0,0.0,0.0,0.0,0.0,0.0,0.0,0.0,0.0,0.0,0.0,0.0,0.0,-1.9156,-2.3199,-2.4822,-2.5385,-2.4838,-2.4318,-2.2799,-1.9974,0.0,0.0,0.0,0.0,0.0,0.0,0.0,0.0,0.0,0.0,0.0,0.0,0.0,0.0,0.0,0.0,0.0,0.0,0.0,0.0,0.0,0.0,0.0,0.0,0.0,0.0,0.0,0.0,0.0,0.0,0.0,0.0,0.0,0.0,0.0,0.0,0.0,0.0,0.0,0.0,0.0,0.0,0.0,0.0,0.0,0.0,0.0,0.0,0.0,0.0,0.0,0.0,0.0,0.0,0.0,0.0,0.0,0.0,0.0,0.0,0.0,0.0,0.0,0.0,0.0,0.0,0.0,0.0,0.0,0.0,0.0,0.0,0.0,0.0,0.0,0.0,0.0,0.0,0.0,0.0,0.0,0.0,0.0,0.0,0.0,0.0,0.0,0.0,0.0,0.0,0.0,0.0,0.0,0.0,0.0,0.0,0.0,0.0,0.0,0.0,0.0,0.0,0.0,-1.8907,-2.0853,-2.4104,-2.5423,-2.5724,-2.4863,-2.4318,-2.2799,-1.9974,-1.8279,0.0,0.0,0.0,0.0,0.0,0.0,0.0,0.0,0.0,0.0,0.0,0.0,0.0,0.0,0.0,0.0,0.0,0.0,0.0,0.0,0.0,0.0,0.0,0.0,0.0,0.0,0.0,0.0,0.0,0.0,0.0,0.0,0.0,0.0,0.0,0.0,0.0,0.0,0.0,0.0,0.0,0.0,0.0,0.0,0.0,0.0,0.0,0.0,0.0,0.0,0.0,0.0,0.0,0.0,0.0,0.0,0.0,0.0,0.0,0.0,0.0,0.0,0.0,0.0,0.0,0.0,0.0,0.0,0.0,0.0,0.0,0.0,0.0,0.0,0.0,0.0,0.0,0.0,0.0,0.0,0.0,0.0,0.0,0.0,0.0,0.0,0.0,0.0,0.0,0.0,0.0,0.0,0.0,0.0,0.0,0.0,0.0,0.0,0.0,0.0,0.0,0.0,-2.0941,-2.2636,-2.4575,-2.5686,-2.5862,-2.4863,-2.4067,-2.251,-1.9962,-1.8154,0.0,0.0,0.0,0.0,0.0,0.0,0.0,0.0,0.0,0.0,0.0,0.0,0.0,0.0,0.0,0.0,0.0,0.0,0.0,0.0,0.0,0.0,0.0,0.0,0.0,0.0,0.0,0.0,0.0,0.0,0.0,0.0,0.0,0.0,0.0,0.0,0.0,0.0,0.0,0.0,0.0,0.0,0.0,0.0,0.0,0.0,0.0,0.0,0.0,0.0,0.0,0.0,0.0,0.0,0.0,0.0,0.0,0.0,0.0,0.0,0.0,0.0,0.0,0.0,0.0,0.0,0.0,0.0,0.0,0.0,0.0,0.0,0.0,0.0,0.0,0.0,0.0,0.0,0.0,0.0,0.0,0.0,0.0,0.0,0.0,0.0,0.0,0.0,0.0,0.0,0.0,0.0,0.0,0.0,0.0,0.0,0.0,0.0,0.0,0.0,0.0,0.0,-2.1365,-2.3446,-2.4662,-2.5322,-2.5435,-2.4838,-2.3351,-2.1681,-1.9911,-1.7754,0.0,0.0,0.0,0.0,0.0,0.0,0.0,0.0,0.0,0.0,0.0,0.0,0.0,0.0,0.0,0.0,0.0,0.0,0.0,0.0,0.0,0.0,0.0,0.0,0.0,0.0,0.0,0.0,0.0,0.0,0.0,0.0,0.0,0.0,0.0,0.0,0.0,0.0,0.0,0.0,0.0,0.0,0.0,0.0,0.0,0.0,0.0,0.0,0.0,0.0,0.0,0.0,0.0,0.0,0.0,0.0,0.0,0.0,0.0,0.0,0.0,0.0,0.0,0.0,0.0,0.0,0.0,0.0,0.0,0.0,0.0,0.0,0.0,0.0,0.0,0.0,0.0,0.0,0.0,0.0,0.0,0.0,0.0,0.0,0.0,0.0,0.0,0.0,0.0,0.0,0.0,0.0,0.0,0.0,0.0,0.0,0.0,0.0,0.0,0.0,0.0,0.0,-2.1102,-2.3158,0.0,-2.5285,-2.5385,-2.4838,-2.3559,-2.1929,-1.9924,0.0,0.0,0.0,0.0,0.0,0.0,0.0,0.0,0.0,0.0,0.0,0.0,0.0,0.0,0.0,0.0,0.0,0.0,0.0,0.0,0.0,0.0,0.0,0.0,0.0,0.0,0.0,0.0,0.0,0.0,0.0,0.0,0.0,0.0,0.0,0.0,0.0,0.0,0.0,0.0,0.0,0.0,0.0,0.0,0.0,0.0,0.0,0.0,0.0,0.0,0.0,0.0,0.0,0.0,0.0,0.0,0.0,0.0,0.0,0.0,0.0,0.0,0.0,0.0,0.0,0.0,0.0,0.0,0.0,0.0,0.0,0.0,0.0,0.0,0.0,0.0,0.0,0.0,0.0,0.0,0.0,0.0,0.0,0.0,0.0,0.0,0.0,0.0,0.0,0.0,0.0,0.0,0.0,0.0,0.0,0.0,0.0,0.0,0.0,0.0,0.0,0.0,-1.8945,-2.1177,-2.312,0.0,-2.5146,-2.5209,-2.4825,-2.3271,-2.1543,-1.9647,0.0,0.0,0.0,0.0,0.0,0.0,0.0,0.0,0.0,0.0,0.0,0.0,0.0,0.0,0.0,0.0,0.0,0.0,0.0,0.0,0.0,0.0,0.0,0.0,0.0,0.0,0.0,0.0,0.0,0.0,0.0,0.0,0.0,0.0,0.0,0.0,0.0,0.0,0.0,0.0,0.0,0.0,0.0,0.0,0.0,0.0,0.0,0.0,0.0,0.0,0.0,0.0,0.0,0.0,0.0,0.0,0.0,0.0,0.0,0.0,0.0,0.0,0.0,0.0,0.0,0.0,0.0,0.0,0.0,0.0,0.0,0.0,0.0,0.0,0.0,0.0,0.0,0.0,0.0,0.0,0.0,0.0,0.0,0.0,0.0,0.0,0.0,0.0,0.0,0.0,0.0,0.0,0.0,0.0,0.0,0.0,0.0,0.0,0.0,0.0,0.0,0.0,-1.9447,-2.1729,-2.3534,-2.4675,-2.4788,-2.4788,-2.4788,-2.23,-2.0226,0.0,0.0,0.0,0.0,0.0,0.0,0.0,0.0,0.0,0.0,0.0,0.0,0.0,0.0,0.0,0.0,0.0,0.0,0.0,0.0,0.0,0.0,0.0,0.0,0.0,0.0,0.0,0.0,0.0,0.0,0.0,0.0,0.0,0.0,0.0,0.0,0.0,0.0,0.0,0.0,0.0,0.0,0.0,0.0,0.0,0.0,0.0,0.0,0.0,0.0,0.0,0.0,0.0,0.0,0.0,0.0,0.0,0.0,0.0,0.0,0.0,0.0,0.0,0.0,0.0,0.0,0.0,0.0,0.0,0.0,0.0,0.0,0.0,0.0,0.0,0.0,0.0,0.0,0.0,0.0,0.0,0.0,0.0,0.0,0.0,0.0,0.0,0.0,0.0,0.0,0.0,0.0,0.0,0.0,0.0,0.0,0.0,0.0,0.0,0.0,0.0,0.0,0.0,-1.9447,-2.1729,-2.3534,-2.4675,-2.4788,-2.4788,-2.4788,-2.2623,-2.0614,-1.9096,0.0,0.0,0.0,0.0,0.0,0.0,0.0,0.0,0.0,0.0,0.0,0.0,0.0,0.0,0.0,0.0,0.0,0.0,0.0,0.0,0.0,0.0,0.0,0.0,0.0,0.0,0.0,0.0,0.0,0.0,0.0,0.0,0.0,0.0,0.0,0.0,0.0,0.0,0.0,0.0,0.0,0.0,0.0,0.0,0.0,0.0,0.0,0.0,0.0,0.0,0.0,0.0,0.0,0.0,0.0,0.0,0.0,0.0,0.0,0.0,0.0,0.0,0.0,0.0,0.0,0.0,0.0,0.0,0.0,0.0,0.0,0.0,0.0,0.0,0.0,0.0,0.0,0.0,0.0,0.0,0.0,0.0,0.0,0.0,0.0,0.0,0.0,0.0,0.0,0.0,0.0,0.0,0.0,0.0,0.0,0.0,0.0,0.0,0.0,0.0,0.0,0.0,-1.9761,-2.1866,-2.3622,-2.4983,-2.5134,-2.5046,-2.4813,-2.2975,-2.1016,-1.9121,0.0,0.0,0.0,0.0,0.0,0.0,0.0,0.0,0.0,0.0,0.0,0.0,0.0,0.0,0.0,0.0,0.0,0.0,0.0,0.0,0.0,0.0,0.0,0.0,0.0,0.0,0.0,0.0,0.0,0.0,0.0,0.0,0.0,0.0,0.0,0.0,0.0,0.0,0.0,0.0,0.0,0.0,0.0,0.0,0.0,0.0,0.0,0.0,0.0,0.0,0.0,0.0,0.0,0.0,0.0,0.0,0.0,0.0,0.0,0.0,0.0,0.0,0.0,0.0,0.0,0.0,0.0,0.0,0.0,0.0,0.0,0.0,0.0,0.0,0.0,0.0,0.0,0.0,0.0,0.0,0.0,0.0,0.0,0.0,0.0,0.0,0.0,0.0,0.0,0.0,0.0,0.0,0.0,0.0,0.0,0.0,0.0,0.0,0.0,0.0,0.0,0.0,-2.0201,-2.2159,-2.3797,-2.5423,-2.5598,-2.5385,-2.4838,-2.3326,-2.1415,-1.9208,0.0,0.0,0.0,0.0,0.0,0.0,0.0,0.0,0.0,0.0,0.0,0.0,0.0,0.0,0.0,0.0,0.0,0.0,0.0,0.0,0.0,0.0,0.0,0.0,0.0,0.0,0.0,0.0,0.0,0.0,0.0,0.0,0.0,0.0,0.0,0.0,0.0,0.0,0.0,0.0,0.0,0.0,0.0,0.0,0.0,0.0,0.0,0.0,0.0,0.0,0.0,0.0,0.0,0.0,0.0,0.0,0.0,0.0,0.0,0.0,-2.0489,0.0,0.0,0.0,0.0,0.0,0.0,0.0,0.0,0.0,0.0,0.0,0.0,0.0,0.0,0.0,0.0,0.0,0.0,0.0,0.0,0.0,0.0,0.0,0.0,0.0,0.0,0.0,0.0,0.0,0.0,0.0,0.0,0.0,0.0,0.0,0.0,0.0,0.0,0.0,0.0,0.0,-2.0302,-2.251,-2.4268,-2.5473,-2.5598,-2.5385,-2.4838,-2.3647,-2.1979,-1.9773,-1.799,0.0,0.0,0.0,0.0,0.0,0.0,0.0,0.0,0.0,0.0,0.0,0.0,0.0,0.0,0.0,0.0,0.0,0.0,0.0,0.0,0.0,0.0,0.0,0.0,0.0,0.0,0.0,0.0,0.0,0.0,0.0,0.0,0.0,0.0,0.0,0.0,0.0,0.0,0.0,0.0,0.0,0.0,0.0,0.0,0.0,0.0,0.0,0.0,0.0,0.0,0.0,0.0,0.0,0.0,0.0,0.0,0.0,0.0,0.0,0.0,-2.182,0.0,0.0,0.0,0.0,0.0,0.0,0.0,0.0,0.0,0.0,0.0,0.0,0.0,0.0,0.0,0.0,0.0,0.0,0.0,0.0,0.0,0.0,0.0,0.0,0.0,0.0,0.0,0.0,0.0,0.0,0.0,0.0,0.0,0.0,0.0,0.0,0.0,0.0,0.0,0.0,-2.0704,-2.2786,-2.4519,-2.5896,-2.6047,-2.5787,-2.5247,-2.418,-2.2824,-2.1117,-1.9221,0.0,0.0,0.0,0.0,0.0,0.0,0.0,0.0,0.0,0.0,0.0,0.0,0.0,0.0,0.0,0.0,0.0,0.0,0.0,0.0,0.0,0.0,0.0,0.0,0.0,0.0,0.0,0.0,0.0,0.0,0.0,0.0,0.0,0.0,0.0,0.0,0.0,0.0,0.0,0.0,0.0,0.0,0.0,0.0,0.0,0.0,0.0,0.0,0.0,0.0,0.0,0.0,0.0,-2.5561,-2.6138,-2.6477,-2.6565,-2.7118,-2.7896,-2.6076,-2.5222,-2.4958,-2.3012,0.0,0.0,0.0,0.0,0.0,0.0,0.0,0.0,0.0,0.0,0.0,0.0,0.0,0.0,0.0,0.0,0.0,0.0,0.0,0.0,0.0,0.0,0.0,0.0,-2.2196,-2.208,0.0,0.0,0.0,0.0,0.0,0.0,0.0,0.0,0.0,0.0,0.0,0.0,-2.123,-2.31,-2.4732,-2.6323,-2.6499,-2.626,-2.5649,-2.4707,-2.3653,-2.2493,-2.0537,-1.8719,0.0,0.0,0.0,0.0,0.0,0.0,0.0,0.0,0.0,0.0,0.0,0.0,0.0,0.0,0.0,0.0,0.0,0.0,0.0,0.0,0.0,0.0,0.0,0.0,0.0,0.0,0.0,0.0,0.0,0.0,0.0,0.0,-1.887,-1.9422,0.0,0.0,0.0,0.0,0.0,0.0,0.0,0.0,0.0,0.0,0.0,0.0,0.0,-2.4079,-2.5146,-2.6691,-2.7494,-2.7582,-2.9578,-3.0319,-2.9967,-3.0419,-3.0708,-3.0834,-3.0545,0.0,-2.6223,-2.5385,0.0,0.0,0.0,0.0,0.0,0.0,0.0,0.0,0.0,0.0,0.0,0.0,0.0,0.0,0.0,0.0,0.0,0.0,0.0,0.0,0.0,0.0,-2.2722,-2.2302,-2.3352,-2.4255,0.0,-2.1372,-1.9472,-1.8707,-1.7024,0.0,0.0,0.0,0.0,0.0,0.0,0.0,-2.1895,-2.3665,-2.5159,-2.6361,-2.6499,-2.626,-2.5649,-2.5059,-2.4199,-2.307,-2.1857,-2.0627,-1.9422,-1.744,0.0,0.0,0.0,0.0,0.0,0.0,0.0,0.0,0.0,0.0,0.0,0.0,0.0,0.0,0.0,0.0,0.0,0.0,0.0,0.0,0.0,0.0,0.0,0.0,0.0,0.0,0.0,0.0,0.0,-1.8894,-2.0037,-2.0289,-2.084,-2.0652,0.0,0.0,0.0,0.0,0.0,0.0,0.0,0.0,0.0,-2.5423,-2.6314,-2.7306,-2.8411,-2.9754,-3.0407,-3.0432,-3.1725,-3.2378,-3.2453,-3.2378,-3.2679,-3.3244,-3.2943,-3.18,-3.0044,-2.7883,-2.6578,-2.5632,0.0,0.0,0.0,0.0,-2.1358,-2.17,-2.2485,-2.2457,0.0,-2.1601,0.0,0.0,0.0,0.0,0.0,0.0,0.0,0.0,0.0,0.0,-2.3287,-2.3603,-2.4262,-2.4739,-2.4522,-2.3732,-2.27,0.0,-2.0274,-1.8844,-1.7049,0.0,0.0,0.0,0.0,-2.0627,-2.2506,-2.4199,-2.5561,-2.6411,-2.6499,-2.6386,-2.6135,-2.5573,-2.4921,-2.4098,-2.3007,-2.1907,-2.079,-1.8819,-1.7235,0.0,0.0,0.0,0.0,0.0,0.0,0.0,0.0,0.0,0.0,0.0,0.0,0.0,0.0,0.0,0.0,0.0,0.0,0.0,0.0,0.0,0.0,0.0,0.0,0.0,0.0,0.0,0.0,-2.0289,-2.1383,-2.1534,-2.2611,-2.2661,0.0,0.0,0.0,0.0,0.0,0.0,-2.4136,-2.541,-2.6779,-2.8285,-2.9264,-3.0267,-3.1436,-3.2252,-3.2717,-3.2855,-3.3294,-3.3709,-3.4098,-3.3684,-3.3947,-3.4655,-3.3916,-3.336,-3.281,-3.0226,-2.8787,-2.7952,-2.4765,-2.3688,-2.3754,-2.2828,-2.2742,-2.3177,-2.3833,-2.3876,-2.3525,-2.2733,-2.2012,-2.1214,-2.0052,0.0,0.0,0.0,0.0,-2.1058,-2.2089,-2.2643,-2.3178,-2.4132,-2.4607,-2.4796,-2.4796,-2.5435,-2.554,0.0,-2.3088,-2.2046,-1.9823,0.0,0.0,0.0,0.0,-2.1845,-2.3346,-2.4757,-2.5824,-2.6436,-2.6499,-2.6499,-2.6499,-2.5971,-2.5372,-2.4825,-2.3873,-2.2819,-2.1744,-2.0006,-1.8444,-1.7092,0.0,0.0,0.0,0.0,0.0,0.0,0.0,0.0,0.0,0.0,0.0,0.0,0.0,0.0,0.0,0.0,0.0,0.0,0.0,0.0,0.0,0.0,0.0,0.0,0.0,0.0,0.0,0.0,0.0,-2.3766,-2.5292,0.0,0.0,0.0,0.0,-2.3828,-2.5343,-2.6524,-2.7042,-2.8649,-3.0043,-3.1148,-3.175,-3.2591,-3.3721,-3.3796,-3.4073,-3.4555,-3.4625,-3.4605,-3.4675,-3.465,-3.4675,-3.4623,-3.3337,-3.2745,-3.2683,-3.2191,-3.0733,-2.8655,-2.738,-2.649,-2.5883,-2.533,-2.511,-2.5312,-2.6333,-2.6023,-2.5188,-2.5223,-2.3377,-2.1222,-2.1104,-2.0526,0.0,0.0,-2.086,-2.1379,-2.2284,-2.2519,-2.2647,-2.3089,-2.4021,-2.4798,-2.4798,-2.606,-2.6714,0.0,-2.427,-2.369,-2.2982,0.0,-2.1455,-2.1983,-2.2581,-2.3396,-2.455,-2.5247,-2.5824,-2.6436,-2.6499,-2.6499,-2.6499,-2.5971,-2.5372,-2.4825,-2.428,-2.3452,-2.2322,-2.0899,-1.9634,-1.861,-1.5741,0.0,0.0,0.0,0.0,0.0,0.0,0.0,0.0,0.0,0.0,0.0,0.0,0.0,0.0,0.0,0.0,0.0,0.0,0.0,0.0,0.0,0.0,0.0,0.0,0.0,0.0,0.0,0.0,-2.6,-2.7582,0.0,-2.5498,-2.6603,-2.7057,-2.6176,-2.7996,-2.9365,-2.9892,-3.1185,-3.2252,-3.298,-3.3545,-3.4022,-3.4424,-3.4776,-3.5019,-3.5207,-3.5617,-3.5768,-3.5768,-3.5768,-3.5768,-3.578,-3.5276,-3.4384,-3.3197,-3.3068,-3.1908,-3.0178,-2.9575,-2.8472,-2.7166,-2.6271,-2.5438,-2.4761,-2.5147,-2.5057,-2.4716,-2.4761,-2.3895,-2.2881,-2.2881,-2.2656,-2.2383,-2.2317,-2.2549,-2.2881,-2.2867,-2.2877,-2.2906,-2.3062,-2.343,-2.3714,-2.3714,-2.4746,-2.5494,-2.4898,-2.5535,-2.5598,-2.3962,-2.3115,-2.2585,-2.2354,-2.3152,-2.4295,-2.5707,-2.6653,-2.7155,-2.704,-2.6448,-2.6159,-2.6477,-2.5701,-2.5108,-2.4818,-2.4091,-2.3426,-2.2827,-2.0213,-1.8944,-1.9277,-1.6247,-1.4378,0.0,0.0,0.0,0.0,0.0,0.0,0.0,0.0,0.0,0.0,0.0,0.0,0.0,0.0,0.0,0.0,0.0,0.0,0.0,0.0,0.0,0.0,0.0,0.0,0.0,0.0,-2.6716,-2.7469,-2.9202,-2.9603,-2.7794,-2.89,-2.9528,-2.8988,-3.0495,-3.1675,-3.2202,-3.3119,-3.3884,-3.4437,-3.4768,-3.509,-3.5278,-3.5642,-3.5818,-3.583,-3.6194,-3.6405,-3.6358,-3.5918,-3.5715,-3.5667,-3.4751,-3.3599,-3.2442,-3.2442,-3.1649,-3.0453,-3.0102,-2.9023,-2.7523,-2.6801,-2.6023,-2.5273,-2.5127,-2.4883,-2.4639,-2.4639,-2.4346,-2.4004,-2.4004,-2.4004,-2.3945,-2.3662,-2.3789,-2.3935,-2.3598,-2.3422,-2.3359,-2.3359,-2.3198,-2.3091,-2.3091,-2.4006,-2.4787,-2.4787,-2.5837,-2.637,-2.5301,-2.472,-2.4362,-2.4278,-2.4981,-2.5868,-2.6897,-2.7657,-2.7959,-2.7595,-2.6967,-2.6481,-2.6286,-2.5796,-2.5016,-2.3917,-2.3311,-2.2806,-2.2413,-1.9549,-1.8395,-1.92,-1.638,-1.4482,-1.3659,0.0,0.0,0.0,0.0,0.0,0.0,0.0,0.0,0.0,0.0,0.0,0.0,0.0,0.0,0.0,0.0,0.0,0.0,0.0,0.0,0.0,0.0,0.0,-2.4054,-2.6477,-2.821,-2.826,-3.0181,-3.1085,-3.0018,-3.0871,-3.1712,-3.2227,-3.2805,-3.337,-3.3922,-3.4462,-3.4956,-3.5508,-3.552,-3.583,-3.6405,-3.643,-3.643,-3.643,-3.6455,-3.6455,-3.6408,-3.5114,-3.4507,-3.4348,-3.1644,-3.0473,-3.0421,-3.0421,-3.0107,-2.9553,-2.9092,-2.8126,-2.7063,-2.7063,-2.7012,-2.6953,-2.6543,-2.584,-2.5155,-2.5155,-2.4814,-2.4453,-2.4453,-2.4453,-2.4453,-2.4443,-2.4434,-2.4434,-2.4424,-2.4111,-2.3809,-2.3799,-2.3467,-2.311,-2.3091,-2.3963,-2.4745,-2.4745,-2.5168,-2.5893,-2.7011,-2.6777,-2.6798,-2.7865,-2.8012,0.0,-2.8049,-2.811,-2.8147,-2.8098,-2.8085,-2.747,-2.5972,-2.6216,-2.52,-2.2275,-2.2019,-2.1713,-2.1056,-1.9058,-1.8107,-1.8435,-1.6159,-1.4491,-1.3464,0.0,0.0,0.0,0.0,0.0,0.0,0.0,0.0,0.0,0.0,0.0,0.0,0.0,0.0,0.0,0.0,0.0,0.0,0.0,0.0,0.0,0.0,-2.6791,-2.6954,-2.8687,-3.0369,-3.1562,-3.2955,-3.3533,-3.2842,-3.3395,-3.3709,-3.3458,-3.396,-3.4512,-3.5019,-3.5194,-3.5567,-3.6119,-3.6132,-3.6207,-3.6405,-3.6807,-3.696,-3.696,-3.7362,-3.755,-3.7538,-3.6785,-3.6404,-3.638,-3.5211,-3.4154,-3.3266,-3.3266,-3.2564,-3.1482,-3.0948,-2.9764,-2.8306,-2.8306,-2.7733,-2.6992,-2.6885,-2.6484,-2.6025,-2.6025,-2.5732,-2.5323,-2.5323,-2.5323,-2.5255,-2.498,-2.4893,-2.4814,-2.4502,-2.4336,-2.417,-2.3867,-2.3701,-2.3525,-2.3169,-2.3343,-2.3551,-2.3551,-2.37,-2.4154,-2.5299,-2.5115,-2.5172,-2.6152,-2.6359,0.0,-2.7416,-2.8583,-2.8885,-2.7668,-2.7631,-2.7456,-2.6938,-2.6334,-2.5438,-2.4107,-2.2554,-2.1699,-2.1644,-1.8688,-1.6969,-1.6777,-1.6966,-1.6286,0.0,0.0,0.0,0.0,0.0,0.0,0.0,0.0,0.0,0.0,0.0,0.0,0.0,0.0,0.0,0.0,0.0,0.0,0.0,0.0,0.0,0.0,-2.6879,-2.9139,-3.0055,-3.1035,-3.2089,-3.3282,-3.4186,-3.46,-3.4274,-3.4537,-3.4675,-3.46,-3.4843,-3.5257,-3.5855,-3.5893,-3.6031,-3.6405,-3.6631,-3.6757,-3.6757,-3.7249,-3.7525,-3.7525,-3.7852,-3.8002,-3.799,-3.7097,-3.669,-3.6665,-3.5525,-3.4645,-3.3877,-3.3607,-3.3055,0.0,0.0,0.0,0.0,0.0,-2.9344,-2.8116,-2.8116,-2.7491,-2.665,-2.665,-2.6357,-2.6006,-2.6006,-2.584,-2.5635,-2.542,-2.5352,-2.5293,-2.5039,-2.4824,-2.4629,-2.4385,-2.4189,-2.3935,-2.3506,-2.3408,-2.3359,-2.313,-2.3091,0.0,-2.3963,-2.4282,-2.497,-2.6428,-2.6708,-2.717,-2.8227,-2.9206,-2.9409,-2.8458,-2.8433,-2.7977,-2.6765,-2.6151,0.0,0.0,0.0,-2.0916,-2.0287,-1.86,0.0,0.0,0.0,0.0,0.0,0.0,0.0,0.0,-1.6862,-1.7327,0.0,0.0,0.0,0.0,0.0,0.0,0.0,0.0,0.0,0.0,0.0,0.0,0.0,0.0,0.0,0.0,-2.8976,-3.0884,-3.2968,-3.3319,-3.3533,-3.4022,-3.4575,-3.4901,-3.4901,-3.4901,-3.5115,-3.5558,-3.5596,-3.5855,-3.638,0.0,0.0,0.0,0.0,-3.7274,-3.7274,-3.7826,-3.8103,-3.8103,-3.8165,-3.8203,-3.8141,-3.6915,-3.6348,-3.6222,-3.4467,-3.3748,-3.3703,-3.3078,-3.2739,-3.2493,-3.2191,-3.2079,-3.2079,-3.1876,-3.0863,-2.9526,-2.9526,0.0,0.0,-2.709,-2.6807,-2.6455,-2.6455,-2.6191,-2.582,-2.5771,-2.5762,-2.5752,-2.5703,-2.5439,-2.5174,-2.5125,-2.4775,-2.4375,-2.3955,-2.3828,-2.3682,-2.3247,-2.313,-2.3091,-2.3091,-2.392,-2.5326,-2.7429,-2.7723,-2.8096,-2.9118,-2.9339,-2.9378,-2.9248,0.0,0.0,-2.5978,-2.5761,-2.4763,-2.2359,-2.1239,-1.9953,-1.829,-1.8988,-1.8887,-1.7741,-1.8741,-1.894,-1.8213,-2.0781,-2.1321,-1.9996,-2.0022,-2.0607,0.0,0.0,0.0,0.0,0.0,0.0,0.0,0.0,0.0,0.0,0.0,0.0,0.0,0.0,0.0,-2.8373,-3.0771,-3.2905,-3.4223,-3.4743,-3.5056,-3.5169,-3.5717,-3.6091,-3.6091,-3.6091,-3.6094,-3.6194,-3.6207,-3.6304,-3.6405,-3.6832,-3.7023,-3.7023,-3.7563,-3.7852,-3.7852,-3.8417,-3.8705,-3.8705,0.0,0.0,-3.9358,-3.8628,-3.8327,-3.829,-3.7468,-3.7072,-3.7022,-3.6481,-3.5344,-3.3773,-3.1531,-3.0669,-3.0566,-2.946,-2.885,-2.8579,-2.8579,-2.8144,-2.7539,-2.7539,-2.7246,-2.6894,-2.6894,-2.6836,0.0,-2.6357,-2.626,-2.6182,-2.5781,-2.5625,-2.5518,-2.5204,-2.5047,-2.4824,-2.4394,-2.4033,-2.3769,-2.3682,-2.3379,-2.3091,-2.3091,-2.3256,-2.3887,-2.5241,-2.5452,-2.5535,-2.5744,-2.6584,-2.6801,-2.587,-2.6584,-2.6718,-2.5715,-2.5661,-2.5049,-2.371,-2.2022,-2.0677,-1.9725,-2.0807,-2.0839,-1.9594,-2.1341,-2.1353,-1.9455,-2.1324,-2.2546,-2.3097,-2.2063,-2.1681,0.0,0.0,0.0,0.0,0.0,0.0,0.0,0.0,0.0,0.0,0.0,-2.4619,-2.544,0.0,-2.9402,-3.0783,-3.2629,-3.4186,-3.4969,-3.5604,-3.5956,-3.5956,-3.6194,-3.6405,-3.6405,-3.6405,-3.6405,-3.6405,-3.6669,-3.682,-3.682,-3.7299,-3.76,-3.76,-3.814,-3.8442,-3.8442,-3.9007,-3.9283,-3.9283,-3.9559,-3.9697,-3.9685,-3.9408,-3.9283,-3.9245,-3.868,-3.8442,-3.8391,-3.7826,-3.7022,-3.599,-3.3664,-3.2137,-3.1327,-3.1338,-3.0473,-2.9408,-3.0068,-2.9318,-2.7978,-2.7978,-2.7695,-2.7344,-2.7344,-2.7187,-2.6973,-2.6758,-2.6699,-2.6602,-2.6172,-2.6064,-2.5957,-2.5508,-2.54,-2.5283,-2.4834,-2.458,-2.4585,-2.4972,-2.4611,-2.4438,-2.5111,-2.4965,-2.4967,-2.5557,-2.6119,-2.6655,-2.7238,-2.7799,-2.7706,-2.6562,-2.6942,-2.6728,-2.5324,-2.4932,-2.4363,-2.3298,-2.2859,-2.213,-2.1041,-2.1628,-2.1818,-2.1512,-2.295,-2.33,-2.2524,-2.4319,-2.5228,-2.5313,-2.5144,-2.4915,0.0,0.0,0.0,0.0,0.0,0.0,0.0,0.0,-2.3125,-2.4921,-2.605,-2.7143,-2.8499,-3.003,-3.1599,-3.3144,-3.4223,-3.5031,-3.5583,-3.6081,-3.6405,-3.6405,-3.6405,-3.6405,-3.6405,-3.6405,-3.6405,-3.6405,-3.692,-3.7186,-3.7186,-3.7814,-3.8165,-3.8165,-3.873,-3.9082,-3.9082,-3.9471,-3.9697,-3.9697,-3.9697,-3.9697,-3.9697,-3.9697,-3.9697,-3.9672,-3.922,-3.902,-3.8831,-3.8091,-3.773,-3.7432,-3.5633,-3.4039,-3.2701,-3.3385,-3.2191,-3.0421,-3.1224,-3.011,-2.8291,-2.8291,-2.8066,-2.7836,-2.7836,-2.7539,-2.7246,-2.7168,-2.7139,-2.7041,-2.6621,-2.6514,-2.6406,-2.5918,-2.5996,-2.6062,-2.5654,-2.5722,-2.5997,-2.6653,-2.634,-2.6238,-2.7272,-2.7194,-2.6873,-2.6535,-2.725,-2.8108,-2.904,-2.917,-2.8831,-2.7896,-2.7591,-2.6644,-2.4617,-2.4062,-2.3433,-2.2571,-2.3278,-2.3249,-2.2217,-2.2157,-2.2527,-2.3296,-2.3924,-2.4476,-2.5004,-2.6647,-2.7152,-2.6594,-2.7629,-2.7876,-2.3296,-2.2234,-2.1907,-2.3276,-2.2912,-2.3514,0.0,0.0,-2.7256,-2.9428,-3.0344,-3.0796,-3.0984,-3.2001,-3.3181,-3.4349,-3.5006,-3.5596,-3.6241,-3.6367,-3.6405,-3.6405,-3.6405,-3.6405,-3.6405,-3.6405,-3.6405,-3.6405,-3.692,-3.7186,-3.7186,-3.8191,-3.8781,-3.8781,-3.932,-3.9597,-3.9597,-3.9659,-3.9697,-3.9697,-3.9697,-3.9697,-3.9697,-3.9697,-3.9697,-3.9697,-3.9634,-3.932,-3.8805,-3.7485,-3.6633,-3.6099,-3.467,-3.3978,-3.357,-3.1486,-3.0566,-3.0162,-2.9102,-2.8548,-2.8291,-2.8291,-2.8262,-2.8223,-2.8223,-2.8193,-2.8076,-2.7695,-2.7598,-2.75,-2.706,-2.6943,-2.6836,-2.6416,-2.7158,-2.7831,-2.7421,-2.7863,-2.8399,-2.8478,-2.812,-2.7861,-2.7991,-2.8379,-2.8128,-2.6704,-2.6595,-2.673,-2.6842,-2.6894,-2.6801,-2.6678,-2.5786,-2.466,-2.3387,-2.326,-2.2991,-2.2519,-2.2616,-2.2804,-2.3116,-2.3135,-2.3633,-2.4759,-2.4285,-2.4123,-2.4329,-2.4889,-2.5633,-2.6549,-2.7599,-2.8076,-2.5737,-2.5209,-2.5034,0.0,-2.6038,-2.6832,-2.9528,-2.9415,-2.9176,-3.0746,-3.1486,-3.1863,-3.1863,-3.3056,-3.4186,0.0,-3.5454,-3.6094,-3.6367,-3.6094,-3.5893,-3.5893,-3.5604,-3.5655,-3.6355,-3.6405,-3.6405,-3.6405,-3.7174,-3.7663,-3.7663,-3.873,-3.9346,-3.9346,-3.9572,-3.9697,-3.9697,-3.9697,-3.9697,-3.9697,-3.9697,-3.9697,-3.9697,-3.9697,-3.9697,-3.9697,-3.9697,-3.9559,-3.9346,-3.8731,-3.8376,-3.8091,-3.7185,-3.6847,-3.6597,-3.4434,-3.2911,-3.1905,-3.1355,-3.0391,-2.946,-2.946,-2.946,-2.9608,-3.0369,-3.0618,-3.0586,-3.0436,-3.0383,-3.0276,-2.987,-2.9742,-2.9625,-2.9157,-2.9214,-2.9336,-2.9139,-2.913,-2.9376,-3.0049,-2.9776,-2.9459,-2.9459,-2.9381,-2.8831,-2.7431,-2.7888,-2.8422,-2.8422,-2.8422,-2.8171,-2.7493,-2.587,-2.4628,-2.4125,-2.3464,-2.3023,-2.2847,-2.2838,-2.2955,-2.3173,-2.3205,-2.3731,-2.4869,-2.4628,-2.513,-2.646,-2.6624,-2.7319,-2.8422,-2.887,-2.9066,-2.6691,-2.6942,0.0,-2.7469,-2.8461,-2.954,-3.0294,-3.0457,-3.0721,-3.1662,-3.2177,-3.2491,-3.2654,-3.3671,-3.46,-3.4856,-3.5617,-3.6194,-3.6392,-3.5893,-3.5495,-3.5495,-3.5019,-3.5027,-3.583,-3.6044,-3.6194,-3.6405,-3.7374,-3.8002,-3.8002,-3.9082,-3.9697,-3.9697,-3.9697,-3.9697,-3.9697,-3.9697,-3.9697,-3.9697,-3.9697,-3.9697,-3.9697,-3.9697,-3.9697,-3.9697,-3.9697,-3.9697,-3.9697,-3.9697,-3.9697,-3.9647,-3.9258,-3.9094,-3.8943,-3.7543,-3.5715,-3.3914,-3.3553,-3.2402,-3.112,-3.112,-3.0983,-3.1019,-3.2039,-3.228,-3.228,-3.228,-3.228,-3.2152,-3.1506,-3.1318,-3.1097,-3.0269,-3.0035,-2.998,-2.9848,-2.9664,-2.9827,-3.0694,-3.0477,-3.0115,-3.0115,-2.9694,-2.9,-2.8075,-2.8691,-2.93,-2.9483,-2.9413,-2.8897,-2.7775,-2.6243,-2.5126,-2.483,-2.4339,-2.4059,-2.4059,-2.3724,-2.3551,-2.3551,-2.3256,-2.3637,-2.4787,-2.45,-2.5284,-2.7174,-2.7174,-2.7775,-2.8882,-2.9197,-2.9495,-2.5184,0.0,-2.7406,-2.7946,-2.934,-3.0846,-3.1901,-3.2139,-3.2303,-3.2905,-3.3043,-3.3219,-3.3746,-3.3884,-3.4274,-3.5307,-3.5495,-3.5708,-3.6329,-3.5893,-3.5495,-3.5495,-3.5019,-3.4693,0.0,-3.5207,-3.5793,-3.6367,-3.7374,-3.8002,-3.8002,-3.9082,-3.9697,-3.9697,-3.9697,-3.9697,-3.9697,-3.9697,-3.9697,-3.9697,-3.9697,-3.9697,-3.9697,-3.9697,-3.9697,-3.9697,-3.9697,-3.9697,-3.9697,-3.9697,-3.9697,-3.9697,-3.9672,-3.9672,-3.9672,-3.9595,-3.8015,-3.5718,-3.4445,-3.3618,-3.3122,-3.3122,-3.2734,-3.223,-3.228,-3.228,-3.228,-3.228,-3.228,-3.1977,-3.07,-3.0348,-2.9933,-2.8195,-2.8665,-2.9417,-2.8956,-2.9445,-3.0008,-3.0055,-2.9709,-2.943,-2.943,-2.897,-2.8612,-2.8567,-2.8109,-2.8037,-2.8751,-2.8405,-2.7723,-2.6637,-2.6483,-2.6005,-2.4872,-2.5766,-2.64,-2.64,-2.5378,-2.4745,-2.4745,-2.3681,-2.3637,-2.4787,-2.3714,-2.3714,-2.4914,-2.4914,-2.5504,-2.6648,-2.7654,-2.8727,-2.6904,0.0,-2.8687,-2.9967,-3.0984,-3.1876,-3.2616,-3.278,-3.2729,-3.2541,-3.2503,-3.2453,-3.2265,-3.2855,-3.3596,-3.4336,-3.5019,-3.5683,-3.6329,-3.5893,-3.5357,-3.4994,-3.4512,0.0,0.0,0.0,0.0,-3.578,-3.6835,-3.7613,-3.799,-3.9082,-3.9697,-3.9697,-3.9697,-3.9697,-3.9697,-3.9697,-3.9697,-3.9697,-3.9697,-3.9697,-3.9697,-3.9697,-3.9697,-3.9697,-3.9697,-3.9697,-3.9697,-3.9697,-3.9697,-3.9697,-3.9697,-3.9697,-3.9697,-3.9697,-3.9177,-3.8202,-3.6474,-3.5495,-3.5074,-3.5074,-3.4894,-3.4836,-3.5376,-3.4911,-3.417,-3.3805,-3.3712,-3.3365,-3.1988,-3.2342,-3.2871,-3.2302,-3.2146,-3.234,-3.3102,-3.3179,-3.2998,-3.2635,-3.2487,-3.201,-3.0779,-3.0435,-2.9947,-2.8914,-2.8154,-2.7806,-2.8026,-2.771,-2.7277,-2.6954,-2.5983,-2.5504,-2.5891,-2.5588,-2.5672,-2.6431,-2.6141,-2.5933,-2.5933,-2.5557,-2.5515,-2.5933,-2.5557,-2.588,-2.6971,-2.6971,-2.7562,-2.8712,-2.9079,-2.9443,-2.8097,-2.8913,-2.988,-3.1323,-3.2102,-3.2616,-3.2993,-3.2918,-3.2667,-3.229,-3.1913,-3.1587,-3.1424,-3.1675,-3.234,-3.3684,-3.4324,-3.5064,-3.6241,-3.5717,-3.5144,-3.4994,-3.4349,-3.3972,0.0,0.0,0.0,-3.5458,-3.6747,-3.7638,-3.799,-3.9082,-3.9697,-3.9697,-3.9697,-3.9697,-3.9697,-3.9697,-3.9697,-3.9697,-3.9697,-3.9697,-3.9697,-3.9697,-3.9697,-3.9697,-3.9697,-3.9697,-3.9697,-3.9697,-3.9697,-3.9697,-3.9697,-3.9697,-3.9697,-3.9697,-3.9697,-3.9531,-3.8282,-3.7485,-3.6933,-3.6449,-3.6471,-3.672,-3.6702,-3.5999,-3.525,-3.5344,-3.4931,-3.4178,-3.3304,-3.3712,-3.4276,-3.3773,-3.3357,-3.3307,-3.415,-3.3979,-3.3368,-3.2545,-3.2285,-3.1564,-2.9789,-2.9703,-2.9704,-2.9128,-2.8612,-2.8177,-2.7831,-2.7172,-2.6737,-2.6737,-2.586,-2.555,-2.629,-2.6055,-2.6107,-2.6657,-2.6729,-2.6741,-2.6782,-2.6782,-2.6861,-2.7082,-2.7082,-2.7417,-2.811,-2.811,-2.8666,-2.9788,-2.9788,-2.9988,-2.875,-2.9866,-3.0997,-3.2039,-3.2717,-3.3149,-3.3086,-3.2604,-3.219,-3.2102,-3.126,-3.0658,0.0,0.0,-3.062,-3.3257,-3.337,-3.3916,-3.6065,-3.5441,-3.4944,0.0,0.0,0.0,0.0,0.0,0.0,-3.5458,0.0,-3.7977,-3.8002,-3.9082,-3.9697,-3.9697,-3.9697,-3.9697,-3.9697,-3.9697,-3.9697,-3.9697,-3.9697,-3.9697,-3.9697,-3.9697,-3.9697,-3.9697,-3.9697,-3.9697,-3.9697,-3.9697,-3.9697,-3.9697,-3.9697,-3.9697,-3.9697,-3.9697,-3.9697,-3.9697,-3.9697,-3.9346,-3.8691,-3.7324,-3.7407,-3.7829,-3.6386,-3.5649,-3.5543,-3.6762,-3.5844,-3.4457,-3.4384,-3.4372,-3.4103,-3.2744,-3.2392,-3.2431,-3.2482,-3.2171,-3.145,-3.0242,-2.9558,-2.8619,-2.6914,-2.7235,-2.8128,-2.9257,-2.9372,-2.8969,-2.7998,-2.685,-2.6111,-2.6066,-2.6045,-2.6024,-2.6114,-2.7051,-2.7499,-2.7171,-2.7149,-2.7191,-2.733,-2.7372,-2.764,-2.807,-2.82,-2.8243,-2.8157,-2.8243,-2.8803,-2.99,-2.99,-3.0413,-3.0859,-3.1901,-3.2616,-3.3294,-3.3583,-3.347,-3.2616,-3.2315,-3.1876,-3.0658,-2.9854,-2.9026,0.0,0.0,0.0,-3.0658,-3.2441,0.0,-3.5567,-3.5868,0.0,-3.5533,0.0,-3.4969,-3.4751,-3.5044,0.0,0.0,-3.6697,-3.7575,-3.799,-3.9082,-3.9697,-3.9697,-3.9697,-3.9697,-3.9697,-3.9697,-3.9697,-3.9697,-3.9697,-3.9697,-3.9697,-3.9697,-3.9697,-3.9697,-3.9697,-3.9697,-3.9697,-3.9697,-3.9697,-3.9697,-3.9697,-3.9697,-3.9697,-3.9697,-3.9697,-3.9697,-3.9697,-3.9597,-3.9432,-3.9034,-3.9102,-3.9131,-3.8351,-3.7305,-3.6359,-3.6331,-3.5975,-3.5269,-3.3871,-3.4233,-3.4788,-3.4064,-3.3871,-3.4117,-3.515,-3.451,-3.3761,-3.3994,-3.2806,-3.1308,-2.984,-2.9474,-2.9476,-2.9793,-2.8805,-2.7964,-2.7718,-2.7112,-2.6351,-2.5455,-2.5063,-2.5174,-2.6024,-2.6372,-2.6787,-2.7521,-2.7553,-2.7553,-2.7597,-2.851,-2.8622,-2.783,-2.9611,-3.0139,-2.923,-3.0139,-3.0704,-3.1005,-3.1005,-3.1141,-3.219,-3.3181,-3.3822,-3.3884,-3.3721,-3.3244,-3.2114,-3.1486,-3.0683,-2.9026,-2.8047,0.0,-2.595,0.0,0.0,0.0,0.0,0.0,-3.527,-3.5805,-3.5981,0.0,-3.5646,0.0,-3.5441,-3.5717,-3.6006,0.0,-3.7061,-3.7676,-3.799,-3.9082,-3.9697,-3.9697,-3.9697,-3.9697,-3.9697,-3.9697,-3.9697,-3.9697,-3.9697,-3.9697,-3.9697,-3.9697,-3.9697,-3.9697,0.0,-3.9697,-3.9697,-3.9697,-3.9697,-3.9697,-3.9697,-3.9697,-3.9697,-3.9697,-3.9697,-3.9697,-3.9697,-3.9697,-3.9581,-3.8961,-3.9193,-3.9519,-3.8551,-3.7572,-3.688,-3.7181,-3.6659,-3.5887,-3.5449,-3.5713,-3.6027,-3.5685,-3.5442,-3.5319,-3.5463,-3.4921,-3.4193,-3.3375,-3.1769,-3.0417,-3.022,-2.9759,-2.9685,-3.0211,-2.9387,-2.8479,-2.7931,-2.6975,-2.6104,-2.5457,-2.5146,-2.5451,-2.6675,-2.6767,-2.7163,-2.8132,-2.8636,-2.868,-2.8209,-2.93,-2.9491,-2.8466,-3.0331,-3.0967,-3.03,-3.1544,-3.2127,-3.2127,-3.2127,-3.2127,-3.3119,-3.4048,-3.47,-3.4148,-3.3596,-3.2855,-3.1574,-3.0394,-2.9089,-2.7406,0.0,-2.5109,-2.4582,-2.5046,-2.6364,-2.9026,0.0,-3.288,-3.5069,-3.5458,-3.5696,-3.6342,-3.5943,-3.5843,-3.6367,-3.6468,-3.6719,-3.7149,-3.7764,-3.8115,-3.8115,-3.912,-3.9697,-3.9697,-3.9697,-3.9697,-3.9697,-3.9697,-3.9697,-3.9697,-3.9697,-3.9697,-3.9697,-3.9697,-3.9697,-3.9697,-3.9697,0.0,-3.9697,-3.9697,-3.9697,-3.9697,-3.9697,-3.9697,-3.9697,-3.9697,-3.9697,-3.9697,-3.9697,-3.9697,-3.9478,-3.7967,-3.836,-3.9129,-3.7636,-3.7038,-3.7164,-3.8372,-3.7492,-3.6456,-3.7555,-3.7345,-3.6813,-3.6738,-3.6318,-3.5622,-3.4481,-3.4176,-3.3315,-3.0577,-2.8957,-2.8341,-2.9178,-2.8949,-2.9027,-3.015,-2.9917,-2.9228,-2.8161,-2.6826,-2.5878,-2.5742,-2.5693,-2.6149,-2.7268,-2.7363,-2.7645,-2.8317,-2.9437,-2.9614,-2.8701,-2.9846,-3.0176,-2.9396,-3.0765,-3.1356,-3.1223,-3.2469,-3.3124,-3.3124,-3.3124,-3.3124,-3.4161,-3.4868,-3.5219,-3.4713,-3.4161,-3.3232,-3.121,-2.9528,0.0,0.0,-2.4644,-2.3358,-2.2819,-2.3954,-2.5561,-2.7419,0.0,0.0,0.0,0.0,-3.5696,0.0,0.0,0.0,0.0,0.0,0.0,0.0,0.0,-3.8718,-3.8718,-3.9333,-3.9697,-3.9697,-3.9697,-3.9697,-3.9697,-3.9697,-3.9697,-3.9697,-3.9697,-3.9697,-3.9697,-3.9697,-3.9697,-3.9697,-3.9697,0.0,-3.9697,-3.9697,-3.9697,-3.9697,-3.9697,-3.9697,-3.9697,-3.9697,-3.9697,-3.9697,-3.9697,-3.9697,-3.9478,-3.7967,-3.769,-3.7583,-3.6108,-3.6483,-3.744,-3.7664,-3.7486,-3.7202,-3.698,-3.5893,-3.4751,-3.4341,-3.3914,-3.3509,-3.3317,-3.2938,-3.1887,-2.9154,-2.9294,-2.9547,-2.8632,-2.8179,-2.7944,-2.8193,-2.7812,-2.7432,-2.7239,-2.7262,-2.6849,-2.583,-2.5693,-2.5781,-2.6014,-2.6014,-2.6081,-2.6232,-2.7416,-2.8014,-2.7838,-2.9907,-3.0538,-2.9407,-3.1601,-3.2239,-3.1223,-3.2469,-3.3124,-3.3124,-3.3124,-3.3124,-3.45,-3.5328,-3.5768,-3.4926,-3.4085,-3.2817,-3.0306,0.0,0.0,0.0,-2.3025,-2.202,-2.1167,-2.2594,0.0,0.0,0.0,0.0,0.0,0.0,0.0,0.0,0.0,0.0,0.0,0.0,0.0,0.0,0.0,-3.8919,-3.8919,-3.9396,-3.9697,-3.9697,-3.9697,-3.9697,-3.9697,-3.9697,-3.9697,-3.9697,-3.9697,-3.9697,-3.9697,-3.9697,-3.9697,-3.9697,-3.9697,0.0,-3.9697,-3.9697,-3.9697,-3.9697,-3.9697,-3.9697,-3.9697,-3.9697,-3.9697,-3.9697,-3.9697,-3.9697,-3.9478,-3.7967,-3.8019,-3.853,-3.782,-3.753,-3.7518,-3.7518,-3.6972,-3.6322,-3.6025,-3.516,-3.4363,-3.4075,-3.3121,-3.2188,-3.1992,-3.119,-3.0085,-2.8587,-2.8804,-2.9049,-2.8388,-2.8125,-2.7988,-2.7988,-2.7627,-2.7353,-2.7353,-2.7322,-2.7071,-2.6446,-2.6211,-2.631,-2.6954,-2.679,-2.6935,-2.7579,-2.8215,-2.8272,-2.7636,-2.8727,-2.9039,-2.8448,-3.0237,-3.119,-3.1223,-3.2469,-3.3124,-3.3124,-3.3124,-3.3232,-3.4399,-3.5265,-3.5768,-3.4788,-3.3709,-3.219,-2.9502,-2.7469,0.0,0.0,-2.1681,-2.0891,-2.0125,0.0,-2.3233,0.0,-2.7005,0.0,0.0,0.0,0.0,0.0,0.0,0.0,0.0,0.0,0.0,0.0,0.0,0.0,-3.9095,-3.9459,-3.9697,-3.9697,-3.9697,-3.9697,-3.9697,-3.9697,-3.9697,-3.9697,-3.9697,-3.9697,-3.9697,-3.9697,-3.9697,-3.9697,-3.9697,0.0,0.0,-3.9697,-3.9697,-3.9697,-3.9697,-3.9697,-3.9697,-3.9697,-3.9697,-3.9697,-3.9697,-3.9697,-3.953,-3.8348,-3.8518,-3.9193,-3.8856,-3.819,-3.7518,-3.7518,-3.6649,-3.5781,-3.5781,-3.4931,-3.401,-3.3584,-3.2355,-3.1288,-3.1208,-3.0059,-2.9035,-2.8926,-2.8632,-2.8398,-2.831,-2.8291,-2.8291,-2.8291,-2.8018,-2.7855,-2.7855,-2.75,-2.7285,-2.7285,-2.6826,-2.6903,-2.7842,-2.7658,-2.7883,-2.8845,-2.9116,-2.8845,-2.792,-2.8111,-2.8253,-2.8253,-2.922,-3.0136,-3.1093,-3.2115,-3.2595,-3.2582,-3.2871,-3.3238,-3.3822,-3.4412,-3.4726,-3.4123,-3.3119,-3.17,-2.9402,0.0,0.0,-2.2686,-2.1054,-2.0087,-2.0541,0.0,0.0,0.0,0.0,-2.8549,0.0,0.0,0.0,0.0,0.0,0.0,0.0,0.0,0.0,0.0,0.0,0.0,-3.9622,-3.9672,-3.9697,-3.9697,-3.9697,-3.9697,-3.9697,-3.9697,-3.9697,-3.9697,-3.9697,-3.9697,-3.9697,-3.9697,-3.9697,-3.9697,-3.9697,0.0,0.0,-3.9697,-3.9697,-3.9697,-3.9697,-3.9697,-3.9697,-3.9697,-3.9697,-3.9697,-3.9697,-3.9697,-3.9697,-3.953,-3.8687,-3.7465,-3.6108,-3.6541,-3.7518,-3.7518,-3.7412,-3.7305,-3.7305,-3.5287,-3.2786,-3.1004,-3.0431,-3.0565,-3.1517,-3.0579,-2.9808,-3.0669,-2.9739,-2.874,-2.8359,-2.8291,-2.8291,-2.8291,-2.8262,-2.8232,-2.8232,-2.8203,-2.8174,-2.8174,-2.7441,-2.7004,-2.7106,-2.7066,-2.7088,-2.723,-2.8233,-2.8806,-2.8708,-2.9824,-3.0404,-3.0404,-3.0537,-3.0644,-3.0729,-3.0872,-3.092,-3.0968,-3.2172,-3.2766,-3.3156,-3.4048,-3.4587,-3.4035,-3.3043,-3.1549,-2.9013,0.0,-2.4211,-2.2234,-2.074,-1.9874,-2.01,-2.0641,-2.1597,0.0,0.0,0.0,0.0,0.0,0.0,0.0,0.0,0.0,0.0,0.0,0.0,0.0,0.0,0.0,-3.9697,-3.9697,-3.9697,-3.9697,-3.9697,-3.9697,-3.9697,-3.9697,-3.9697,-3.9697,-3.9697,-3.9697,-3.9697,-3.9697,-3.9697,-3.9697,-3.9697,0.0,0.0,-3.9697,-3.9697,-3.9697,-3.9697,-3.9697,-3.9697,-3.9697,-3.9697,-3.9697,-3.9697,-3.9697,-3.9697,-3.9697,-3.9297,-3.8687,-3.8149,-3.7755,-3.7518,-3.7518,-3.6865,-3.5988,-3.5057,-3.3304,-3.1554,-3.0828,-3.0615,-3.0661,-3.081,-3.0383,-2.9983,-3.0193,-2.9466,-2.8867,-2.8701,-2.8457,-2.8291,-2.8291,-2.8291,-2.8291,-2.8291,-2.8291,-2.8291,-2.8291,-2.7764,-2.7402,-2.7402,-2.7168,-2.7012,-2.7012,-2.744,-2.7733,-2.7733,-2.8216,-2.919,-3.0778,-3.0003,-3.0332,-3.1876,-3.1103,-3.0719,-3.0719,-3.1258,-3.1657,-3.2227,-3.3144,-3.3646,-3.3257,-3.2315,-3.0821,0.0,-2.6038,-2.3941,-2.1707,-2.0476,-1.9798,-1.9798,-2.0137,-2.0828,0.0,0.0,-2.3998,-2.6625,0.0,0.0,0.0,0.0,0.0,0.0,0.0,0.0,0.0,0.0,0.0,-3.9697,-3.9697,-3.9697,-3.9697,-3.9697,-3.9697,-3.9697,-3.9697,-3.9697,-3.9697,-3.9697,-3.9697,-3.9697,-3.9697,-3.9697,-3.9697,-3.9697,0.0,0.0,-3.9697,-3.9697,-3.9697,-3.9697,-3.9697,-3.9697,-3.9697,-3.9697,-3.9697,-3.9697,-3.9697,-3.9697,-3.9697,-3.9697,-3.9697,-3.9697,-3.8961,-3.8137,-3.8137,-3.7423,-3.6271,-3.4781,-3.3304,-3.2102,-3.1662,-3.1218,-3.0907,-3.1013,-3.0725,-3.0435,-3.0432,-2.9826,-2.9258,-2.9131,-2.8867,-2.8633,-2.8496,-2.8476,-2.8437,-2.831,-2.8291,-2.8291,-2.8291,-2.8027,-2.7851,-2.7851,-2.7568,-2.7393,-2.7393,-2.7393,-2.7393,-2.7393,-2.7393,-2.8227,-3.0091,-2.9151,-2.9542,-3.1398,-3.0477,-2.9981,-2.9981,-3.0416,-3.1245,-3.0959,-3.1411,-3.1424,-3.1411,-3.0608,-2.9227,-2.7014,-2.5229,-2.3376,-2.1157,-2.0239,-1.9798,-1.9798,-1.9811,-2.0363,-2.2033,-2.2744,0.0,-2.762,0.0,0.0,0.0,0.0,0.0,0.0,0.0,0.0,0.0,0.0,0.0,-3.9697,-3.9697,-3.9697,-3.9697,-3.9697,-3.9697,-3.9697,-3.9697,-3.9697,-3.9697,-3.9697,-3.9697,-3.9697,-3.9697,-3.9697,0.0,0.0,0.0,0.0,-3.9697,-3.9697,-3.9697,-3.9697,-3.9697,-3.9697,-3.9697,-3.9697,-3.9697,-3.9697,-3.9697,-3.9697,-3.9697,-3.9697,-3.9697,-3.9697,-3.9697,-3.9697,-3.9697,-3.9697,-3.9297,-3.7849,-3.6379,-3.4902,-3.3406,-3.1988,-3.1276,-3.2747,-3.192,-3.1196,-3.219,-3.1166,-3.0049,-2.9629,-2.9616,-2.9414,-2.8975,-2.8916,-2.876,-2.834,-2.8291,-2.8291,-2.8291,-2.8291,-2.8281,-2.8281,-2.8281,-2.8281,-2.8281,-2.8281,-2.8281,-2.8281,-2.8281,-2.8281,-2.8335,-2.8335,-2.8325,-2.8335,-2.8335,-2.8325,-2.8388,-2.9702,-3.1774,-2.8335,-2.9126,-2.9616,-2.9239,-2.8612,-2.7595,-2.5762,-2.4343,-2.2857,-2.1069,-2.0239,-1.9798,-1.9798,-1.9798,-2.0476,-2.2506,-2.2995,0.0,0.0,0.0,0.0,0.0,0.0,0.0,0.0,0.0,0.0,0.0,0.0,0.0,-3.9697,-3.9333,-3.9308,-3.9685,-3.9697,-3.9697,-3.9697,-3.9697,-3.9697,-3.9697,-3.9697,-3.9697,-3.9697,-3.9697,-3.9697,0.0,0.0,0.0,0.0,-3.9697,-3.9697,-3.9697,-3.9697,-3.9697,-3.9697,-3.9697,-3.9697,-3.9697,-3.9697,-3.9697,-3.9697,-3.9697,-3.9697,-3.953,-3.8518,-3.8908,-3.9697,-3.9697,-3.753,-3.5332,-3.5836,-3.4136,-3.2436,-3.2964,-3.1988,-3.1276,-3.2804,-3.193,-3.1014,-3.1309,-3.0744,-3.0156,-3.0019,-2.9756,-2.9521,-2.9385,-2.9365,-2.9209,-2.8779,-2.8721,-2.8613,-2.832,-2.8291,-2.8291,-2.8291,-2.8291,-2.8291,-2.8291,-2.8291,-2.8291,-2.8291,-2.8291,-2.8751,-2.966,-2.8751,-2.8751,-2.966,-2.8751,-2.8291,-2.8291,-2.8751,-2.9911,-2.6276,-2.7306,-2.7908,-2.757,-2.6917,-2.5975,-2.4487,-2.3296,-2.2096,-2.0666,-2.0049,-1.9798,-1.9798,-1.9798,-2.0326,-2.1945,-2.2343,0.0,0.0,0.0,0.0,0.0,0.0,0.0,0.0,0.0,0.0,0.0,0.0,0.0,-3.9057,-3.873,-3.8693,-3.9044,-3.9057,-3.9057,-3.9057,-3.9057,-3.9057,-3.9057,-3.9283,-3.9383,-3.9396,-3.9597,-3.9697,0.0,0.0,0.0,0.0,-3.9697,-3.9697,-3.9697,-3.9697,-3.9697,-3.9697,-3.9697,-3.9697,-3.9697,-3.9697,-3.9697,-3.9697,-3.9697,-3.931,-3.8687,-3.7796,-3.7755,-3.8043,-3.8043,-3.6054,-3.4125,-3.5068,-3.3529,-3.1988,-3.2861,-3.1988,-3.117,-3.2092,-3.1546,-3.0889,-3.0889,-3.0654,-3.0459,-3.0459,-3.0244,-3.001,-2.9834,-2.9814,-2.9648,-2.9219,-2.917,-2.9062,-2.8799,-2.8779,-2.8779,-2.8779,-2.8476,-2.8291,-2.8291,-2.8291,-2.8291,-2.8291,-2.8291,-2.8698,-2.9513,-2.8751,-2.8698,-2.9555,-2.8698,-2.8291,-2.8291,-2.8804,-2.9513,0.0,-2.5732,-2.6185,-2.6147,-2.5335,-2.4274,-2.3183,-2.2171,0.0,-2.0024,-1.9798,-1.9823,-1.9911,-1.9849,-2.0062,-2.0867,0.0,0.0,0.0,0.0,0.0,0.0,0.0,0.0,0.0,0.0,0.0,0.0,0.0,0.0,-3.8002,-3.7965,-3.7952,-3.7952,-3.7914,-3.7927,-3.8002,-3.8002,-3.8002,-3.8015,-3.8555,-3.8856,-3.8831,-3.9333,-3.9597,0.0,0.0,0.0,0.0,-3.9697,-3.9697,-3.9697,-3.9697,-3.9697,-3.9697,-3.9697,-3.9697,-3.9697,-3.9697,-3.9697,-3.9685,-3.9581,-3.853,-3.7305,-3.724,-3.6217,-3.5178,-3.5288,-3.5134,-3.5013,-3.5134,-3.408,-3.2964,-3.3077,-3.1988,-3.0947,-3.1054,-3.0947,-3.0889,-3.0889,-3.0889,-3.0889,-3.0889,-3.0889,-3.0742,-3.0312,-3.0244,-3.0098,-2.9724,-2.9619,-2.96,-2.957,-2.9626,-2.9626,-2.9626,-2.8818,-2.834,-2.834,-2.831,-2.8291,-2.8291,-2.8291,-2.8291,-2.8291,-2.8291,-2.8291,-2.8291,-2.8291,-2.8291,-2.8344,-2.9565,-3.0214,-2.1685,0.0,-2.3188,-2.2791,-2.246,-2.2096,0.0,-2.1069,-2.0679,-1.9949,-1.9798,-2.0062,-2.0928,-2.0388,-2.069,-2.3401,0.0,0.0,0.0,0.0,0.0,0.0,0.0,0.0,0.0,0.0,0.0,0.0,0.0,-3.8002,-3.8002,-3.76,-3.7374,-3.7374,-3.6973,-3.7149,-3.8002,-3.8002,-3.8002,-3.8002,-3.814,-3.8216,-3.8216,-3.8341,-3.8642,0.0,0.0,0.0,-3.9697,-3.9697,-3.9697,-3.9697,-3.9697,-3.9697,-3.9697,-3.9697,-3.9697,-3.9697,-3.9697,-3.9697,-3.953,-3.836,-3.7037,-3.5617,-3.4448,-3.3901,-3.3856,-3.4958,-3.3642,-3.2217,-3.3304,-3.254,-3.171,-3.2804,-3.1988,-3.1228,-3.2369,-3.171,-3.0889,-3.0889,-3.0889,-3.0889,-3.0889,-3.0889,-3.0859,-3.0742,-3.0732,-3.0566,-3.0107,-3.0049,-2.9932,-2.96,-2.9626,-2.9626,-2.9626,-2.9082,-2.8769,-2.8769,-2.8467,-2.8291,-2.8291,-2.8291,-2.8291,-2.8291,-2.8291,-2.8291,-2.8291,-2.8291,-2.8291,-2.8291,-2.8591,-2.9303,-1.9911,-2.1267,-2.2594,-2.2322,-2.2058,-2.1782,-2.1493,-2.0855,-2.0175,-1.9861,-1.9798,-2.0075,-2.0981,-2.0815,0.0,0.0,0.0,0.0,0.0,0.0,0.0,0.0,0.0,0.0,0.0,0.0,0.0,0.0,0.0,-3.7249,-3.7249,-3.6973,-3.6857,-3.6857,-3.6568,-3.6694,-3.7249,-3.7249,-3.7249,-3.7262,-3.7513,-3.7626,-3.7638,-3.7889,-3.8178,0.0,0.0,0.0,-3.932,-3.932,-3.9471,-3.9697,-3.9697,-3.9697,-3.9697,-3.9697,-3.9697,-3.9697,-3.9697,-3.9245,-3.8465,-3.6984,-3.5497,-3.4125,-3.335,-3.2644,-3.2264,-3.3042,-3.2102,-3.1054,-3.1872,-3.1488,-3.1112,-3.1872,-3.1498,-3.1112,-3.193,-3.1441,-3.0889,-3.0889,-3.0889,-3.0889,-3.0889,-3.0889,-3.0889,-3.0889,-3.0889,-3.0801,-3.0547,-3.0518,-3.043,-3.0205,-3.0176,-3.0176,-3.0176,-2.9766,-2.9424,-2.9228,-2.9004,-2.8877,-2.8877,-2.8877,-2.8877,-2.8877,-2.8877,-2.8877,-2.8877,-2.8877,-2.8877,-2.8877,-2.8877,-2.9292,-1.9183,-2.1077,-2.292,-2.2656,-2.238,-2.2133,-2.197,0.0,0.0,0.0,0.0,0.0,0.0,-2.1458,0.0,0.0,0.0,0.0,0.0,0.0,0.0,0.0,0.0,0.0,0.0,0.0,0.0,0.0,0.0,-3.6405,-3.6405,-3.6405,-3.6405,-3.6405,-3.6405,-3.6405,-3.6405,-3.6405,-3.6405,-3.6417,-3.6835,-3.7061,-3.7073,-3.755,-3.7801,-3.7889,0.0,0.0,-3.8743,-3.8743,-3.9069,-3.9572,-3.9572,-3.9622,-3.9697,-3.9697,-3.9697,-3.9697,-3.9413,-3.8413,-3.6918,-3.5453,-3.4136,-3.3077,-3.2861,-3.1872,-3.0889,-3.0889,-3.0889,-3.0889,-3.0889,-3.0889,-3.0889,-3.0889,-3.0889,-3.0889,-3.0889,-3.0889,-3.0889,-3.0889,-3.0889,-3.0889,-3.0889,-3.0889,-3.0889,-3.0889,-3.0889,-3.0889,-3.0889,-3.0889,-3.0889,-3.0889,-3.0889,-3.0889,-3.0889,-3.0537,-3.0156,-2.9795,-2.9648,-2.9626,-2.9626,-2.9626,-2.9626,-2.9626,-2.9626,-2.9626,-2.9626,-2.9626,-2.9626,-2.9626,-2.9626,-2.9626,-2.0063,-2.1405,-2.2096,-2.0665,-2.0966,-2.1368,-2.0401,-1.9987,0.0,0.0,0.0,0.0,0.0,-2.2794,-2.3552,0.0,0.0,0.0,0.0,0.0,0.0,0.0,0.0,0.0,0.0,0.0,0.0,0.0,0.0,-3.6405,-3.6405,-3.6405,-3.6405,-3.6405,-3.6405,-3.6405,-3.6405,-3.6405,-3.6405,-3.6405,-3.6493,-3.6531,-3.6543,-3.6619,-3.6872,-3.7312,0.0,-3.7626,-3.814,-3.814,-3.8479,-3.9045,-3.9045,-3.9283,-3.9697,-3.9697,-3.9697,-3.953,-3.8295,-3.6876,-3.5398,-3.3912,-3.3293,-3.2861,-3.1604,-3.1054,-3.0889,-3.0889,-3.0889,-3.0889,-3.0889,-3.0889,-3.0889,-3.0889,-3.0889,-3.0889,-3.0889,-3.0889,-3.0889,-3.0889,-3.0889,-3.0889,-3.0889,-3.0889,-3.0889,-3.0889,-3.0889,-3.0889,-3.0889,-3.0889,-3.0889,-3.0889,-3.0889,-3.0889,-3.0889,-3.083,-3.0762,-3.0693,-2.998,-2.9626,-2.9626,-2.9626,-2.9626,-2.9626,-2.9626,-2.9626,-2.9626,-2.9626,-2.9626,-2.9626,-2.9626,-2.9626,-1.8793,-1.9899,-2.084,-2.0415,-2.1794,-2.3075,-2.2259,-2.1832,-2.1578,0.0,0.0,0.0,0.0,0.0,-2.5297,-2.7882,0.0,0.0,0.0,0.0,0.0,0.0,0.0,0.0,0.0,0.0,0.0,0.0,0.0,0.0,-3.6405,-3.6405,-3.6405,-3.6405,-3.6405,-3.6405,-3.6405,-3.6405,-3.6405,-3.6405,-3.6405,-3.6405,-3.6405,-3.6405,-3.6543,-3.6782,0.0,-3.7048,-3.7563,-3.7563,-3.7889,-3.8442,-3.8743,-3.9032,-3.9232,-3.8693,-3.8518,-3.819,-3.5934,-3.467,-3.4024,-3.3293,-3.3077,-3.2964,-3.2311,-3.2092,-3.193,-3.1112,-3.0889,-3.0889,-3.0889,-3.0889,-3.0889,-3.0889,-3.0889,-3.0889,-3.0889,-3.0889,-3.0889,-3.0889,-3.0889,-3.0889,-3.0889,-3.0889,-3.0889,-3.0889,-3.0889,-3.0889,-3.0889,-3.0889,-3.0889,-3.0889,-3.0889,-3.0889,-3.0889,-3.0889,-3.0889,-3.0889,-3.0508,-3.0283,-3.0283,-3.0283,-3.0283,-3.0283,-3.0283,-3.0283,-3.0283,-3.0283,-3.0283,-3.0283,-3.0283,-3.0283,-1.819,-1.8957,-1.9974,-2.0717,-2.246,-2.4029,-2.4004,-2.3452,-2.302,0.0,0.0,0.0,0.0,-2.5963,0.0,0.0,0.0,0.0,0.0,0.0,0.0,0.0,0.0,0.0,0.0,0.0,0.0,0.0,0.0,0.0,-3.6405,-3.6405,-3.6405,-3.6405,-3.6405,-3.6405,-3.6405,-3.6405,-3.6405,-3.6405,-3.6405,-3.6405,-3.6405,-3.6405,-3.6405,-3.6405,-3.6405,-3.6644,-3.6998,-3.6998,-3.7312,-3.7864,-3.8442,-3.8667,-3.8508,-3.7769,-3.7079,-3.6151,-3.3901,-3.2851,-3.2587,-3.2587,-3.2587,-3.2587,-3.2587,-3.2587,-3.2369,-3.1218,-3.0889,-3.0889,-3.0889,-3.0889,-3.0889,-3.0889,-3.0889,-3.0889,-3.0889,-3.0889,-3.0889,-3.0889,-3.0889,-3.0889,-3.0889,-3.0889,-3.0889,-3.0889,-3.0889,-3.0889,-3.0889,-3.0889,-3.0889,-3.0889,-3.0889,-3.0889,-3.0889,-3.0889,-3.0889,-3.0889,-3.0889,-3.0889,-3.0889,-3.0889,-3.0889,-3.0889,-3.0889,-3.0889,-3.0889,-3.0889,-3.0889,-3.0889,-3.0889,-3.0889,-2.005,-2.0151,-2.0062,-2.1154,-2.1581,-2.2121,-2.3653,-2.315,0.0,-2.4349,0.0,0.0,0.0,-2.8108,0.0,0.0,0.0,0.0,0.0,0.0,0.0,0.0,0.0,0.0,0.0,0.0,0.0,0.0,0.0,0.0,-3.6405,-3.6405,-3.6405,-3.6405,-3.6405,-3.6405,-3.6405,-3.6405,-3.6405,-3.6405,-3.6405,-3.6405,-3.6405,-3.6405,-3.6405,-3.6405,-3.6405,-3.643,-3.6468,-3.6468,-3.6795,-3.7299,-3.7852,-3.7884,-3.7577,-3.7506,-3.5759,-3.3406,-3.318,-3.2197,-3.1054,-3.1054,-3.1054,-3.1054,-3.1054,-3.1054,-3.1054,-3.0947,-3.0889,-3.0889,-3.0889,-3.0889,-3.0889,-3.0889,-3.0889,-3.0889,-3.0889,-3.0889,-3.0889,-3.0889,-3.0889,-3.0889,-3.0889,-3.0889,-3.0889,-3.0889,-3.0889,-3.0889,-3.0889,-3.0889,-3.0889,-3.0889,-3.0889,-3.0889,-3.0889,-3.0889,-3.0889,-3.0889,-3.0889,-3.0889,-3.0889,-3.0889,-3.0889,-3.0889,-3.0889,-3.0889,-3.0889,-3.0889,-3.0889,-3.0889,-3.0889,-3.0889,-1.9058,-1.9749,-2.0553,-2.1292,-2.2535,-2.3728,0.0,-2.5247,-2.6189,-2.7132,-2.7821,0.0,0.0,0.0,0.0,0.0,0.0,0.0,0.0,0.0,0.0,0.0,0.0,0.0,0.0,0.0,0.0,0.0,0.0,0.0,-3.6405,-3.6405,-3.6405,-3.6405,-3.6405,-3.6405,-3.6405,-3.6405,-3.6405,-3.6405,-3.6405,-3.6405,-3.6405,-3.6405,-3.6405,-3.6405,-3.6405,-3.6405,-3.6405,-3.6405,-3.6531,-3.6712,-3.6676,-3.737,-3.8066,-3.5656,-3.4615,-3.4191,-3.2379,-3.1383,-3.1228,-3.3042,-3.3042,-3.2426,-3.3371,-3.2985,-3.2092,-3.117,-3.0889,-3.0889,-3.0889,-3.0889,-3.0889,-3.0889,-3.0889,-3.0889,-3.0889,-3.0889,-3.0889,-3.0889,-3.0889,-3.0889,-3.0889,-3.0889,-3.0889,-3.0889,-3.0889,-3.0889,-3.0889,-3.0889,-3.0889,-3.0889,-3.0889,-3.0889,-3.0889,-3.0889,-3.0889,-3.0889,-3.0889,-3.0889,-3.0889,-3.0889,-3.0889,-3.0889,-3.0889,-3.0889,-3.0889,-3.0889,-3.0889,-3.0889,-3.0889,-3.0889,-1.8907,-1.9535,-2.0641,-2.1518,-2.3163,0.0,-2.5661,-2.703,-2.8411,-2.949,-3.0018,-3.0244,0.0,0.0,0.0,0.0,0.0,0.0,0.0,0.0,0.0,0.0,0.0,0.0,0.0,0.0,0.0,0.0,0.0,0.0,0.0,-3.6405,-3.6405,-3.6405,-3.6405,-3.6405,-3.6405,-3.6405,-3.6405,-3.6405,-3.6405,-3.6405,-3.6405,-3.6405,-3.6405,-3.6405,-3.6405,-3.6405,-3.6405,-3.6405,-3.6505,-3.6589,-3.5897,-3.6354,-3.7116,-3.3999,-3.3345,-3.3642,-3.1614,-3.1218,-3.1825,-3.3427,-3.3529,-3.318,-3.3754,-3.3201,-3.2207,-3.116,-3.0889,-3.0889,-3.0889,-3.0889,-3.0889,-3.0889,-3.0889,-3.0889,-3.0889,-3.0889,-3.0889,-3.0889,-3.0889,-3.0889,-3.0889,-3.0889,-3.0889,-3.0889,-3.0889,-3.0889,-3.0889,-3.0889,-3.0889,-3.0889,-3.0889,-3.0889,-3.0889,-3.0889,-3.0889,-3.0889,-3.0889,-3.0889,-3.0889,-3.0889,-3.0889,-3.0889,-3.0889,-3.0889,-3.0889,-3.0889,-3.0889,-3.0889,-3.0889,-3.0889,-2.01,-1.9798,-2.0225,-2.1895,0.0,0.0,-2.7494,-2.8122,-2.875,-3.0959,-3.1411,-3.1248,-3.0733,0.0,0.0,0.0,0.0,0.0,0.0,0.0,0.0,0.0,0.0,0.0,0.0,0.0,0.0,0.0,0.0,0.0,0.0,-3.6405,-3.6405,-3.6405,-3.6405,-3.6405,-3.6405,-3.6405,-3.6405,-3.6405,-3.6405,-3.6405,-3.6405,-3.6405,-3.6405,-3.6405,-3.6405,-3.6405,-3.6405,-3.6405,-3.6732,-3.7016,-3.5681,-3.4859,-3.4257,-3.2916,-3.1809,-3.0947,-3.0947,-3.1872,-3.2861,-3.1441,-3.193,-3.2861,-3.1383,-3.0947,-3.0889,-3.0889,-3.0889,-3.0889,-3.0889,-3.0889,-3.0889,-3.0889,-3.0889,-3.0889,-3.0889,-3.0889,-3.0889,-3.0889,-3.0889,-3.0889,-3.0889,-3.0889,-3.0889,-3.0889,-3.0889,-3.0889,-3.0889,-3.0889,-3.0889,-3.0889,-3.0889,-3.0889,-3.0889,-3.0889,-3.0889,-3.0889,-3.0889,-3.0889,-3.0889,-3.0889,-3.0889,-3.0889,-3.0889,-3.0889,-3.0889,-3.0889,-3.0889,-3.0889,-3.0889,-3.0889,-1.9421,-2.0112,0.0,-2.2543,0.0,0.0,0.0,-2.9591,0.0,0.0,-3.2855,-3.2528,-3.2378,0.0,0.0,0.0,0.0,0.0,0.0,0.0,0.0,0.0,0.0,0.0,0.0,0.0,0.0,0.0,0.0,0.0,0.0,-3.6405,-3.6405,-3.6405,-3.6405,-3.6405,-3.6405,-3.6405,-3.6405,-3.6405,-3.6405,-3.6405,-3.6405,-3.6405,-3.6405,-3.6405,-3.6405,-3.6405,-3.6405,-3.6405,-3.5957,-3.515,-3.4078,-3.4445,-3.5265,-3.316,-3.3757,-3.5387,-3.4359,-3.4303,-3.4736,-3.5332,-3.5123,-3.457,-3.4136,-3.3258,-3.2254,-3.116,-3.0889,-3.0889,-3.0889,-3.0889,-3.0889,-3.0889,-3.0889,-3.0889,-3.0889,-3.0889,-3.0889,-3.0889,-3.0889,-3.0889,-3.0889,-3.0889,-3.0889,-3.0889,-3.0889,-3.0889,-3.0889,-3.0889,-3.0889,-3.0889,-3.0889,-3.0889,-3.0889,-3.0889,-3.0889,-3.0889,-3.0889,-3.0889,-3.0889,-3.0889,-3.0889,-3.0889,-3.0889,-3.0889,-3.0889,-3.0889,-3.0889,-3.0889,-3.0889,-3.0889,-2.0274,-2.1189,0.0,-2.4343,-2.6703,-2.8976,-3.0419,0.0,0.0,0.0,0.0,-3.3596,0.0,0.0,0.0,0.0,0.0,0.0,0.0,0.0,0.0,0.0,0.0,0.0,0.0,0.0,0.0,0.0,0.0,0.0,0.0,-3.6405,-3.6405,-3.6405,-3.6405,-3.6405,-3.6405,-3.6405,-3.6405,-3.6405,-3.6405,-3.6405,-3.6405,-3.6405,-3.6405,-3.6405,-3.6405,-3.6405,-3.6405,-3.6405,-3.5619,-3.436,-3.38,-3.4065,-3.4664,-3.3427,-3.4333,-3.6209,-3.555,-3.5672,-3.6217,-3.6541,-3.5999,-3.5178,-3.4626,-3.3417,-3.2035,-3.117,-3.0889,-3.0889,-3.0889,-3.0889,-3.0889,-3.0889,-3.0889,-3.0889,-3.0889,-3.0889,-3.0889,-3.0889,-3.0889,-3.0889,-3.0889,-3.0889,-3.0889,-3.0889,-3.0889,-3.0889,-3.0889,-3.0889,-3.0889,-3.0889,-3.0889,-3.0889,-3.0889,-3.0889,-3.0889,-3.0889,-3.0889,-3.0889,-3.0889,-3.0889,-3.0889,-3.0889,-3.0889,-3.0889,-3.0889,-3.0889,-3.0889,-3.0889,-3.0889,-3.0889,-2.182,-2.2569,-2.376,-2.6527,-2.7808,0.0,-3.17,-3.3119,-3.3897,-3.3897,0.0,0.0,0.0,0.0,0.0,0.0,0.0,0.0,0.0,0.0,0.0,0.0,0.0,0.0,0.0,0.0,0.0,0.0,0.0,0.0,0.0,-3.6267,-3.6267,-3.6267,-3.6267,-3.6267,-3.6267,-3.6267,-3.6279,-3.6329,-3.6329,-3.6367,-3.6405,-3.6405,-3.6405,-3.6405,-3.6405,-3.6405,-3.6405,-3.6405,-3.5619,-3.4385,-3.4385,-3.3927,-3.3229,-3.3638,-3.4131,-3.4701,-3.5217,-3.6345,-3.7305,-3.6108,-3.5683,-3.5398,-3.38,-3.2369,-3.1218,-3.1005,-3.0889,-3.0889,-3.0889,-3.0889,-3.0889,-3.0889,-3.0889,-3.0889,-3.0889,-3.0889,-3.0889,-3.0889,-3.0889,-3.0889,-3.0889,-3.0889,-3.0889,-3.0889,-3.0889,-3.0889,-3.0889,-3.0889,-3.0889,-3.0889,-3.0889,-3.0889,-3.0889,-3.0889,-3.0889,-3.0889,-3.0889,-3.0889,-3.0889,-3.0889,-3.0889,-3.0889,-3.0889,-3.0889,-3.0889,-3.0889,-3.0889,-3.0889,-3.0889,-3.0889,-2.0275,-2.1678,0.0,0.0,-2.8712,-3.1072,-3.2554,-3.342,-3.3897,-3.3897,0.0,0.0,0.0,0.0,0.0,0.0,0.0,0.0,0.0,0.0,0.0,0.0,0.0,0.0,0.0,0.0,0.0,0.0,0.0,0.0,-3.5077,-3.5077,-3.5077,-3.5077,-3.5077,-3.5077,-3.5077,-3.5077,-3.529,0.0,-3.5671,-3.5943,-3.6405,-3.6405,-3.6405,-3.6405,-3.6405,-3.6405,-3.6405,-3.6405,-3.5619,-3.4385,-3.4385,-3.4535,-3.4621,-3.3669,-3.4532,-3.6221,-3.6432,-3.6962,-3.7636,-3.8477,-3.8752,-3.8255,-3.5617,-3.4637,-3.3866,-3.1556,-3.0889,-3.0889,-3.0889,-3.0889,-3.0889,-3.0889,-3.0889,-3.0889,-3.0889,-3.0889,-3.0889,-3.0889,-3.0889,-3.0889,-3.0889,-3.0889,-3.0889,-3.0889,-3.0889,-3.0889,-3.0889,-3.0889,-3.0889,-3.0889,-3.0889,-3.0889,-3.0889,-3.0889,-3.0889,-3.0889,-3.0889,-3.0889,-3.0889,-3.0889,-3.0889,-3.0889,-3.0889,-3.0889,-3.0889,-3.0889,-3.0889,-3.0889,-3.0889,-3.0889,-2.0939,0.0,0.0,-2.7695,0.0,-3.1612,-3.2466,-3.3106,-3.3508,0.0,0.0,0.0,0.0,0.0,0.0,0.0,0.0,0.0,0.0,0.0,0.0,0.0,0.0,0.0,0.0,0.0,0.0,0.0,0.0,-3.468,-3.468,-3.468,-3.468,-3.468,-3.468,-3.468,-3.468,-3.468,-3.4818,-3.5107,-3.5107,-3.5441,-3.5981,-3.6292,-3.6405,-3.6405,-3.6405,-3.6405,-3.6405,-3.6405,-3.5619,-3.4483,-3.5126,-3.4724,-3.3908,-3.4778,-3.5479,-3.6168,-3.7375,-3.7959,-3.8344,-3.939,-3.8752,-3.7329,-3.5793,-3.4303,-3.2871,-3.1334,-3.0889,-3.0889,-3.0889,-3.0889,-3.0889,-3.0889,-3.0889,-3.0889,-3.0889,-3.0889,-3.0889,-3.0889,-3.0889,-3.0889,-3.0889,-3.0889,-3.0889,-3.0889,-3.0889,-3.0889,-3.0889,-3.0889,-3.0889,-3.0889,-3.0889,-3.0889,-3.0889,-3.0889,-3.0889,-3.0889,-3.0889,-3.0889,-3.0889,-3.0889,-3.0889,-3.0889,-3.0889,-3.0889,-3.0889,-3.0889,-3.0889,-3.0889,-3.0889,-3.0889,-2.1628,0.0,-2.5837,-2.9553,-3.0871,0.0,-3.2064,-3.2591,-3.2955,0.0,0.0,0.0,0.0,0.0,0.0,0.0,0.0,0.0,0.0,0.0,0.0,0.0,0.0,0.0,0.0,0.0,0.0,0.0,0.0,-3.4437,-3.4437,-3.4437,-3.4437,-3.4437,-3.4437,-3.4437,-3.4437,-3.4437,-3.4487,-3.4575,-3.4675,-3.4969,-3.552,-3.6019,-3.6317,-3.6405,-3.6405,-3.6405,-3.6405,-3.6405,-3.5763,-3.4884,-3.5966,-3.4993,-3.3289,-3.5807,-3.6076,-3.5465,-3.7665,-3.8452,-3.8627,-3.9457,-3.8043,-3.5945,-3.5453,-3.3596,-3.1556,-3.1054,-3.0889,-3.0889,-3.0889,-3.0889,-3.0889,-3.0889,-3.0889,-3.0889,-3.0889,-3.0889,-3.0889,-3.0889,-3.0889,-3.0889,-3.0889,-3.0889,-3.0889,-3.0889,-3.0889,-3.0889,-3.0889,-3.0889,-3.0889,-3.0889,-3.0889,-3.0889,-3.0889,-3.0889,-3.0889,-3.0889,-3.0889,-3.0889,-3.0889,-3.0889,-3.0889,-3.0889,-3.0889,-3.0889,-3.0889,-3.0889,-3.0889,-3.0889,-3.0889,-3.0889,-1.9296,0.0,-2.6201,0.0,-3.0319,-3.0984,0.0,0.0,0.0,0.0,0.0,0.0,0.0,0.0,0.0,0.0,0.0,0.0,0.0,0.0,0.0,0.0,0.0,0.0,0.0,0.0,0.0,0.0,-3.3294,-3.3294,-3.3294,-3.3294,-3.3294,-3.3294,-3.3294,-3.3294,-3.3294,-3.3294,-3.3533,-3.401,-3.45,-3.4969,-3.5495,-3.5571,-3.5918,-3.6405,-3.6405,-3.6405,-3.6405,-3.6405,-3.631,-3.6156,-3.631,-3.6156,-3.5763,-3.5054,-3.4865,-3.5168,-3.6066,-3.6672,-3.7268,-3.9123,-3.9413,-3.8647,-3.6065,-3.5013,-3.4191,-3.1604,-3.0889,-3.0889,-3.0889,-3.0889,-3.0889,-3.0889,-3.0889,-3.0889,-3.0889,-3.0889,-3.0889,-3.0889,-3.0889,-3.0889,-3.0889,-3.0889,-3.0889,-3.0889,-3.0889,-3.0889,-3.0889,-3.0889,-3.0889,-3.0889,-3.0889,-3.0889,-3.0889,-3.0889,-3.0889,-3.0889,-3.0889,-3.0889,-3.0889,-3.0889,-3.0889,-3.0889,-3.0889,-3.0889,-3.0889,-3.0889,-3.0889,-3.0889,-3.0889,-3.0889,-2.1066,-2.3665,-2.6276,0.0,-3.0206,-3.0733,-3.121,0.0,0.0,0.0,0.0,0.0,0.0,0.0,0.0,0.0,0.0,0.0,0.0,0.0,0.0,0.0,0.0,0.0,0.0,0.0,0.0,0.0,-3.3124,-3.3124,-3.3124,-3.3124,-3.3124,-3.3124,-3.3124,-3.3124,-3.3124,-3.3124,-3.3206,-3.3445,-3.3997,-3.4387,-3.4638,-3.5219,-3.5843,-3.6405,-3.6405,-3.6405,-3.6405,-3.6405,-3.6405,-3.6405,-3.6405,-3.5966,-3.5319,-3.5463,-3.5175,-3.4875,-3.6563,-3.7266,-3.7661,-3.9178,-3.8594,-3.6996,-3.5672,-3.4136,-3.255,-3.1276,-3.0889,-3.0889,-3.0889,-3.0889,-3.0889,-3.0889,-3.0889,-3.0889,-3.0889,-3.0889,-3.0889,-3.0889,-3.0889,-3.0889,-3.0889,-3.0889,-3.0889,-3.0889,-3.0889,-3.0889,-3.0889,-3.0889,-3.0889,-3.0889,-3.0889,-3.0889,-3.0889,-3.0889,-3.0889,-3.0889,-3.0889,-3.0889,-3.0889,-3.0889,-3.0889,-3.0889,-3.0889,-3.0889,-3.0889,-3.0889,-3.0889,-3.0889,-3.0889,-3.0889,0.0,0.0,-2.5222,-2.8021,-2.9352,-3.0093,0.0,0.0,0.0,0.0,0.0,0.0,0.0,0.0,0.0,0.0,0.0,0.0,0.0,0.0,0.0,0.0,0.0,0.0,0.0,0.0,0.0,0.0,-3.3124,-3.3124,-3.3124,-3.3124,-3.3124,-3.3124,-3.3124,-3.3124,-3.3124,-3.3124,-3.3124,-3.3081,-3.3495,-3.3771,-3.3922,-3.4705,-3.5429,-3.5956,-3.6279,-3.6405,-3.6405,-3.6405,-3.6405,-3.6405,-3.6405,-3.5763,-3.503,-3.6013,-3.5763,-3.5223,-3.727,-3.8002,-3.8191,-3.932,-3.8202,-3.6283,-3.5519,-3.3754,-3.1883,-3.1112,-3.0889,-3.0889,-3.0889,-3.0889,-3.0889,-3.0889,-3.0889,-3.0889,-3.0889,-3.0889,-3.0889,-3.0889,-3.0889,-3.0889,-3.0889,-3.0889,-3.0889,-3.0889,-3.0889,-3.0889,-3.0889,-3.0889,-3.0889,-3.0889,-3.0889,-3.0889,-3.0889,-3.0889,-3.0889,-3.0889,-3.0889,-3.0889,-3.0889,-3.0889,-3.0889,-3.0889,-3.0889,-3.0889,-3.0889,-3.0889,-3.0889,-3.0889,-3.0889,-3.0889,0.0,-2.0464,0.0,-2.5121,-2.703,0.0,0.0,0.0,0.0,0.0,0.0,0.0,0.0,0.0,0.0,0.0,0.0,0.0,0.0,0.0,0.0,0.0,0.0,0.0,0.0,0.0,0.0,0.0,-3.3124,-3.3124,-3.3124,-3.3124,-3.3124,-3.3124,-3.3124,-3.3124,-3.3124,-3.3124,-3.3124,-3.3124,-3.3106,-3.3395,-3.3897,-3.396,-3.4286,-3.4864,-3.5906,-3.6405,-3.6405,-3.6405,-3.6405,-3.6405,-3.6405,-3.6358,-3.631,-3.6358,-3.6358,-3.6461,-3.7626,-3.8002,-3.8191,-3.932,-3.9581,-3.8973,-3.6174,-3.5189,-3.447,-3.1662,-3.0889,-3.0889,-3.0889,-3.0889,-3.0889,-3.0889,-3.0889,-3.0889,-3.0889,-3.0889,-3.0889,-3.0889,-3.0889,-3.0889,-3.0889,-3.0889,-3.0889,-3.0889,-3.0889,-3.0889,-3.0889,-3.0889,-3.0889,-3.0889,-3.0889,-3.0889,-3.0889,-3.0889,-3.0889,-3.0889,-3.0889,-3.0889,-3.0889,-3.0889,-3.0889,-3.0889,-3.0889,-3.0889,-3.0889,-3.0889,-3.0889,-3.0889,-3.0889,-3.0889,0.0,0.0,0.0,-2.3966,-2.5824,-2.7341,0.0,0.0,0.0,0.0,0.0,0.0,0.0,0.0,0.0,0.0,0.0,0.0,0.0,0.0,0.0,0.0,0.0,0.0,0.0,0.0,0.0,0.0,0.0,-3.3124,-3.3124,-3.3124,-3.3124,-3.3124,-3.3124,-3.3124,-3.3124,-3.3124,-3.3124,-3.3124,-3.3124,-3.3181,-3.3382,-3.3734,-3.401,-3.4261,-3.5366,-3.583,-3.5868,-3.6267,-3.6405,-3.6405,-3.6405,-3.6405,-3.6405,-3.6405,-3.6405,-3.6568,-3.7626,-3.7381,-3.6925,-3.9,-3.7755,-3.5442,-3.5343,-3.3979,-3.2275,-3.1228,-3.0889,-3.0889,-3.0889,-3.0889,-3.0889,-3.0889,-3.0889,-3.0889,-3.0889,-3.0889,-3.0889,-3.0889,-3.0889,-3.0889,-3.0889,-3.0889,-3.0889,-3.0889,-3.0889,-3.0889,-3.0889,-3.0889,-3.0889,-3.0889,-3.0889,-3.0889,-3.0889,-3.0889,-3.0889,-3.0889,-3.0889,-3.0889,-3.0889,-3.0889,-3.0889,-3.0889,-3.0889,-3.0889,-3.0889,-3.0889,-3.0889,-3.0889,-3.0889,-3.0889,-1.8455,0.0,0.0,0.0,0.0,0.0,0.0,0.0,0.0,0.0,0.0,0.0,0.0,0.0,0.0,0.0,0.0,0.0,0.0,0.0,0.0,0.0,0.0,0.0,0.0,0.0,0.0,0.0,0.0,0.0,-3.3124,-3.3124,-3.3124,-3.3124,-3.3124,-3.3124,-3.3124,-3.3124,-3.3124,-3.3124,-3.3124,-3.3124,-3.3093,-3.3458,-3.3621,-3.3684,-3.4788,-3.532,-3.5545,-3.6132,-3.6405,-3.6405,-3.6405,-3.6405,-3.6405,-3.6405,-3.6405,-3.6568,-3.7626,-3.7381,-3.6824,-3.8447,-3.6984,-3.4559,-3.457,-3.3201,-3.1556,-3.1054,-3.0889,-3.0889,-3.0889,-3.0889,-3.0889,-3.0889,-3.0889,-3.0889,-3.0889,-3.0889,-3.0889,-3.0889,-3.0889,-3.0889,-3.0889,-3.0889,-3.0889,-3.0889,-3.0889,-3.0889,-3.0889,-3.0889,-3.0889,-3.0889,-3.0889,-3.0889,-3.0889,-3.0889,-3.0889,-3.0889,-3.0889,-3.0889,-3.0889,-3.0889,-3.0889,-3.0889,-3.0889,-3.0889,-3.0889,-3.0889,-3.0889,-3.0889,-3.0889,-3.0889,0.0,0.0,0.0,0.0,0.0,0.0,0.0,0.0,0.0,0.0,0.0,0.0,0.0,0.0,0.0,0.0,0.0,0.0,0.0,0.0,0.0,0.0,0.0,0.0,0.0,0.0,0.0,0.0,-3.3111,-3.3124,-3.3124,-3.3124,-3.3124,-3.3124,-3.3124,-3.3124,-3.3124,-3.3124,-3.3124,-3.3124,-3.3124,-3.3124,-3.3124,-3.3124,-3.3124,-3.3174,-3.4248,-3.4981,-3.552,-3.6119,-3.6405,-3.6405,-3.6405,-3.6405,-3.6405,-3.6405,-3.6417,-3.6581,-3.7626,-3.7965,-3.7842,-3.7565,-3.7412,-3.6811,-3.3957,-3.3077,-3.2747,-3.1276,-3.0889,-3.0889,-3.0889,-3.0889,-3.0889,-3.0889,-3.0889,-3.0889,-3.0889,-3.0889,-3.0889,-3.0889,-3.0889,-3.0889,-3.0889,-3.0889,-3.0889,-3.0889,-3.0889,-3.0889,-3.0889,-3.0889,-3.0889,-3.0889,-3.0889,-3.0889,-3.0889,-3.0889,-3.0889,-3.0889,-3.0889,-3.0889,-3.0889,-3.0889,-3.0889,-3.0889,-3.0889,-3.0889,-3.0889,-3.0889,-3.0889,-3.0889,-3.0889,-3.0889,-1.73,0.0,0.0,0.0,0.0,0.0,0.0,0.0,0.0,0.0,0.0,0.0,0.0,0.0,0.0,0.0,0.0,0.0,0.0,0.0,0.0,0.0,0.0,0.0,0.0,0.0,0.0,0.0,-3.2842,-3.3124,-3.3124,-3.3124,-3.3124,-3.3124,-3.3124,-3.3124,-3.3124,-3.3124,-3.3124,-3.3124,-3.3124,-3.3124,-3.3124,-3.3124,-3.3124,-3.3174,-3.4248,-3.4768,-3.4981,-3.5968,-3.6405,-3.6405,-3.6405,-3.6405,-3.6405,-3.6405,-3.6669,-3.7061,-3.7764,-3.6834,-3.5607,-3.7027,-3.5332,-3.2758,-3.3021,-3.2369,-3.1441,-3.1005,-3.0889,-3.0889,-3.0889,-3.0889,-3.0889,-3.0889,-3.0889,-3.0889,-3.0889,-3.0889,-3.0889,-3.0889,-3.0889,-3.0889,-3.0889,-3.0889,-3.0889,-3.0889,-3.0889,-3.0889,-3.0889,-3.0889,-3.0889,-3.0889,-3.0889,-3.0889,-3.0889,-3.0889,-3.0889,-3.0889,-3.0889,-3.0889,-3.0889,-3.0889,-3.0889,-3.0889,-3.0889,-3.0889,-3.0889,-3.0889,-3.0889,-3.0889,-3.0889,-3.0889,-1.794,0.0,0.0,0.0,0.0,0.0,0.0,-2.2836,0.0,0.0,0.0,0.0,0.0,0.0,0.0,0.0,0.0,0.0,0.0,0.0,0.0,0.0,0.0,0.0,0.0,-3.1675,-3.1863,-3.1863,-3.2177,-3.2478,-3.2704,-3.2717,-3.283,-3.3111,-3.3124,-3.3124,-3.3124,-3.3124,-3.3124,-3.3124,-3.3124,-3.3124,-3.3124,-3.3124,-3.3124,-3.3174,-3.3997,-3.4512,-3.4788,-3.5667,-3.6157,-3.6405,-3.6405,-3.6405,-3.6405,-3.6405,-3.6757,-3.7213,-3.7084,-3.6355,-3.5367,-3.56,-3.3912,-3.1872,-3.2092,-3.1604,-3.0889,-3.0889,-3.0889,-3.0889,-3.0889,-3.0889,-3.0889,-3.0889,-3.0889,-3.0889,-3.0889,-3.0889,-3.0889,-3.0889,-3.0889,-3.0889,-3.0889,-3.0889,-3.0889,-3.0889,-3.0889,-3.0889,-3.0889,-3.0889,-3.0889,-3.0889,-3.0889,-3.0889,-3.0889,-3.0889,-3.0889,-3.0889,-3.0889,-3.0889,-3.0889,-3.0889,-3.0889,-3.0889,-3.0889,-3.0889,-3.0889,-3.0889,-3.0889,-3.0889,-3.0889,-3.0889,-1.8756,-1.8882,0.0,0.0,0.0,0.0,-2.3221,-2.3075,0.0,0.0,0.0,0.0,0.0,0.0,0.0,0.0,0.0,0.0,0.0,0.0,0.0,0.0,0.0,0.0,-3.1223,-3.1273,-3.1298,-3.1298,-3.1361,-3.1599,-3.2102,-3.2127,-3.239,-3.2968,-3.298,-3.3048,-3.3124,-3.3124,-3.3124,-3.3124,-3.3124,-3.3124,-3.3124,-3.3124,-3.3124,-3.3106,-3.3658,-3.4211,-3.4718,-3.527,-3.5868,-3.6405,-3.6405,-3.6405,-3.6405,-3.6405,-3.6661,-3.6848,-3.6045,-3.5994,-3.5857,-3.3795,-3.2964,-3.2587,-3.1276,-3.0889,-3.0889,-3.0889,-3.0889,-3.0889,-3.0889,-3.0889,-3.0889,-3.0889,-3.0889,-3.0889,-3.0889,-3.0889,-3.0889,-3.0889,-3.0889,-3.0889,-3.0889,-3.0889,-3.0889,-3.0889,-3.0889,-3.0889,-3.0889,-3.0889,-3.0889,-3.0889,-3.0889,-3.0889,-3.0889,-3.0889,-3.0889,-3.0889,-3.0889,-3.0889,-3.0889,-3.0889,-3.0889,-3.0889,-3.0889,-3.0889,-3.0889,-3.0889,-3.0889,-3.0889,-3.0889,-3.0889,-2.039,-2.0616,-2.0865,-2.0275,0.0,0.0,0.0,-2.0275,0.0,0.0,0.0,0.0,0.0,0.0,0.0,0.0,0.0,0.0,0.0,0.0,0.0,0.0,0.0,0.0,-3.0143,-3.0507,-3.0771,-3.0771,-3.116,-3.1436,-3.1549,-3.1549,-3.18,-3.2365,-3.239,-3.2604,-3.3111,-3.3124,-3.3124,-3.3124,-3.3124,-3.3124,-3.3124,-3.3124,-3.3124,-3.3106,-3.3658,-3.4211,-3.4718,-3.527,-3.5868,-3.6405,-3.6405,-3.6405,-3.6405,-3.6405,-3.6048,-3.5605,-3.5741,-3.4664,-3.3211,-3.3145,-3.2311,-3.1276,-3.1005,-3.0889,-3.0889,-3.0889,-3.0889,-3.0889,-3.0889,-3.0889,-3.0889,-3.0889,-3.0889,-3.0889,-3.0889,-3.0889,-3.0889,-3.0889,-3.0889,-3.0889,-3.0889,-3.0889,-3.0889,-3.0889,-3.0889,-3.0889,-3.0889,-3.0889,-3.0889,-3.0889,-3.0889,-3.0889,-3.0889,-3.0889,-3.0889,-3.0889,-3.0889,-3.0889,-3.0889,-3.0889,-3.0889,-3.0889,-3.0889,-3.0889,-3.0889,-3.0889,-3.0889,-3.0889,-3.0889,-3.0889,-2.1408,-2.1307,-2.1481,-2.144,0.0,0.0,0.0,0.0,0.0,0.0,0.0,0.0,0.0,0.0,0.0,0.0,0.0,0.0,0.0,0.0,0.0,0.0,0.0,0.0,-2.9817,-3.0043,-3.0206,-3.0206,-3.0444,-3.0721,-3.0984,-3.0997,-3.1248,-3.1788,-3.2077,-3.2353,-3.2641,-3.293,-3.3124,-3.3124,-3.3124,-3.3124,-3.3124,-3.3124,-3.3124,-3.3093,-3.337,-3.396,-3.4705,-3.4969,-3.5617,-3.6405,-3.6405,-3.6013,-3.5415,-3.5415,-3.4892,-3.4123,-3.384,-3.3106,-3.2347,-3.2111,-3.1488,-3.0889,-3.0889,-3.0889,-3.0889,-3.0889,-3.0889,-3.0889,-3.0889,-3.0889,-3.0889,-3.0889,-3.0889,-3.0889,-3.0889,-3.0889,-3.0889,-3.0889,-3.0889,-3.0889,-3.0889,-3.0889,-3.0889,-3.0889,-3.0889,-3.0889,-3.0889,-3.0889,-3.0889,-3.0889,-3.0889,-3.0889,-3.0889,-3.0889,-3.0889,-3.0889,-3.0889,-3.0889,-3.0889,-3.0889,-3.0889,-3.0889,-3.0889,-3.0889,-3.0889,-3.0889,-3.0889,-3.0889,-3.0889,-3.0889,0.0,0.0,0.0,0.0,0.0,-2.1192,0.0,0.0,0.0,0.0,0.0,0.0,0.0,0.0,0.0,0.0,0.0,0.0,0.0,0.0,0.0,0.0,0.0,0.0,0.0,-2.9428,-2.944,-2.9767,-2.949,-2.9641,-3.0419,-3.0457,-3.0696,-3.1223,-3.1675,-3.2001,-3.2215,-3.2679,-3.3011,-3.3124,-3.3124,-3.3124,-3.3124,-3.3124,-3.3124,-3.3124,-3.3124,-3.3709,-3.468,-3.468,-3.5228,-3.6061,-3.631,-3.5571,-3.4385,-3.4385,-3.3631,-3.252,-3.1816,-3.1715,-3.1742,-3.1098,-3.0889,-3.0889,-3.0889,-3.0889,-3.0889,-3.0889,-3.0889,-3.0889,-3.0889,-3.0889,-3.0889,-3.0889,-3.0889,-3.0889,-3.0889,-3.0889,-3.0889,-3.0889,-3.0889,-3.0889,-3.0889,-3.0889,-3.0889,-3.0889,-3.0889,-3.0889,-3.0889,-3.0889,-3.0889,-3.0889,-3.0889,-3.0889,-3.0889,-3.0889,-3.0889,-3.0889,-3.0889,-3.0889,-3.0889,-3.0889,-3.0889,-3.0889,-3.0889,-3.0889,-3.0889,-3.0889,-3.0889,-3.0889,-3.0889,-3.0889,0.0,0.0,0.0,0.0,-2.4431,0.0,0.0,0.0,0.0,0.0,0.0,0.0,0.0,0.0,0.0,0.0,0.0,0.0,0.0,0.0,0.0,0.0,0.0,0.0,0.0,-2.8147,-2.8185,-2.9679,-2.8411,-2.8247,-2.9804,-2.988,-3.0143,-3.0683,-3.0771,-3.126,-3.2202,-3.2277,-3.2566,-3.3124,-3.3124,-3.3124,-3.3124,-3.3124,-3.3124,-3.3124,-3.3124,-3.3709,-3.468,-3.468,-3.4647,-3.4727,-3.5918,-3.5571,-3.4385,-3.4385,-3.2789,-3.0726,-3.1388,-3.087,-3.0046,-3.0673,-3.0889,-3.0889,-3.0889,-3.0889,-3.0889,-3.0889,-3.0889,-3.0889,-3.0889,-3.0889,-3.0889,-3.0889,-3.0889,-3.0889,-3.0889,-3.0889,-3.0889,-3.0889,-3.0889,-3.0889,-3.0889,-3.0889,-3.0889,-3.0889,-3.0889,-3.0889,-3.0889,-3.0889,-3.0889,-3.0889,-3.0889,-3.0889,-3.0889,-3.0889,-3.0889,-3.0889,-3.0889,-3.0889,-3.0889,-3.0889,-3.0889,-3.0889,-3.0889,-3.0889,-3.0889,-3.0889,-3.0889,-3.0889,-3.0889,-3.0889,0.0,0.0,0.0,0.0,0.0,0.0,-2.1453,0.0,-2.0387,0.0,0.0,0.0,0.0,0.0,0.0,0.0,0.0,0.0,0.0,0.0,0.0,0.0,0.0,0.0,0.0,0.0,0.0,0.0,-2.8047,-2.7871,-2.9214,-2.9616,-2.9892,-3.0131,-3.0457,-3.0972,-3.1725,-3.2051,-3.2503,-3.3124,-3.3124,-3.3124,-3.3124,-3.3124,-3.3124,-3.3124,-3.3124,-3.3709,-3.4623,-3.3857,-3.386,-3.4374,-3.4105,-3.3193,-3.2039,-3.2039,-3.0783,-2.9275,-3.0118,-3.0052,-2.9717,-3.0605,-3.0889,-3.0889,-3.0889,-3.0889,-3.0889,-3.0889,-3.0889,-3.0889,-3.0889,-3.0889,-3.0889,-3.0889,-3.0889,-3.0889,-3.0889,-3.0889,-3.0889,-3.0889,-3.0889,-3.0889,-3.0889,-3.0889,-3.0889,-3.0889,-3.0889,-3.0889,-3.0889,-3.0889,-3.0889,-3.0889,-3.0889,-3.0889,-3.0889,-3.0889,-3.0889,-3.0889,-3.0889,-3.0889,-3.0889,-3.0889,-3.0889,-3.0889,-3.0889,-3.0889,-3.0889,-3.0889,-3.0889,-3.0889,-3.0889,-3.0889,-2.763,0.0,0.0,0.0,0.0,0.0,0.0,0.0,0.0,0.0,0.0,0.0,0.0,0.0,0.0,0.0,0.0,0.0,0.0,0.0,0.0,0.0,0.0,0.0,0.0,0.0,0.0,0.0,0.0,-2.713,-2.88,-2.9327,-2.9628,-2.9779,-3.0181,-3.0708,-3.1386,-3.1788,-3.2353,-3.3124,-3.3124,-3.3124,-3.3124,-3.3124,-3.3124,-3.3124,-3.3124,-3.3709,-3.4577,-3.3268,-3.3125,-3.3674,-3.2292,-3.0927,-2.9817,-3.0162,-2.946,-2.8418,-2.9277,-2.9792,-3.0039,-3.0684,-3.0889,-3.0889,-3.0889,-3.0889,-3.0889,-3.0889,-3.0889,-3.0889,-3.0889,-3.0889,-3.0889,-3.0889,-3.0889,-3.0889,-3.0889,-3.0889,-3.0889,-3.0889,-3.0889,-3.0889,-3.0889,-3.0889,-3.0889,-3.0889,-3.0889,-3.0889,-3.0889,-3.0889,-3.0889,-3.0889,-3.0889,-3.0889,-3.0889,-3.0889,-3.0889,-3.0889,-3.0889,-3.0889,-3.0889,-3.0889,-3.0889,-3.0889,-3.0889,-3.0889,-3.0889,-3.0889,-3.0889,-3.0889,-3.0889,-3.0889,0.0,0.0,0.0,-2.5661,0.0,0.0,0.0,0.0,-2.2071,0.0,0.0,0.0,0.0,0.0,0.0,0.0,0.0,0.0,0.0,0.0,0.0,0.0,0.0,0.0,0.0,0.0,0.0,0.0,0.0,0.0,-2.8712,-2.8913,-2.9214,-2.9779,-2.9817,-3.0319,-3.1386,-3.1411,-3.1976,-3.3124,-3.3124,-3.3124,-3.3124,-3.3124,-3.3124,-3.3124,-3.3124,-3.3709,-3.4577,-3.3268,-3.2574,-3.223,-3.0876,-2.9555,-2.8495,-2.9817,-2.946,-2.8418,-2.9277,-3.0137,-3.085,-3.0879,-3.0889,-3.0889,-3.0889,-3.0889,-3.0889,-3.0889,-3.0889,-3.0889,-3.0889,-3.0889,-3.0889,-3.0889,-3.0889,-3.0889,-3.0889,-3.0889,-3.0889,-3.0889,-3.0889,-3.0889,-3.0889,-3.0889,-3.0889,-3.0889,-3.0889,-3.0889,-3.0889,-3.0889,-3.0889,-3.0889,-3.0889,-3.0889,-3.0889,-3.0889,-3.0889,-3.0889,-3.0889,-3.0889,-3.0889,-3.0889,-3.0889,-3.0889,-3.0889,-3.0889,-3.0889,-3.0889,-3.0889,-3.0889,-3.0889,-3.0889,0.0,0.0,-2.9804,-2.7557,0.0,0.0,0.0,0.0,0.0,0.0,0.0,0.0,0.0,0.0,0.0,0.0,0.0,0.0,0.0,0.0,0.0,0.0,0.0,0.0,0.0,0.0,0.0,0.0,-2.4958,0.0,0.0,-2.87,-2.9202,-2.9779,-2.9792,-3.0306,-3.1386,-3.1386,-3.1951,-3.3124,-3.3124,-3.3124,-3.3124,-3.3124,-3.3124,-3.3124,-3.3124,-3.3231,-3.3268,-3.1924,-3.12,-3.0824,-2.9513,-2.8698,-2.8344,-2.8794,-2.8698,-2.8418,-2.9277,-3.0146,-3.0889,-3.0889,-3.0889,-3.0889,-3.0889,-3.0889,-3.0889,-3.0889,-3.0889,-3.0889,-3.0889,-3.0889,-3.0889,-3.0889,-3.0889,-3.0889,-3.0889,-3.0889,-3.0889,-3.0889,-3.0889,-3.0889,-3.0889,-3.0889,-3.0889,-3.0889,-3.0889,-3.0889,-3.0889,-3.0889,-3.0889,-3.0889,-3.0889,-3.0889,-3.0889,-3.0889,-3.0889,-3.0889,-3.0889,-3.0889,-3.0889,-3.0889,-3.0889,-3.0889,-3.0889,-3.0889,-3.0889,-3.0889,-3.0889,-3.0889,-3.0889,-3.0889,-3.0746,-3.0884,0.0,-2.8812,-2.7582,0.0,-2.3753,0.0,0.0,0.0,0.0,0.0,0.0,0.0,0.0,0.0,0.0,0.0,0.0,0.0,0.0,0.0,0.0,0.0,0.0,0.0,-2.315,-2.4675,-2.4236,0.0,0.0,0.0,-2.89,-2.9465,-2.9691,-3.0306,-3.1386,-3.1386,-3.1951,-3.3124,-3.3124,-3.3124,-3.3124,-3.3124,-3.3124,-3.3124,-3.3124,-3.2953,-3.2594,-3.1247,-3.0558,-3.0162,-2.8794,-2.8291,-2.8291,-2.8291,-2.8486,-2.8828,-2.943,-3.0146,-3.0889,-3.0889,-3.0889,-3.0889,-3.0889,-3.0889,-3.0889,-3.0889,-3.0889,-3.0889,-3.0889,-3.0889,-3.0889,-3.0889,-3.0889,-3.0889,-3.0889,-3.0889,-3.0889,-3.0889,-3.0889,-3.0889,-3.0889,-3.0889,-3.0889,-3.0889,-3.0889,-3.0889,-3.0889,-3.0889,-3.0889,-3.0889,-3.0889,-3.0889,-3.0889,-3.0889,-3.0889,-3.0889,-3.0889,-3.0889,-3.0889,-3.0889,-3.0889,-3.0889,-3.0889,-3.0889,-3.0889,-3.0889,-3.0889,-3.0889,-3.0889,-3.0889]},{"header":{"parameterUnit":"m.s-1","parameterCategory":1,"la1":30.6,"la2":29.2853,"lo1":-89.7004,"lo2":-87.6739,"dy":0.0162,"dx":0.0183,"nx":112,"ny":82,"refTime":"2026-03-01T00:00:00:Z","depth":0,"parameterNumber":3,"parameterNumberName":"V-component_of_WINDS"},"data":[0.0,0.0,0.0,0.0,0.0,0.0,0.0,0.0,0.0,0.0,0.0,0.0,0.0,0.0,0.0,0.0,0.0,0.0,0.0,0.0,0.0,0.0,0.0,0.0,0.0,0.0,0.0,0.0,0.0,0.0,0.0,0.0,0.0,0.0,0.0,0.0,0.0,0.0,0.0,0.0,0.0,0.0,0.0,0.0,0.0,0.0,0.0,0.0,0.0,0.0,0.0,0.0,0.0,0.0,0.0,0.0,0.0,0.0,0.0,0.0,0.0,0.0,0.0,0.0,0.0,0.0,0.0,0.0,0.0,0.0,0.0,0.0,0.0,0.0,0.0,0.0,0.0,0.0,0.0,0.0,0.0,0.0,0.0,0.0,0.0,0.0,0.0,0.0,0.0,0.0,0.0,2.4276,2.8106,3.0253,2.9666,2.8981,2.7171,2.3804,0.0,0.0,0.0,0.0,0.0,0.0,0.0,0.0,0.0,0.0,0.0,0.0,0.0,0.0,0.0,0.0,0.0,0.0,0.0,0.0,0.0,0.0,0.0,0.0,0.0,0.0,0.0,0.0,0.0,0.0,0.0,0.0,0.0,0.0,0.0,0.0,0.0,0.0,0.0,0.0,0.0,0.0,0.0,0.0,0.0,0.0,0.0,0.0,0.0,0.0,0.0,0.0,0.0,0.0,0.0,0.0,0.0,0.0,0.0,0.0,0.0,0.0,0.0,0.0,0.0,0.0,0.0,0.0,0.0,0.0,0.0,0.0,0.0,0.0,0.0,0.0,0.0,0.0,0.0,0.0,0.0,0.0,0.0,0.0,0.0,0.0,0.0,0.0,0.0,0.0,0.0,0.0,0.0,0.0,0.0,0.0,0.0,0.0,0.0,0.0,0.0,0.0,0.0,0.0,2.2578,2.7344,2.9451,3.0253,2.9666,2.8981,2.7171,2.3804,0.0,0.0,0.0,0.0,0.0,0.0,0.0,0.0,0.0,0.0,0.0,0.0,0.0,0.0,0.0,0.0,0.0,0.0,0.0,0.0,0.0,0.0,0.0,0.0,0.0,0.0,0.0,0.0,0.0,0.0,0.0,0.0,0.0,0.0,0.0,0.0,0.0,0.0,0.0,0.0,0.0,0.0,0.0,0.0,0.0,0.0,0.0,0.0,0.0,0.0,0.0,0.0,0.0,0.0,0.0,0.0,0.0,0.0,0.0,0.0,0.0,0.0,0.0,0.0,0.0,0.0,0.0,0.0,0.0,0.0,0.0,0.0,0.0,0.0,0.0,0.0,0.0,0.0,0.0,0.0,0.0,0.0,0.0,0.0,0.0,0.0,0.0,0.0,0.0,0.0,0.0,0.0,0.0,0.0,0.0,0.0,0.0,0.0,0.0,0.0,0.0,0.0,0.0,2.2532,2.4852,2.8727,3.0298,3.0657,2.9696,2.8981,2.7171,2.3804,2.1784,0.0,0.0,0.0,0.0,0.0,0.0,0.0,0.0,0.0,0.0,0.0,0.0,0.0,0.0,0.0,0.0,0.0,0.0,0.0,0.0,0.0,0.0,0.0,0.0,0.0,0.0,0.0,0.0,0.0,0.0,0.0,0.0,0.0,0.0,0.0,0.0,0.0,0.0,0.0,0.0,0.0,0.0,0.0,0.0,0.0,0.0,0.0,0.0,0.0,0.0,0.0,0.0,0.0,0.0,0.0,0.0,0.0,0.0,0.0,0.0,0.0,0.0,0.0,0.0,0.0,0.0,0.0,0.0,0.0,0.0,0.0,0.0,0.0,0.0,0.0,0.0,0.0,0.0,0.0,0.0,0.0,0.0,0.0,0.0,0.0,0.0,0.0,0.0,0.0,0.0,0.0,0.0,0.0,0.0,0.0,0.0,0.0,0.0,0.0,0.0,0.0,0.0,2.4956,2.6976,2.9352,3.0612,3.0821,2.9696,2.8682,2.6826,2.3789,2.1635,0.0,0.0,0.0,0.0,0.0,0.0,0.0,0.0,0.0,0.0,0.0,0.0,0.0,0.0,0.0,0.0,0.0,0.0,0.0,0.0,0.0,0.0,0.0,0.0,0.0,0.0,0.0,0.0,0.0,0.0,0.0,0.0,0.0,0.0,0.0,0.0,0.0,0.0,0.0,0.0,0.0,0.0,0.0,0.0,0.0,0.0,0.0,0.0,0.0,0.0,0.0,0.0,0.0,0.0,0.0,0.0,0.0,0.0,0.0,0.0,0.0,0.0,0.0,0.0,0.0,0.0,0.0,0.0,0.0,0.0,0.0,0.0,0.0,0.0,0.0,0.0,0.0,0.0,0.0,0.0,0.0,0.0,0.0,0.0,0.0,0.0,0.0,0.0,0.0,0.0,0.0,0.0,0.0,0.0,0.0,0.0,0.0,0.0,0.0,0.0,0.0,0.0,2.5518,2.8004,2.9457,3.0178,3.0313,2.9666,2.7829,2.5839,2.3729,2.1205,0.0,0.0,0.0,0.0,0.0,0.0,0.0,0.0,0.0,0.0,0.0,0.0,0.0,0.0,0.0,0.0,0.0,0.0,0.0,0.0,0.0,0.0,0.0,0.0,0.0,0.0,0.0,0.0,0.0,0.0,0.0,0.0,0.0,0.0,0.0,0.0,0.0,0.0,0.0,0.0,0.0,0.0,0.0,0.0,0.0,0.0,0.0,0.0,0.0,0.0,0.0,0.0,0.0,0.0,0.0,0.0,0.0,0.0,0.0,0.0,0.0,0.0,0.0,0.0,0.0,0.0,0.0,0.0,0.0,0.0,0.0,0.0,0.0,0.0,0.0,0.0,0.0,0.0,0.0,0.0,0.0,0.0,0.0,0.0,0.0,0.0,0.0,0.0,0.0,0.0,0.0,0.0,0.0,0.0,0.0,0.0,0.0,0.0,0.0,0.0,0.0,0.0,2.5204,2.766,0.0,3.0133,3.0253,2.9666,2.8139,2.6192,2.3744,0.0,0.0,0.0,0.0,0.0,0.0,0.0,0.0,0.0,0.0,0.0,0.0,0.0,0.0,0.0,0.0,0.0,0.0,0.0,0.0,0.0,0.0,0.0,0.0,0.0,0.0,0.0,0.0,0.0,0.0,0.0,0.0,0.0,0.0,0.0,0.0,0.0,0.0,0.0,0.0,0.0,0.0,0.0,0.0,0.0,0.0,0.0,0.0,0.0,0.0,0.0,0.0,0.0,0.0,0.0,0.0,0.0,0.0,0.0,0.0,0.0,0.0,0.0,0.0,0.0,0.0,0.0,0.0,0.0,0.0,0.0,0.0,0.0,0.0,0.0,0.0,0.0,0.0,0.0,0.0,0.0,0.0,0.0,0.0,0.0,0.0,0.0,0.0,0.0,0.0,0.0,0.0,0.0,0.0,0.0,0.0,0.0,0.0,0.0,0.0,0.0,0.0,2.2628,2.5294,2.7615,0.0,2.9968,3.0043,2.9651,2.7794,2.5674,2.3467,0.0,0.0,0.0,0.0,0.0,0.0,0.0,0.0,0.0,0.0,0.0,0.0,0.0,0.0,0.0,0.0,0.0,0.0,0.0,0.0,0.0,0.0,0.0,0.0,0.0,0.0,0.0,0.0,0.0,0.0,0.0,0.0,0.0,0.0,0.0,0.0,0.0,0.0,0.0,0.0,0.0,0.0,0.0,0.0,0.0,0.0,0.0,0.0,0.0,0.0,0.0,0.0,0.0,0.0,0.0,0.0,0.0,0.0,0.0,0.0,0.0,0.0,0.0,0.0,0.0,0.0,0.0,0.0,0.0,0.0,0.0,0.0,0.0,0.0,0.0,0.0,0.0,0.0,0.0,0.0,0.0,0.0,0.0,0.0,0.0,0.0,0.0,0.0,0.0,0.0,0.0,0.0,0.0,0.0,0.0,0.0,0.0,0.0,0.0,0.0,0.0,0.0,2.3176,2.5952,2.8109,2.9472,2.9606,2.9606,2.9606,2.6518,2.4051,0.0,0.0,0.0,0.0,0.0,0.0,0.0,0.0,0.0,0.0,0.0,0.0,0.0,0.0,0.0,0.0,0.0,0.0,0.0,0.0,0.0,0.0,0.0,0.0,0.0,0.0,0.0,0.0,0.0,0.0,0.0,0.0,0.0,0.0,0.0,0.0,0.0,0.0,0.0,0.0,0.0,0.0,0.0,0.0,0.0,0.0,0.0,0.0,0.0,0.0,0.0,0.0,0.0,0.0,0.0,0.0,0.0,0.0,0.0,0.0,0.0,0.0,0.0,0.0,0.0,0.0,0.0,0.0,0.0,0.0,0.0,0.0,0.0,0.0,0.0,0.0,0.0,0.0,0.0,0.0,0.0,0.0,0.0,0.0,0.0,0.0,0.0,0.0,0.0,0.0,0.0,0.0,0.0,0.0,0.0,0.0,0.0,0.0,0.0,0.0,0.0,0.0,0.0,2.3176,2.5952,2.8109,2.9472,2.9606,2.9606,2.9606,2.6961,2.4567,2.2808,0.0,0.0,0.0,0.0,0.0,0.0,0.0,0.0,0.0,0.0,0.0,0.0,0.0,0.0,0.0,0.0,0.0,0.0,0.0,0.0,0.0,0.0,0.0,0.0,0.0,0.0,0.0,0.0,0.0,0.0,0.0,0.0,0.0,0.0,0.0,0.0,0.0,0.0,0.0,0.0,0.0,0.0,0.0,0.0,0.0,0.0,0.0,0.0,0.0,0.0,0.0,0.0,0.0,0.0,0.0,0.0,0.0,0.0,0.0,0.0,0.0,0.0,0.0,0.0,0.0,0.0,0.0,0.0,0.0,0.0,0.0,0.0,0.0,0.0,0.0,0.0,0.0,0.0,0.0,0.0,0.0,0.0,0.0,0.0,0.0,0.0,0.0,0.0,0.0,0.0,0.0,0.0,0.0,0.0,0.0,0.0,0.0,0.0,0.0,0.0,0.0,0.0,2.3498,2.6117,2.8214,2.9774,2.9953,2.9849,2.9636,2.738,2.5046,2.2838,0.0,0.0,0.0,0.0,0.0,0.0,0.0,0.0,0.0,0.0,0.0,0.0,0.0,0.0,0.0,0.0,0.0,0.0,0.0,0.0,0.0,0.0,0.0,0.0,0.0,0.0,0.0,0.0,0.0,0.0,0.0,0.0,0.0,0.0,0.0,0.0,0.0,0.0,0.0,0.0,0.0,0.0,0.0,0.0,0.0,0.0,0.0,0.0,0.0,0.0,0.0,0.0,0.0,0.0,0.0,0.0,0.0,0.0,0.0,0.0,0.0,0.0,0.0,0.0,0.0,0.0,0.0,0.0,0.0,0.0,0.0,0.0,0.0,0.0,0.0,0.0,0.0,0.0,0.0,0.0,0.0,0.0,0.0,0.0,0.0,0.0,0.0,0.0,0.0,0.0,0.0,0.0,0.0,0.0,0.0,0.0,0.0,0.0,0.0,0.0,0.0,0.0,2.4022,2.6408,2.8423,3.0298,3.0507,3.0253,2.9666,2.7799,2.5578,2.2942,0.0,0.0,0.0,0.0,0.0,0.0,0.0,0.0,0.0,0.0,0.0,0.0,0.0,0.0,0.0,0.0,0.0,0.0,0.0,0.0,0.0,0.0,0.0,0.0,0.0,0.0,0.0,0.0,0.0,0.0,0.0,0.0,0.0,0.0,0.0,0.0,0.0,0.0,0.0,0.0,0.0,0.0,0.0,0.0,0.0,0.0,0.0,0.0,0.0,0.0,0.0,0.0,0.0,0.0,0.0,0.0,0.0,0.0,0.0,0.0,2.4418,0.0,0.0,0.0,0.0,0.0,0.0,0.0,0.0,0.0,0.0,0.0,0.0,0.0,0.0,0.0,0.0,0.0,0.0,0.0,0.0,0.0,0.0,0.0,0.0,0.0,0.0,0.0,0.0,0.0,0.0,0.0,0.0,0.0,0.0,0.0,0.0,0.0,0.0,0.0,0.0,0.0,2.4141,2.6826,2.8921,3.0357,3.0507,3.0253,2.9666,2.8244,2.6252,2.3565,2.144,0.0,0.0,0.0,0.0,0.0,0.0,0.0,0.0,0.0,0.0,0.0,0.0,0.0,0.0,0.0,0.0,0.0,0.0,0.0,0.0,0.0,0.0,0.0,0.0,0.0,0.0,0.0,0.0,0.0,0.0,0.0,0.0,0.0,0.0,0.0,0.0,0.0,0.0,0.0,0.0,0.0,0.0,0.0,0.0,0.0,0.0,0.0,0.0,0.0,0.0,0.0,0.0,0.0,0.0,0.0,0.0,0.0,0.0,0.0,0.0,2.6004,0.0,0.0,0.0,0.0,0.0,0.0,0.0,0.0,0.0,0.0,0.0,0.0,0.0,0.0,0.0,0.0,0.0,0.0,0.0,0.0,0.0,0.0,0.0,0.0,0.0,0.0,0.0,0.0,0.0,0.0,0.0,0.0,0.0,0.0,0.0,0.0,0.0,0.0,0.0,0.0,2.4619,2.7156,2.922,3.0793,3.0972,3.0731,3.0088,2.8816,2.72,2.5166,2.2906,0.0,0.0,0.0,0.0,0.0,0.0,0.0,0.0,0.0,0.0,0.0,0.0,0.0,0.0,0.0,0.0,0.0,0.0,0.0,0.0,0.0,0.0,0.0,0.0,0.0,0.0,0.0,0.0,0.0,0.0,0.0,0.0,0.0,0.0,0.0,0.0,0.0,0.0,0.0,0.0,0.0,0.0,0.0,0.0,0.0,0.0,0.0,0.0,0.0,0.0,0.0,0.0,0.0,3.0462,3.115,3.1554,3.1659,3.2317,3.3245,3.1076,3.0058,2.9744,2.7425,0.0,0.0,0.0,0.0,0.0,0.0,0.0,0.0,0.0,0.0,0.0,0.0,0.0,0.0,0.0,0.0,0.0,0.0,0.0,0.0,0.0,0.0,0.0,0.0,2.7288,2.6904,0.0,0.0,0.0,0.0,0.0,0.0,0.0,0.0,0.0,0.0,0.0,0.0,2.53,2.753,2.9475,3.1301,3.1511,3.1227,3.0567,2.9445,2.8188,2.6866,2.453,2.2358,0.0,0.0,0.0,0.0,0.0,0.0,0.0,0.0,0.0,0.0,0.0,0.0,0.0,0.0,0.0,0.0,0.0,0.0,0.0,0.0,0.0,0.0,0.0,0.0,0.0,0.0,0.0,0.0,0.0,0.0,0.0,0.0,2.2538,2.3146,0.0,0.0,0.0,0.0,0.0,0.0,0.0,0.0,0.0,0.0,0.0,0.0,0.0,2.8697,2.9968,3.1809,3.2766,3.2871,3.525,3.6133,3.5714,3.6252,3.6596,3.6746,3.6402,0.0,3.1182,3.0253,0.0,0.0,0.0,0.0,0.0,0.0,0.0,0.0,0.0,0.0,0.0,0.0,0.0,0.0,0.0,0.0,0.0,0.0,0.0,0.0,0.0,0.0,3.2301,3.1999,3.1921,3.161,0.0,2.6749,2.3206,2.2343,2.0288,0.0,0.0,0.0,0.0,0.0,0.0,0.0,2.6093,2.8203,2.9983,3.1346,3.1511,3.1227,3.0567,2.9864,2.8903,2.7555,2.6048,2.4582,2.3146,2.0831,0.0,0.0,0.0,0.0,0.0,0.0,0.0,0.0,0.0,0.0,0.0,0.0,0.0,0.0,0.0,0.0,0.0,0.0,0.0,0.0,0.0,0.0,0.0,0.0,0.0,0.0,0.0,0.0,0.0,2.2517,2.3879,2.4126,2.4837,2.4612,0.0,0.0,0.0,0.0,0.0,0.0,0.0,0.0,0.0,3.0298,3.136,3.2542,3.3858,3.5459,3.6237,3.6267,3.7808,3.8586,3.8676,3.8586,3.8945,3.9619,3.926,3.7898,3.5726,3.323,3.1674,3.0683,0.0,0.0,0.0,0.0,2.9531,3.0847,3.2038,3.2675,0.0,3.2405,0.0,0.0,0.0,0.0,0.0,0.0,0.0,0.0,0.0,0.0,3.3882,3.4423,3.4489,3.4365,3.4064,3.1493,2.8538,0.0,2.4215,2.2458,2.0318,0.0,0.0,0.0,0.0,2.4582,2.6881,2.8903,3.0462,3.1406,3.1511,3.1376,3.1077,3.0477,2.9699,2.8783,2.748,2.6108,2.4777,2.3188,2.1379,0.0,0.0,0.0,0.0,0.0,0.0,0.0,0.0,0.0,0.0,0.0,0.0,0.0,0.0,0.0,0.0,0.0,0.0,0.0,0.0,0.0,0.0,0.0,0.0,0.0,0.0,0.0,0.0,2.4126,2.5427,2.5606,2.6946,2.7006,0.0,0.0,0.0,0.0,0.0,0.0,2.8828,3.0283,3.1913,3.3709,3.4876,3.6151,3.7464,3.8437,3.899,3.9155,3.9679,4.0172,4.0636,4.0142,4.0457,4.1392,4.1143,4.074,3.9979,3.6262,3.4689,3.4364,3.2129,3.1794,3.2619,3.306,3.3875,3.5017,3.6875,3.7659,3.7649,3.6647,3.5921,3.4875,3.1781,0.0,0.0,0.0,0.0,3.2738,3.4095,3.4783,3.5437,3.6633,3.674,3.6589,3.6589,3.5332,3.3135,0.0,2.7946,2.6273,2.3676,0.0,0.0,0.0,0.0,2.6033,2.7884,2.9505,3.0776,3.1436,3.1511,3.1511,3.1511,3.0883,3.0238,2.9651,2.8513,2.7255,2.5914,2.5264,2.366,2.0967,0.0,0.0,0.0,0.0,0.0,0.0,0.0,0.0,0.0,0.0,0.0,0.0,0.0,0.0,0.0,0.0,0.0,0.0,0.0,0.0,0.0,0.0,0.0,0.0,0.0,0.0,0.0,0.0,0.0,2.8323,3.0076,0.0,0.0,0.0,0.0,2.8397,3.0135,3.154,3.2228,3.4143,3.5804,3.712,3.7838,3.8841,4.0187,4.0277,4.0606,4.1272,4.1265,4.1332,4.1324,4.1294,4.1324,4.1445,4.2287,4.2674,4.2401,3.94,3.7867,3.7343,3.6007,3.6377,3.7572,3.7028,3.8117,3.9732,3.9133,3.941,4.0018,3.988,3.8429,3.6664,3.6462,3.5374,0.0,0.0,3.5858,3.6844,3.8306,3.8712,3.8931,3.9691,3.9294,3.8739,3.8739,3.7045,3.4893,0.0,3.0308,2.8233,2.745,0.0,2.557,2.6198,2.6971,2.7944,2.9322,3.0088,3.0776,3.1436,3.1511,3.1511,3.1511,3.0883,3.0238,2.9651,2.8936,2.7949,2.6602,2.6451,2.5703,2.4199,2.2119,0.0,0.0,0.0,0.0,0.0,0.0,0.0,0.0,0.0,0.0,0.0,0.0,0.0,0.0,0.0,0.0,0.0,0.0,0.0,0.0,0.0,0.0,0.0,0.0,0.0,0.0,0.0,0.0,3.0986,3.2871,0.0,3.0387,3.1704,3.2317,3.1195,3.3365,3.4996,3.5624,3.7165,3.8437,3.9305,3.9978,4.0546,4.1025,4.1444,4.1826,4.2051,4.2447,4.2626,4.2626,4.2626,4.2626,4.2641,4.2984,4.3227,4.3361,4.2325,4.1025,3.9596,3.8631,3.8654,3.925,3.9503,4.0414,4.1516,4.1238,4.1293,4.1543,4.1516,4.0667,3.9631,3.9631,3.9242,3.8768,3.8558,3.9056,3.9631,3.9706,3.9723,3.9774,4.0045,3.9876,3.9662,3.9662,3.8656,3.7531,3.6826,3.3656,3.0915,3.0328,2.9454,2.8778,2.8611,2.95,3.0338,3.0773,3.1764,3.2362,3.2153,3.2516,3.2448,3.1554,3.1738,3.1214,2.9708,2.975,2.9057,2.7325,2.7441,2.6743,2.5066,2.3695,2.1517,0.0,0.0,0.0,0.0,0.0,0.0,0.0,0.0,0.0,0.0,0.0,0.0,0.0,0.0,0.0,0.0,0.0,0.0,0.0,0.0,0.0,0.0,0.0,0.0,0.0,0.0,3.1839,3.2736,3.4801,3.528,3.305,3.4442,3.519,3.4547,3.6342,3.7749,3.8377,3.9469,4.0382,4.104,4.1527,4.1818,4.2043,4.2476,4.2686,4.2701,4.3135,4.329,4.3329,4.3669,4.381,4.3849,4.4479,4.4893,4.5064,4.5064,4.4167,4.2693,4.1911,4.1836,4.228,4.2787,4.331,4.3775,4.3521,4.3098,4.2675,4.2675,4.2168,4.1576,4.1576,4.1576,4.1474,4.0984,4.1204,4.1457,4.0976,4.0671,4.046,4.046,4.0282,4.0096,4.0096,3.9463,3.8908,3.8908,3.6222,3.3752,3.3122,3.2435,3.175,3.1074,3.1689,3.2231,3.2197,3.2961,3.332,3.2886,3.3227,3.3142,3.2245,3.2214,3.1661,3.0339,2.9971,2.9125,2.7616,2.7918,2.7336,2.5712,2.4572,2.2569,1.9644,0.0,0.0,0.0,0.0,0.0,0.0,0.0,0.0,0.0,0.0,0.0,0.0,0.0,0.0,0.0,0.0,0.0,0.0,0.0,0.0,0.0,0.0,0.0,2.8667,3.1554,3.3619,3.3679,3.5968,3.7045,3.5774,3.6791,3.7793,3.8407,3.9095,3.9768,4.0427,4.107,4.1752,4.241,4.2425,4.2701,4.329,4.3319,4.3319,4.3319,4.3349,4.3349,4.3389,4.4343,4.4768,4.4865,4.6694,4.7489,4.7523,4.7523,4.7144,4.6501,4.5776,4.601,4.6756,4.6756,4.6786,4.6684,4.5974,4.4756,4.346,4.346,4.298,4.2354,4.2354,4.2354,4.2354,4.2337,4.232,4.232,4.2303,4.1762,4.1238,4.1221,4.0646,4.013,4.0096,3.9489,3.8935,3.8935,3.7845,3.6637,3.5845,3.5214,3.4532,3.3728,3.3606,0.0,3.3576,3.3575,3.3544,3.356,3.3545,3.3547,3.3468,3.2302,3.154,3.1445,2.9555,2.8169,2.7565,2.7925,2.7552,2.6266,2.4764,2.3303,2.1917,0.0,0.0,0.0,0.0,0.0,0.0,0.0,0.0,0.0,0.0,0.0,0.0,0.0,0.0,0.0,0.0,0.0,0.0,0.0,0.0,0.0,0.0,3.1928,3.2123,3.4188,3.6193,3.7614,3.9275,3.9963,3.914,3.9798,4.0172,3.9873,4.0472,4.113,4.1826,4.2036,4.2387,4.3045,4.306,4.315,4.329,4.3768,4.4047,4.4047,4.4526,4.4751,4.4736,4.4524,4.4458,4.4427,4.4465,4.4915,4.5577,4.5577,4.5865,4.6237,4.5561,4.5505,4.5853,4.5853,4.627,4.6752,4.6566,4.5872,4.5077,4.5077,4.457,4.3972,4.3972,4.3972,4.3853,4.3267,4.3115,4.298,4.2439,4.2151,4.1863,4.1339,4.1052,4.0747,4.0231,3.9927,3.9782,3.9782,3.9443,3.8937,3.8132,3.741,3.6711,3.5995,3.5867,0.0,3.5091,3.4984,3.4963,3.5018,3.4972,3.4363,3.2897,3.2884,3.2124,3.0239,2.9862,2.9257,2.8271,2.8572,2.8312,2.7378,2.486,2.3097,0.0,0.0,0.0,0.0,0.0,0.0,0.0,0.0,0.0,0.0,0.0,0.0,0.0,0.0,0.0,0.0,0.0,0.0,0.0,0.0,0.0,0.0,3.2033,3.4726,3.5818,3.6985,3.8242,3.9664,4.0741,4.1235,4.0846,4.116,4.1324,4.1235,4.1617,4.2111,4.2731,4.2776,4.294,4.329,4.3559,4.3708,4.3708,4.4392,4.4721,4.4721,4.511,4.5289,4.5274,4.5304,4.5308,4.5278,4.5064,4.5253,4.5782,4.552,4.5706,0.0,0.0,0.0,0.0,0.0,4.6171,4.6678,4.6678,4.6438,4.616,4.616,4.5652,4.5043,4.5043,4.4869,4.4513,4.4028,4.391,4.3809,4.3369,4.2997,4.2658,4.2236,4.1897,4.1457,4.0713,4.0544,4.046,4.0163,4.0096,0.0,3.9489,3.8765,3.7905,3.688,3.6677,3.6385,3.5646,3.5508,3.5518,3.5537,3.5507,3.5171,3.4335,3.3774,0.0,0.0,0.0,2.9391,2.8376,2.8302,0.0,0.0,0.0,0.0,0.0,0.0,0.0,0.0,2.2632,2.1881,0.0,0.0,0.0,0.0,0.0,0.0,0.0,0.0,0.0,0.0,0.0,0.0,0.0,0.0,0.0,0.0,3.4532,3.6806,3.929,3.9709,3.9963,4.0546,4.1205,4.1594,4.1594,4.1594,4.1848,4.247,4.2515,4.2731,4.326,0.0,0.0,0.0,0.0,4.4421,4.4421,4.508,4.5409,4.5409,4.5484,4.5529,4.5555,4.6305,4.6628,4.6676,4.69,4.6988,4.6924,4.6267,4.6005,4.6083,4.6295,4.6349,4.6349,4.6488,4.6629,4.6796,4.6796,0.0,0.0,4.6921,4.643,4.5821,4.5821,4.5365,4.4835,4.475,4.4733,4.4716,4.4632,4.4062,4.3494,4.3409,4.2912,4.2219,4.1491,4.1271,4.1018,4.0367,4.0163,4.0096,4.0096,3.9516,3.8536,3.7068,3.6873,3.6615,3.5958,3.5829,3.5797,3.5878,0.0,0.0,3.6673,3.4974,3.4083,3.4595,3.1637,2.9442,2.8504,2.802,2.8534,3.0193,2.956,2.9873,3.123,2.9678,2.9413,3.0283,2.6094,2.4777,0.0,0.0,0.0,0.0,0.0,0.0,0.0,0.0,0.0,0.0,0.0,0.0,0.0,0.0,0.0,3.3814,3.6671,3.9215,4.0786,4.1497,4.1871,4.2006,4.2566,4.2916,4.2916,4.2916,4.3015,4.3135,4.315,4.317,4.329,4.3798,4.4122,4.4122,4.4766,4.511,4.511,4.5783,4.6127,4.6127,0.0,0.0,4.6905,4.6548,4.6391,4.6346,4.5858,4.5678,4.5617,4.495,4.4834,4.5227,4.6747,4.734,4.7406,4.8193,4.8493,4.8517,4.8517,4.8138,4.7699,4.7699,4.7192,4.6583,4.6583,4.6481,0.0,4.5652,4.5483,4.5348,4.4767,4.4496,4.4198,4.3544,4.3274,4.2997,4.2252,4.1627,4.117,4.1018,4.0493,4.0096,4.0096,3.9978,3.9558,3.8591,3.8453,3.8398,3.8258,3.7703,3.7573,3.8173,3.7703,3.72,3.681,3.6394,3.5774,3.4823,3.3509,3.2147,3.0739,3.0703,3.0823,3.1054,3.0621,3.0708,3.144,3.1839,3.1828,3.1357,2.8688,2.7625,0.0,0.0,0.0,0.0,0.0,0.0,0.0,0.0,0.0,0.0,0.0,2.934,3.0385,0.0,3.504,3.6686,3.8886,4.0741,4.1767,4.2432,4.2851,4.2851,4.3135,4.329,4.329,4.329,4.329,4.329,4.3604,4.3783,4.3783,4.4451,4.4811,4.4811,4.5454,4.5813,4.5813,4.6486,4.6815,4.6815,4.7145,4.7309,4.7294,4.6965,4.6815,4.677,4.6097,4.5813,4.5753,4.508,4.4911,4.5144,4.6229,4.6759,4.6884,4.69,4.7489,4.8225,4.777,4.796,4.846,4.846,4.797,4.7361,4.7361,4.709,4.6718,4.6346,4.6244,4.6075,4.5331,4.5145,4.4959,4.4181,4.3995,4.3792,4.3014,4.2574,4.2051,4.1253,4.0558,3.9977,3.9512,3.9188,3.8816,3.843,3.8003,3.7629,3.7233,3.689,3.6935,3.7671,3.7424,3.7385,3.7811,3.7579,3.6808,3.5451,3.4618,3.3835,3.3027,3.3067,3.3199,3.3444,3.2928,3.2969,3.3551,3.3319,3.3177,3.3063,3.161,3.0767,0.0,0.0,0.0,0.0,0.0,0.0,0.0,0.0,2.756,2.9699,3.1046,3.2347,3.3963,3.5789,3.7659,3.9499,4.0786,4.1841,4.25,4.3,4.329,4.329,4.329,4.329,4.329,4.329,4.329,4.329,4.3902,4.4317,4.4317,4.5065,4.5484,4.5484,4.6157,4.6474,4.6474,4.704,4.7309,4.7309,4.7309,4.7309,4.7309,4.7309,4.7309,4.7279,4.6741,4.6399,4.6277,4.5902,4.5668,4.5611,4.602,4.6318,4.6486,4.5635,4.6295,4.7523,4.6952,4.7721,4.9001,4.9001,4.8612,4.8091,4.8091,4.7699,4.7192,4.7056,4.7005,4.6836,4.6109,4.5923,4.5737,4.5004,4.4688,4.4355,4.3553,4.3127,4.2527,4.1238,4.0463,3.983,3.9129,3.83,3.7762,3.7809,3.7249,3.6631,3.6022,3.5941,3.6164,3.6768,3.6948,3.7613,3.9016,3.8695,3.7867,3.6563,3.5931,3.546,3.5126,3.5117,3.5276,3.5617,3.5386,3.553,3.6043,3.5043,3.4752,3.5132,3.4425,3.3592,2.7824,2.6497,2.6108,2.7739,2.7305,2.8023,0.0,0.0,3.2482,3.507,3.6163,3.6701,3.6926,3.8138,3.9544,4.0935,4.1811,4.2515,4.3095,4.3245,4.329,4.329,4.329,4.329,4.329,4.329,4.329,4.329,4.3902,4.4317,4.4317,4.5514,4.6217,4.6217,4.686,4.7189,4.7189,4.7264,4.7309,4.7309,4.7309,4.7309,4.7309,4.7309,4.7309,4.7309,4.7234,4.686,4.6349,4.7125,4.7099,4.6623,4.7502,4.7856,4.7832,4.7458,4.7406,4.7688,4.8433,4.8829,4.9001,4.9001,4.8951,4.8883,4.8883,4.8832,4.8629,4.797,4.78,4.7631,4.687,4.6667,4.6481,4.5754,4.4976,4.4216,4.3459,4.2197,4.1128,4.0955,4.0347,3.979,3.9698,3.8528,3.7668,3.7786,3.7719,3.7648,3.7544,3.7531,3.7573,3.7661,3.823,3.8989,3.9901,3.9885,3.9522,3.8712,3.8587,3.7953,3.6637,3.6579,3.6306,3.569,3.6953,3.7594,3.7554,3.8052,3.8003,3.7393,3.6625,3.5217,3.0672,3.0043,2.9834,0.0,3.1031,3.2047,3.519,3.5055,3.4771,3.6641,3.7524,3.7973,3.7973,3.9394,4.0741,0.0,4.2252,4.3015,4.3245,4.3015,4.2776,4.2776,4.2432,4.2491,4.323,4.329,4.329,4.329,4.4302,4.4885,4.4885,4.6157,4.689,4.689,4.716,4.7309,4.7309,4.7309,4.7309,4.7309,4.7309,4.7309,4.7309,4.7309,4.7309,4.7309,4.7309,4.7145,4.689,4.7298,4.7285,4.7038,4.7063,4.7056,4.7053,4.707,4.7221,4.7413,4.7825,4.8051,4.8193,4.8193,4.8193,4.808,4.7556,4.7373,4.7324,4.6979,4.6897,4.6733,4.5996,4.5799,4.5619,4.4898,4.4137,4.3492,4.3201,4.2285,4.1374,4.0888,4.024,3.9721,3.9721,3.8901,3.8435,3.8994,3.7603,3.6461,3.6461,3.6461,3.6631,3.707,3.8173,3.9032,3.9368,3.9833,3.9977,3.9673,3.9656,3.9362,3.8757,3.8715,3.8349,3.7574,3.8198,3.8057,3.7096,3.7412,3.7174,3.6461,3.6133,3.5497,3.1809,3.2108,0.0,3.2736,3.3918,3.5282,3.6103,3.6297,3.6611,3.7734,3.8347,3.8721,3.8916,4.0127,4.1235,4.1632,4.2447,4.3135,4.3275,4.2776,4.2396,4.2396,4.1826,4.1743,4.2701,4.2955,4.3135,4.329,4.4541,4.5289,4.5289,4.6576,4.7309,4.7309,4.7309,4.7309,4.7309,4.7309,4.7309,4.7309,4.7309,4.7309,4.7309,4.7309,4.7309,4.7309,4.7309,4.7309,4.7309,4.7309,4.7309,4.7249,4.6785,4.6591,4.6616,4.6778,4.6967,4.7109,4.7367,4.7477,4.7466,4.7466,4.7369,4.7088,4.64,4.6208,4.6208,4.6208,4.6208,4.6131,4.5842,4.5782,4.5672,4.5194,4.4528,4.3928,4.3735,4.296,4.2107,4.148,4.0814,4.0329,4.0329,3.9765,3.955,4.0188,3.8247,3.6589,3.6165,3.592,3.6086,3.6859,3.7917,3.869,3.8881,3.9236,3.9454,3.9454,3.9679,3.9782,3.9782,3.9978,3.9731,3.8908,3.9113,3.8564,3.7231,3.7231,3.6859,3.6148,3.5894,3.5701,3.0013,0.0,3.2662,3.3305,3.4966,3.6761,3.8018,3.8302,3.8497,3.9215,3.9379,3.9589,4.0217,4.0382,4.0846,4.2171,4.2396,4.265,4.32,4.2776,4.2396,4.2396,4.1826,4.1437,0.0,4.2051,4.2656,4.3245,4.4541,4.5289,4.5289,4.6576,4.7309,4.7309,4.7309,4.7309,4.7309,4.7309,4.7309,4.7309,4.7309,4.7309,4.7309,4.7309,4.7309,4.7309,4.7309,4.7309,4.7309,4.7309,4.7309,4.7309,4.7279,4.7279,4.7279,4.7292,4.705,4.6866,4.7737,4.7679,4.7193,4.7193,4.6749,4.6244,4.6208,4.6208,4.6208,4.6208,4.6208,4.6419,4.7273,4.7523,4.7555,4.7746,4.7122,4.6287,4.5561,4.4171,4.3055,4.3022,4.2429,4.1933,4.1933,4.1373,4.0957,4.0988,4.0331,3.9306,3.781,3.7018,3.6873,3.769,3.7822,3.8104,3.8854,3.829,3.7879,3.7879,3.8525,3.8935,3.8935,3.9705,3.9731,3.8908,3.9662,3.9662,3.8827,3.8827,3.8442,3.7706,3.695,3.6196,3.2063,0.0,3.4188,3.5714,3.6926,3.7988,3.8871,3.9065,3.9005,3.8781,3.8736,3.8676,3.8452,3.9155,4.0038,4.092,4.1826,4.262,4.32,4.2776,4.2231,4.1796,4.113,0.0,0.0,0.0,0.0,4.2641,4.3898,4.4825,4.5274,4.6576,4.7309,4.7309,4.7309,4.7309,4.7309,4.7309,4.7309,4.7309,4.7309,4.7309,4.7309,4.7309,4.7309,4.7309,4.7309,4.7309,4.7309,4.7309,4.7309,4.7309,4.7309,4.7309,4.7309,4.7309,4.7209,4.7175,4.7641,4.7426,4.6863,4.6863,4.6729,4.6334,4.528,4.5394,4.5759,4.5373,4.5248,4.5504,4.6435,4.6189,4.5766,4.5812,4.5276,4.4512,4.363,4.2659,4.1858,4.1398,4.1117,4.097,4.1125,4.0943,4.0842,4.0912,4.0395,3.9804,3.9291,3.858,3.8241,3.8494,3.8521,3.8442,3.8206,3.8386,3.833,3.7835,3.8035,3.8177,3.8177,3.843,3.8458,3.8177,3.843,3.8189,3.7379,3.7379,3.6994,3.6258,3.599,3.5718,3.3484,3.4533,3.5609,3.733,3.8257,3.8871,3.932,3.923,3.8931,3.8482,3.8033,3.7644,3.7449,3.7749,3.8542,4.0142,4.0905,4.1788,4.3095,4.2566,4.1976,4.1796,4.0935,4.0487,0.0,0.0,0.0,4.2351,4.3793,4.4855,4.5274,4.6576,4.7309,4.7309,4.7309,4.7309,4.7309,4.7309,4.7309,4.7309,4.7309,4.7309,4.7309,4.7309,4.7309,4.7309,4.7309,4.7309,4.7309,4.7309,4.7309,4.7309,4.7309,4.7309,4.7309,4.7309,4.7309,4.7321,4.7486,4.7125,4.664,4.6969,4.668,4.606,4.5424,4.5461,4.5526,4.4834,4.471,4.4946,4.5525,4.5248,4.4871,4.5227,4.4976,4.4502,4.3908,4.3199,4.2709,4.2605,4.2361,4.2269,4.2445,4.2028,4.1548,4.131,4.0957,4.0522,4.0025,3.9815,3.9732,3.9732,3.9727,3.9532,3.9068,3.9178,3.8979,3.8248,3.8174,3.819,3.816,3.816,3.8272,3.8499,3.8499,3.8261,3.773,3.773,3.7359,3.6622,3.6622,3.6459,3.4339,3.5672,3.6941,3.8182,3.899,3.9418,3.9343,3.8856,3.8362,3.8257,3.7255,3.6537,0.0,0.0,3.6492,3.9634,3.9768,4.033,4.2886,4.2237,4.1737,0.0,0.0,0.0,0.0,0.0,0.0,4.2351,0.0,4.5259,4.5289,4.6576,4.7309,4.7309,4.7309,4.7309,4.7309,4.7309,4.7309,4.7309,4.7309,4.7309,4.7309,4.7309,4.7309,4.7309,4.7309,4.7309,4.7309,4.7309,4.7309,4.7309,4.7309,4.7309,4.7309,4.7309,4.7309,4.7309,4.7309,4.689,4.6521,4.7451,4.6712,4.5586,4.6573,4.6354,4.5596,4.4695,4.466,4.4905,4.4911,4.4896,4.5052,4.5905,4.6154,4.6103,4.6067,4.5521,4.5335,4.6126,4.5733,4.5359,4.5576,4.4334,4.3005,4.2173,4.2046,4.1565,4.0265,4.0759,4.1283,4.1312,4.1279,4.1246,4.1189,4.0485,3.9732,3.8985,3.8953,3.8923,3.885,3.882,3.9109,3.981,3.9718,3.9687,3.9749,3.9687,3.9283,3.8529,3.8529,3.8149,3.6776,3.8018,3.8871,3.9679,4.0023,3.9888,3.8871,3.8512,3.7988,3.6537,3.5579,3.4592,0.0,0.0,0.0,3.6537,3.8661,0.0,4.2387,4.2746,0.0,4.244,0.0,4.1767,4.1414,4.1856,0.0,0.0,4.3733,4.4781,4.5274,4.6576,4.7309,4.7309,4.7309,4.7309,4.7309,4.7309,4.7309,4.7309,4.7309,4.7309,4.7309,4.7309,4.7309,4.7309,4.7309,4.7309,4.7309,4.7309,4.7309,4.7309,4.7309,4.7309,4.7309,4.7309,4.7309,4.7309,4.7309,4.7189,4.7098,4.7352,4.7119,4.6738,4.6523,4.6793,4.7064,4.6293,4.615,4.6276,4.6513,4.6053,4.5439,4.5204,4.5153,4.4968,4.419,4.4469,4.46,4.3608,4.3437,4.369,4.4448,4.3799,4.3089,4.2847,4.2907,4.2855,4.2479,4.215,4.217,4.2786,4.2337,4.1793,4.1246,4.1001,4.0567,3.9764,3.9718,3.9718,3.9688,3.9061,3.9125,3.993,3.8677,3.8317,3.8966,3.8317,3.7916,3.7696,3.7696,3.7609,3.8362,3.9544,4.0307,4.0382,4.0187,3.9619,3.8272,3.7524,3.6567,3.4592,3.3425,0.0,3.0926,0.0,0.0,0.0,0.0,0.0,4.2126,4.2671,4.288,0.0,4.2575,0.0,4.2237,4.2566,4.291,0.0,4.4167,4.49,4.5274,4.6576,4.7309,4.7309,4.7309,4.7309,4.7309,4.7309,4.7309,4.7309,4.7309,4.7309,4.7309,4.7309,4.7309,4.7309,0.0,4.7309,4.7309,4.7309,4.7309,4.7309,4.7309,4.7309,4.7309,4.7309,4.7309,4.7309,4.7309,4.7309,4.7381,4.7792,4.7651,4.7306,4.7395,4.7553,4.7525,4.6742,4.6607,4.6663,4.6408,4.5711,4.4989,4.4662,4.4357,4.4105,4.3989,4.4396,4.4763,4.4695,4.4849,4.5095,4.5227,4.4643,4.401,4.3651,4.3363,4.3335,4.3737,4.3485,4.3444,4.3872,4.3555,4.2992,4.2175,4.2116,4.1629,4.0458,4.0054,4.0023,4.038,3.9596,3.9673,4.0844,3.9528,3.9106,3.9577,3.8693,3.8287,3.8287,3.8287,3.8287,3.9469,4.0576,4.1354,4.0696,4.0038,3.9155,3.7629,3.6222,3.4666,3.2662,0.0,2.9924,2.9295,2.9849,3.142,3.4592,0.0,3.9185,4.1886,4.2351,4.2635,4.3215,4.2836,4.2716,4.3245,4.3364,4.3663,4.4272,4.5005,4.5424,4.5424,4.6621,4.7309,4.7309,4.7309,4.7309,4.7309,4.7309,4.7309,4.7309,4.7309,4.7309,4.7309,4.7309,4.7309,4.7309,4.7309,0.0,4.7309,4.7309,4.7309,4.7309,4.7309,4.7309,4.7309,4.7309,4.7309,4.7309,4.7309,4.7309,4.7467,4.8486,4.8225,4.7679,4.8718,4.8488,4.7675,4.686,4.6819,4.6766,4.5863,4.5303,4.4956,4.4866,4.4352,4.4087,4.4936,4.5046,4.5541,4.7423,4.7836,4.7637,4.7036,4.6328,4.5563,4.4804,4.4042,4.3846,4.4632,4.4537,4.4485,4.4587,4.4615,4.4281,4.3532,4.3472,4.2876,4.1492,4.0609,4.048,4.118,4.0334,4.0502,4.1981,4.1013,4.0588,4.069,3.9829,3.9388,3.9388,3.9388,3.9388,4.0711,4.1647,4.2066,4.1369,4.0711,3.9604,3.7195,3.519,0.0,0.0,2.937,2.7899,2.7255,2.8547,3.0462,3.2677,0.0,0.0,0.0,0.0,4.2635,0.0,0.0,0.0,0.0,0.0,0.0,0.0,0.0,4.6142,4.6142,4.6875,4.7309,4.7309,4.7309,4.7309,4.7309,4.7309,4.7309,4.7309,4.7309,4.7309,4.7309,4.7309,4.7309,4.7309,4.7309,0.0,4.7309,4.7309,4.7309,4.7309,4.7309,4.7309,4.7309,4.7309,4.7309,4.7309,4.7309,4.7309,4.7467,4.8486,4.8677,4.8759,4.9813,4.9417,4.8573,4.8425,4.8414,4.8264,4.7546,4.7958,4.8384,4.7812,4.7109,4.6654,4.6816,4.6391,4.6504,4.8401,4.8157,4.7864,4.8486,4.7959,4.744,4.727,4.6633,4.6223,4.6359,4.4707,4.3814,4.4514,4.4615,4.4542,4.4384,4.4384,4.4276,4.3982,4.3138,4.2729,4.2867,4.1354,4.0988,4.1997,4.0447,3.999,4.069,3.9829,3.9388,3.9388,3.9388,3.9388,4.1115,4.2102,4.2626,4.1624,4.0621,3.911,3.6118,0.0,0.0,0.0,2.744,2.6243,2.5226,2.6986,0.0,0.0,0.0,0.0,0.0,0.0,0.0,0.0,0.0,0.0,0.0,0.0,0.0,0.0,0.0,4.6279,4.6279,4.695,4.7309,4.7309,4.7309,4.7309,4.7309,4.7309,4.7309,4.7309,4.7309,4.7309,4.7309,4.7309,4.7309,4.7309,4.7309,0.0,4.7309,4.7309,4.7309,4.7309,4.7309,4.7309,4.7309,4.7309,4.7309,4.7309,4.7309,4.7309,4.7467,4.8486,4.8444,4.8115,4.8625,4.88,4.8784,4.8784,4.9175,4.9536,4.9245,4.9292,4.9304,4.9005,4.876,4.8516,4.8107,4.8143,4.8381,4.8897,4.8656,4.8465,4.8923,4.8714,4.8477,4.8477,4.7851,4.7378,4.7378,4.6038,4.5278,4.5691,4.5399,4.5002,4.4528,4.4148,4.3739,4.329,4.2831,4.2816,4.3276,4.2489,4.2252,4.2676,4.1428,4.074,4.069,3.9829,3.9388,3.9388,3.9388,3.9604,4.0995,4.2028,4.2626,4.1459,4.0172,3.8362,3.5237,3.2736,0.0,0.0,2.5839,2.4896,2.3984,0.0,2.775,0.0,3.2183,0.0,0.0,0.0,0.0,0.0,0.0,0.0,0.0,0.0,0.0,0.0,0.0,0.0,4.6488,4.7025,4.7309,4.7309,4.7309,4.7309,4.7309,4.7309,4.7309,4.7309,4.7309,4.7309,4.7309,4.7309,4.7309,4.7309,4.7309,0.0,0.0,4.7309,4.7309,4.7309,4.7309,4.7309,4.7309,4.7309,4.7309,4.7309,4.7309,4.7309,4.7424,4.821,4.8099,4.7651,4.7876,4.8335,4.8784,4.8784,4.9416,5.0048,5.0048,5.0003,4.995,5.0026,5.0181,5.0071,4.9106,4.9658,5.0038,4.9106,4.9097,4.9187,4.9035,4.9001,4.9001,4.9001,4.8528,4.8125,4.8125,4.7631,4.7259,4.7259,4.6464,4.5673,4.4992,4.437,4.3767,4.3068,4.2863,4.3068,4.372,4.3598,4.3506,4.3506,4.2815,4.2152,4.145,4.0738,4.0431,4.0416,4.0232,4.0411,4.0307,4.101,4.1384,4.0666,3.9469,3.7778,3.5117,0.0,0.0,2.7036,2.5091,2.3939,2.4425,0.0,0.0,0.0,0.0,3.4023,0.0,0.0,0.0,0.0,0.0,0.0,0.0,0.0,0.0,0.0,0.0,0.0,4.7219,4.7279,4.7309,4.7309,4.7309,4.7309,4.7309,4.7309,4.7309,4.7309,4.7309,4.7309,4.7309,4.7309,4.7309,4.7309,4.7309,0.0,0.0,4.7309,4.7309,4.7309,4.7309,4.7309,4.7309,4.7309,4.7309,4.7309,4.7309,4.7309,4.7309,4.7424,4.7988,4.8825,4.9813,4.9496,4.8784,4.8784,4.8866,4.8948,4.8948,5.0278,5.1713,5.1984,5.205,5.1631,4.9951,5.0393,5.0604,4.8961,4.9372,4.9779,4.912,4.9001,4.9001,4.9001,4.8951,4.89,4.89,4.8849,4.8798,4.8798,4.753,4.6655,4.6596,4.6528,4.6448,4.6342,4.5623,4.5217,4.528,4.4529,4.4135,4.4135,4.4019,4.3968,4.3885,4.3785,4.3751,4.3717,4.2888,4.2509,3.9514,4.0576,4.122,4.0561,3.9379,3.7599,3.4577,0.0,2.8918,2.6497,2.4717,2.3684,2.3954,2.4545,2.5681,0.0,0.0,0.0,0.0,0.0,0.0,0.0,0.0,0.0,0.0,0.0,0.0,0.0,0.0,0.0,4.7309,4.7309,4.7309,4.7309,4.7309,4.7309,4.7309,4.7309,4.7309,4.7309,4.7309,4.7309,4.7309,4.7309,4.7309,4.7309,4.7309,0.0,0.0,4.7309,4.7309,4.7309,4.7309,4.7309,4.7309,4.7309,4.7309,4.7309,4.7309,4.7309,4.7309,4.7309,4.7566,4.7988,4.8392,4.8651,4.8784,4.8784,4.9256,4.9876,5.0534,5.1776,5.2906,5.2994,5.3027,5.2707,5.1531,5.158,5.1542,5.0375,5.0148,4.9999,4.9712,4.9289,4.9001,4.9001,4.9001,4.9001,4.9001,4.9001,4.9001,4.9001,4.8088,4.7462,4.7462,4.7056,4.6786,4.6786,4.6468,4.627,4.627,4.5932,4.5272,4.4161,4.4691,4.4444,4.3375,4.3908,4.4178,4.4178,4.3822,4.3873,3.8407,3.9499,4.0098,3.9634,3.8512,3.6731,0.0,3.1031,2.8532,2.5869,2.4403,2.3595,2.3595,2.3999,2.4822,0.0,0.0,2.8663,3.166,0.0,0.0,0.0,0.0,0.0,0.0,0.0,0.0,0.0,0.0,0.0,4.7309,4.7309,4.7309,4.7309,4.7309,4.7309,4.7309,4.7309,4.7309,4.7309,4.7309,4.7309,4.7309,4.7309,4.7309,4.7309,4.7309,0.0,0.0,4.7309,4.7309,4.7309,4.7309,4.7309,4.7309,4.7309,4.7309,4.7309,4.7309,4.7309,4.7309,4.7309,4.7309,4.7309,4.7309,4.7792,4.8377,4.8377,4.8882,4.9694,5.0725,5.1776,5.2644,5.2956,5.3264,5.3264,5.2387,5.2421,5.2319,5.1279,5.0888,5.0676,5.0456,4.9999,4.9593,4.9357,4.9323,4.9255,4.9035,4.9001,4.9001,4.9001,4.8545,4.824,4.824,4.775,4.7445,4.7445,4.7445,4.7445,4.7445,4.7445,4.6862,4.5571,4.6201,4.5929,4.4633,4.529,4.562,4.562,4.5307,4.5144,3.6896,3.7434,3.7449,3.7434,3.6477,3.4831,3.2123,3.0001,2.7859,2.5158,2.4066,2.3595,2.3595,2.361,2.4268,2.6258,2.7165,0.0,3.2916,0.0,0.0,0.0,0.0,0.0,0.0,0.0,0.0,0.0,0.0,0.0,4.7309,4.7309,4.7309,4.7309,4.7309,4.7309,4.7309,4.7309,4.7309,4.7309,4.7309,4.7309,4.7309,4.7309,4.7309,0.0,0.0,0.0,0.0,4.7309,4.7309,4.7309,4.7309,4.7309,4.7309,4.7309,4.7309,4.7309,4.7309,4.7309,4.7309,4.7309,4.7309,4.7309,4.7309,4.7309,4.7309,4.7309,4.7309,4.7566,4.8553,4.9615,5.0665,5.1687,5.2714,5.323,5.2153,5.2732,5.296,5.1142,5.1613,5.2046,5.1319,5.1168,5.0947,5.0185,5.0084,4.9813,4.9086,4.9001,4.9001,4.9001,4.9001,4.8984,4.8984,4.8984,4.8984,4.8984,4.8984,4.8984,4.8984,4.8984,4.8984,4.8954,4.8954,4.8937,4.8954,4.8954,4.8937,4.8923,4.7998,4.6558,3.3769,3.4711,3.5295,3.4846,3.4098,3.2886,3.0702,2.9011,2.73,2.5053,2.4066,2.3595,2.3595,2.3595,2.4403,2.6881,2.7465,0.0,0.0,0.0,0.0,0.0,0.0,0.0,0.0,0.0,0.0,0.0,0.0,0.0,4.7309,4.6875,4.6845,4.7294,4.7309,4.7309,4.7309,4.7309,4.7309,4.7309,4.7309,4.7309,4.7309,4.7309,4.7309,0.0,0.0,0.0,0.0,4.7309,4.7309,4.7309,4.7309,4.7309,4.7309,4.7309,4.7309,4.7309,4.7309,4.7309,4.7309,4.7309,4.7309,4.7424,4.8099,4.7834,4.7309,4.7309,4.88,5.0342,5.0009,5.1208,5.2416,5.1993,5.2714,5.323,5.2117,5.2749,5.3315,5.2757,5.2455,5.2232,5.1995,5.1539,5.1133,5.0896,5.0862,5.0591,4.9847,4.9746,4.956,4.9052,4.9001,4.9001,4.9001,4.9001,4.9001,4.9001,4.9001,4.9001,4.9001,4.9001,4.8688,4.8047,4.8688,4.8688,4.8047,4.8688,4.9001,4.9001,4.8688,4.7868,3.1315,3.2542,3.326,3.2856,3.2078,3.0956,2.9247,2.7824,2.6333,2.4575,2.3894,2.3595,2.3595,2.3595,2.4223,2.6153,2.6686,0.0,0.0,0.0,0.0,0.0,0.0,0.0,0.0,0.0,0.0,0.0,0.0,0.0,4.6546,4.6157,4.6112,4.6531,4.6546,4.6546,4.6546,4.6546,4.6546,4.6546,4.6815,4.6935,4.695,4.7189,4.7309,0.0,0.0,0.0,0.0,4.7309,4.7309,4.7309,4.7309,4.7309,4.7309,4.7309,4.7309,4.7309,4.7309,4.7309,4.7309,4.7309,4.7581,4.7988,4.8594,4.8651,4.8475,4.8475,4.9852,5.1192,5.055,5.1631,5.2714,5.2082,5.2714,5.3314,5.2627,5.3025,5.3501,5.3501,5.3095,5.2756,5.2756,5.2384,5.1978,5.1674,5.164,5.1352,5.0608,5.0524,5.0338,4.9881,4.9847,4.9847,4.9847,4.9323,4.9001,4.9001,4.9001,4.9001,4.9001,4.9001,4.8719,4.8161,4.8688,4.8719,4.8112,4.8719,4.9001,4.9001,4.8656,4.8161,0.0,3.0599,3.1137,3.1092,3.0193,2.8992,2.769,2.6422,0.0,2.3864,2.3595,2.3625,2.3729,2.3655,2.3909,2.4814,0.0,0.0,0.0,0.0,0.0,0.0,0.0,0.0,0.0,0.0,0.0,0.0,0.0,0.0,4.5289,4.5244,4.5229,4.5229,4.5185,4.52,4.5289,4.5289,4.5289,4.5304,4.5948,4.6204,4.6277,4.6875,4.7189,0.0,0.0,0.0,0.0,4.7309,4.7309,4.7309,4.7309,4.7309,4.7309,4.7309,4.7309,4.7309,4.7309,4.7309,4.7294,4.7381,4.8115,4.8948,4.8973,4.9734,5.0474,5.0397,5.0528,5.0589,5.0528,5.1245,5.1993,5.1921,5.2714,5.3467,5.3382,5.3467,5.3501,5.3501,5.3501,5.3501,5.3501,5.3501,5.3247,5.2503,5.2384,5.2131,5.1354,5.1302,5.1268,5.1217,5.1185,5.1185,5.1185,4.9915,4.9086,4.9086,4.9035,4.9001,4.9001,4.9001,4.9001,4.9001,4.9001,4.9001,4.9001,4.9001,4.9001,4.897,4.8129,4.7655,2.5785,0.0,2.7634,2.7101,2.6767,2.6333,0.0,2.5053,2.459,2.3774,2.3595,2.3909,2.4941,2.4298,2.4657,2.7889,0.0,0.0,0.0,0.0,0.0,0.0,0.0,0.0,0.0,0.0,0.0,0.0,0.0,4.5289,4.5289,4.4811,4.4541,4.4541,4.4062,4.4272,4.5289,4.5289,4.5289,4.5289,4.5454,4.5544,4.5544,4.5693,4.6052,0.0,0.0,0.0,4.7309,4.7309,4.7309,4.7309,4.7309,4.7309,4.7309,4.7309,4.7309,4.7309,4.7309,4.7309,4.7424,4.8225,4.915,5.0165,5.0951,5.134,5.1394,5.0627,5.1557,5.2574,5.1776,5.2329,5.2904,5.2117,5.2714,5.328,5.2435,5.2904,5.3501,5.3501,5.3501,5.3501,5.3501,5.3501,5.345,5.3247,5.323,5.2942,5.2147,5.2046,5.1843,5.1268,5.1185,5.1185,5.1185,5.0371,4.983,4.983,4.9306,4.9001,4.9001,4.9001,4.9001,4.9001,4.9001,4.9001,4.9001,4.9001,4.9001,4.9001,4.8781,4.8289,2.3729,2.5345,2.6986,2.6602,2.6288,2.5959,2.5615,2.4799,2.4044,2.367,2.3595,2.3924,2.4948,2.4807,0.0,0.0,0.0,0.0,0.0,0.0,0.0,0.0,0.0,0.0,0.0,0.0,0.0,0.0,0.0,4.4392,4.4392,4.4062,4.3828,4.3828,4.3484,4.3633,4.4392,4.4392,4.4392,4.4407,4.4706,4.484,4.4855,4.5155,4.5499,0.0,0.0,0.0,4.686,4.686,4.704,4.7309,4.7309,4.7309,4.7309,4.7309,4.7309,4.7309,4.7309,4.7609,4.8141,4.9191,5.0227,5.1192,5.1724,5.2241,5.2522,5.199,5.2644,5.3382,5.2784,5.3059,5.3348,5.2784,5.3076,5.3348,5.2749,5.311,5.3501,5.3501,5.3501,5.3501,5.3501,5.3501,5.3501,5.3501,5.3501,5.3348,5.2909,5.2858,5.2706,5.2317,5.2266,5.2266,5.2266,5.1555,5.0963,5.0625,5.0236,5.0016,5.0016,5.0016,5.0016,5.0016,5.0016,5.0016,5.0016,5.0016,5.0016,5.0016,5.0016,4.9729,2.2912,2.5174,2.7375,2.7061,2.6731,2.6378,2.6183,0.0,0.0,0.0,0.0,0.0,0.0,2.5516,0.0,0.0,0.0,0.0,0.0,0.0,0.0,0.0,0.0,0.0,0.0,0.0,0.0,0.0,0.0,4.329,4.329,4.329,4.329,4.329,4.329,4.329,4.329,4.329,4.329,4.3305,4.3898,4.4167,4.4182,4.4751,4.505,4.5155,0.0,0.0,4.6172,4.6172,4.6561,4.716,4.716,4.7219,4.7309,4.7309,4.7309,4.7309,4.7495,4.8183,4.9215,5.0281,5.1208,5.1921,5.2082,5.2784,5.3501,5.3501,5.3501,5.3501,5.3501,5.3501,5.3501,5.3501,5.3501,5.3501,5.3501,5.3501,5.3501,5.3501,5.3501,5.3501,5.3501,5.3501,5.3501,5.3501,5.3501,5.3501,5.3501,5.3501,5.3501,5.3501,5.3501,5.3501,5.3501,5.2892,5.2232,5.1606,5.1352,5.1185,5.1185,5.1185,5.1185,5.1185,5.1185,5.1185,5.1185,5.1185,5.1185,5.1185,5.1185,5.1185,2.3857,2.551,2.6333,2.4627,2.4986,2.5465,2.4313,2.3819,0.0,0.0,0.0,0.0,0.0,2.7225,2.8068,0.0,0.0,0.0,0.0,0.0,0.0,0.0,0.0,0.0,0.0,0.0,0.0,0.0,0.0,4.329,4.329,4.329,4.329,4.329,4.329,4.329,4.329,4.329,4.329,4.329,4.3394,4.3439,4.3454,4.3544,4.3943,4.4466,0.0,4.484,4.5454,4.5454,4.5858,4.6429,4.6429,4.6815,4.7309,4.7309,4.7309,4.7424,4.8252,4.9271,5.032,5.1357,5.176,5.2082,5.299,5.3382,5.3501,5.3501,5.3501,5.3501,5.3501,5.3501,5.3501,5.3501,5.3501,5.3501,5.3501,5.3501,5.3501,5.3501,5.3501,5.3501,5.3501,5.3501,5.3501,5.3501,5.3501,5.3501,5.3501,5.3501,5.3501,5.3501,5.3501,5.3501,5.3501,5.3399,5.3281,5.3162,5.1928,5.1185,5.1185,5.1185,5.1185,5.1185,5.1185,5.1185,5.1185,5.1185,5.1185,5.1185,5.1185,5.1185,2.2347,2.3714,2.4837,2.4276,2.5974,2.75,2.6527,2.6019,2.5773,0.0,0.0,0.0,0.0,0.0,3.0148,3.3155,0.0,0.0,0.0,0.0,0.0,0.0,0.0,0.0,0.0,0.0,0.0,0.0,0.0,0.0,4.329,4.329,4.329,4.329,4.329,4.329,4.329,4.329,4.329,4.329,4.329,4.329,4.329,4.329,4.3454,4.3738,0.0,4.4152,4.4766,4.4766,4.5155,4.5813,4.6172,4.6516,4.6858,4.7782,4.8099,4.8335,4.9915,5.0801,5.1283,5.176,5.1921,5.1993,5.247,5.2627,5.2749,5.3348,5.3501,5.3501,5.3501,5.3501,5.3501,5.3501,5.3501,5.3501,5.3501,5.3501,5.3501,5.3501,5.3501,5.3501,5.3501,5.3501,5.3501,5.3501,5.3501,5.3501,5.3501,5.3501,5.3501,5.3501,5.3501,5.3501,5.3501,5.3501,5.3501,5.3501,5.2841,5.2452,5.2452,5.2452,5.2452,5.2452,5.2452,5.2452,5.2452,5.2452,5.2452,5.2452,5.2452,5.2452,2.163,2.2592,2.3804,2.4634,2.6767,2.8637,2.8607,2.7949,2.7495,0.0,0.0,0.0,0.0,3.0941,0.0,0.0,0.0,0.0,0.0,0.0,0.0,0.0,0.0,0.0,0.0,0.0,0.0,0.0,0.0,0.0,4.329,4.329,4.329,4.329,4.329,4.329,4.329,4.329,4.329,4.329,4.329,4.329,4.329,4.329,4.329,4.329,4.329,4.3574,4.4092,4.4092,4.4466,4.5125,4.5813,4.6389,4.7026,4.8343,4.9094,4.9758,5.134,5.2065,5.2277,5.2277,5.2277,5.2277,5.2277,5.2277,5.2435,5.3264,5.3501,5.3501,5.3501,5.3501,5.3501,5.3501,5.3501,5.3501,5.3501,5.3501,5.3501,5.3501,5.3501,5.3501,5.3501,5.3501,5.3501,5.3501,5.3501,5.3501,5.3501,5.3501,5.3501,5.3501,5.3501,5.3501,5.3501,5.3501,5.3501,5.3501,5.3501,5.3501,5.3501,5.3501,5.3501,5.3501,5.3501,5.3501,5.3501,5.3501,5.3501,5.3501,5.3501,5.3501,2.3842,2.3962,2.3909,2.5211,2.5719,2.6363,2.8188,2.759,0.0,2.9082,0.0,0.0,0.0,3.3424,0.0,0.0,0.0,0.0,0.0,0.0,0.0,0.0,0.0,0.0,0.0,0.0,0.0,0.0,0.0,0.0,4.329,4.329,4.329,4.329,4.329,4.329,4.329,4.329,4.329,4.329,4.329,4.329,4.329,4.329,4.329,4.329,4.329,4.3319,4.3364,4.3364,4.3753,4.4451,4.511,4.6678,4.8641,4.8769,5.0016,5.1687,5.1832,5.254,5.3382,5.3382,5.3382,5.3382,5.3382,5.3382,5.3382,5.3467,5.3501,5.3501,5.3501,5.3501,5.3501,5.3501,5.3501,5.3501,5.3501,5.3501,5.3501,5.3501,5.3501,5.3501,5.3501,5.3501,5.3501,5.3501,5.3501,5.3501,5.3501,5.3501,5.3501,5.3501,5.3501,5.3501,5.3501,5.3501,5.3501,5.3501,5.3501,5.3501,5.3501,5.3501,5.3501,5.3501,5.3501,5.3501,5.3501,5.3501,5.3501,5.3501,5.3501,5.3501,2.2712,2.3483,2.444,2.5375,2.6856,2.8278,0.0,3.0088,3.121,3.2407,3.3155,0.0,0.0,0.0,0.0,0.0,0.0,0.0,0.0,0.0,0.0,0.0,0.0,0.0,0.0,0.0,0.0,0.0,0.0,0.0,4.329,4.329,4.329,4.329,4.329,4.329,4.329,4.329,4.329,4.329,4.329,4.329,4.329,4.329,4.329,4.329,4.329,4.329,4.329,4.329,4.3439,4.3848,4.5595,4.6666,4.7535,4.9873,5.0838,5.1171,5.2451,5.3144,5.328,5.199,5.199,5.24,5.1756,5.2026,5.2627,5.3314,5.3501,5.3501,5.3501,5.3501,5.3501,5.3501,5.3501,5.3501,5.3501,5.3501,5.3501,5.3501,5.3501,5.3501,5.3501,5.3501,5.3501,5.3501,5.3501,5.3501,5.3501,5.3501,5.3501,5.3501,5.3501,5.3501,5.3501,5.3501,5.3501,5.3501,5.3501,5.3501,5.3501,5.3501,5.3501,5.3501,5.3501,5.3501,5.3501,5.3501,5.3501,5.3501,5.3501,5.3501,2.2532,2.3281,2.4545,2.5644,2.7604,0.0,3.0582,3.2213,3.3858,3.5145,3.5774,3.6043,0.0,0.0,0.0,0.0,0.0,0.0,0.0,0.0,0.0,0.0,0.0,0.0,0.0,0.0,0.0,0.0,0.0,0.0,0.0,4.329,4.329,4.329,4.329,4.329,4.329,4.329,4.329,4.329,4.329,4.329,4.329,4.329,4.329,4.329,4.329,4.329,4.329,4.329,4.3409,4.3798,4.574,4.6846,4.7613,5.0524,5.147,5.1557,5.3007,5.3264,5.2835,5.172,5.1631,5.1832,5.1484,5.1865,5.2557,5.3298,5.3501,5.3501,5.3501,5.3501,5.3501,5.3501,5.3501,5.3501,5.3501,5.3501,5.3501,5.3501,5.3501,5.3501,5.3501,5.3501,5.3501,5.3501,5.3501,5.3501,5.3501,5.3501,5.3501,5.3501,5.3501,5.3501,5.3501,5.3501,5.3501,5.3501,5.3501,5.3501,5.3501,5.3501,5.3501,5.3501,5.3501,5.3501,5.3501,5.3501,5.3501,5.3501,5.3501,5.3501,2.3954,2.3595,2.4103,2.6093,0.0,0.0,3.2766,3.3514,3.4262,3.6896,3.7434,3.724,3.6626,0.0,0.0,0.0,0.0,0.0,0.0,0.0,0.0,0.0,0.0,0.0,0.0,0.0,0.0,0.0,0.0,0.0,0.0,4.329,4.329,4.329,4.329,4.329,4.329,4.329,4.329,4.329,4.329,4.329,4.329,4.329,4.329,4.329,4.329,4.329,4.329,4.329,4.3678,4.4408,4.5363,4.7217,4.9497,5.0445,5.1908,5.3467,5.3467,5.2784,5.2082,5.311,5.2749,5.2082,5.3144,5.3467,5.3501,5.3501,5.3501,5.3501,5.3501,5.3501,5.3501,5.3501,5.3501,5.3501,5.3501,5.3501,5.3501,5.3501,5.3501,5.3501,5.3501,5.3501,5.3501,5.3501,5.3501,5.3501,5.3501,5.3501,5.3501,5.3501,5.3501,5.3501,5.3501,5.3501,5.3501,5.3501,5.3501,5.3501,5.3501,5.3501,5.3501,5.3501,5.3501,5.3501,5.3501,5.3501,5.3501,5.3501,5.3501,5.3501,2.3197,2.3969,0.0,2.6926,0.0,0.0,0.0,3.5265,0.0,0.0,3.9155,3.8766,3.8586,0.0,0.0,0.0,0.0,0.0,0.0,0.0,0.0,0.0,0.0,0.0,0.0,0.0,0.0,0.0,0.0,0.0,0.0,4.329,4.329,4.329,4.329,4.329,4.329,4.329,4.329,4.329,4.329,4.329,4.329,4.329,4.329,4.329,4.329,4.329,4.329,4.329,4.3814,4.4788,4.6265,4.7085,4.7767,4.9981,5.0521,5.0304,5.1059,5.1096,5.0779,5.0342,5.0512,5.0892,5.1208,5.1829,5.2505,5.3298,5.3501,5.3501,5.3501,5.3501,5.3501,5.3501,5.3501,5.3501,5.3501,5.3501,5.3501,5.3501,5.3501,5.3501,5.3501,5.3501,5.3501,5.3501,5.3501,5.3501,5.3501,5.3501,5.3501,5.3501,5.3501,5.3501,5.3501,5.3501,5.3501,5.3501,5.3501,5.3501,5.3501,5.3501,5.3501,5.3501,5.3501,5.3501,5.3501,5.3501,5.3501,5.3501,5.3501,5.3501,2.4215,2.5309,0.0,2.9011,3.1824,3.4532,3.6252,0.0,0.0,0.0,0.0,4.0038,0.0,0.0,0.0,0.0,0.0,0.0,0.0,0.0,0.0,0.0,0.0,0.0,0.0,0.0,0.0,0.0,0.0,0.0,0.0,4.329,4.329,4.329,4.329,4.329,4.329,4.329,4.329,4.329,4.329,4.329,4.329,4.329,4.329,4.329,4.329,4.329,4.329,4.329,4.3888,4.488,4.5887,4.6565,4.7167,4.9095,4.9491,4.9158,5.0069,5.0126,4.9734,4.9496,4.9891,5.0474,5.0855,5.1704,5.2662,5.3314,5.3501,5.3501,5.3501,5.3501,5.3501,5.3501,5.3501,5.3501,5.3501,5.3501,5.3501,5.3501,5.3501,5.3501,5.3501,5.3501,5.3501,5.3501,5.3501,5.3501,5.3501,5.3501,5.3501,5.3501,5.3501,5.3501,5.3501,5.3501,5.3501,5.3501,5.3501,5.3501,5.3501,5.3501,5.3501,5.3501,5.3501,5.3501,5.3501,5.3501,5.3501,5.3501,5.3501,5.3501,2.6004,2.6956,2.8378,3.1614,3.314,0.0,3.7778,3.9469,4.0397,4.0397,0.0,0.0,0.0,0.0,0.0,0.0,0.0,0.0,0.0,0.0,0.0,0.0,0.0,0.0,0.0,0.0,0.0,0.0,0.0,0.0,0.0,4.3125,4.3125,4.3125,4.3125,4.3125,4.3125,4.3125,4.314,4.32,4.32,4.3245,4.329,4.329,4.329,4.329,4.329,4.329,4.329,4.329,4.3888,4.4812,4.4812,4.5745,4.7237,4.7928,4.8632,4.9329,4.9946,4.9568,4.8948,4.9813,5.0142,5.032,5.1431,5.2435,5.3264,5.3433,5.3501,5.3501,5.3501,5.3501,5.3501,5.3501,5.3501,5.3501,5.3501,5.3501,5.3501,5.3501,5.3501,5.3501,5.3501,5.3501,5.3501,5.3501,5.3501,5.3501,5.3501,5.3501,5.3501,5.3501,5.3501,5.3501,5.3501,5.3501,5.3501,5.3501,5.3501,5.3501,5.3501,5.3501,5.3501,5.3501,5.3501,5.3501,5.3501,5.3501,5.3501,5.3501,5.3501,5.3501,2.4163,2.5893,0.0,0.0,3.4141,3.703,3.8796,3.9828,4.0397,4.0397,0.0,0.0,0.0,0.0,0.0,0.0,0.0,0.0,0.0,0.0,0.0,0.0,0.0,0.0,0.0,0.0,0.0,0.0,0.0,0.0,4.1803,4.1803,4.1803,4.1803,4.1803,4.1803,4.1803,4.1803,4.2058,0.0,4.2605,4.2836,4.329,4.329,4.329,4.329,4.329,4.329,4.329,4.329,4.3888,4.4812,4.4812,4.5313,4.6153,4.7093,4.7747,4.8176,4.8237,4.8497,4.8718,4.8157,4.7961,4.8309,5.0165,5.0871,5.141,5.3041,5.3501,5.3501,5.3501,5.3501,5.3501,5.3501,5.3501,5.3501,5.3501,5.3501,5.3501,5.3501,5.3501,5.3501,5.3501,5.3501,5.3501,5.3501,5.3501,5.3501,5.3501,5.3501,5.3501,5.3501,5.3501,5.3501,5.3501,5.3501,5.3501,5.3501,5.3501,5.3501,5.3501,5.3501,5.3501,5.3501,5.3501,5.3501,5.3501,5.3501,5.3501,5.3501,5.3501,5.3501,2.5009,0.0,0.0,3.3006,0.0,3.7674,3.8691,3.9454,3.9933,0.0,0.0,0.0,0.0,0.0,0.0,0.0,0.0,0.0,0.0,0.0,0.0,0.0,0.0,0.0,0.0,0.0,0.0,0.0,0.0,4.1422,4.1422,4.1422,4.1422,4.1422,4.1422,4.1422,4.1422,4.1422,4.1587,4.1931,4.1931,4.2237,4.288,4.3155,4.329,4.329,4.329,4.329,4.329,4.329,4.3888,4.4737,4.4259,4.4847,4.5929,4.5839,4.6238,4.6817,4.6987,4.7296,4.7562,4.7362,4.7961,4.8979,5.0064,5.1096,5.2098,5.3195,5.3501,5.3501,5.3501,5.3501,5.3501,5.3501,5.3501,5.3501,5.3501,5.3501,5.3501,5.3501,5.3501,5.3501,5.3501,5.3501,5.3501,5.3501,5.3501,5.3501,5.3501,5.3501,5.3501,5.3501,5.3501,5.3501,5.3501,5.3501,5.3501,5.3501,5.3501,5.3501,5.3501,5.3501,5.3501,5.3501,5.3501,5.3501,5.3501,5.3501,5.3501,5.3501,5.3501,5.3501,2.5833,0.0,3.0791,3.522,3.6791,0.0,3.8212,3.8841,3.9275,0.0,0.0,0.0,0.0,0.0,0.0,0.0,0.0,0.0,0.0,0.0,0.0,0.0,0.0,0.0,0.0,0.0,0.0,0.0,0.0,4.104,4.104,4.104,4.104,4.104,4.104,4.104,4.104,4.104,4.11,4.1205,4.1324,4.1767,4.2425,4.2925,4.3185,4.329,4.329,4.329,4.329,4.329,4.3771,4.445,4.363,4.4289,4.5608,4.4715,4.495,4.5804,4.6202,4.644,4.665,4.7128,4.8475,4.9931,5.0281,5.161,5.3041,5.3382,5.3501,5.3501,5.3501,5.3501,5.3501,5.3501,5.3501,5.3501,5.3501,5.3501,5.3501,5.3501,5.3501,5.3501,5.3501,5.3501,5.3501,5.3501,5.3501,5.3501,5.3501,5.3501,5.3501,5.3501,5.3501,5.3501,5.3501,5.3501,5.3501,5.3501,5.3501,5.3501,5.3501,5.3501,5.3501,5.3501,5.3501,5.3501,5.3501,5.3501,5.3501,5.3501,5.3501,5.3501,2.3047,0.0,3.1225,0.0,3.6133,3.6926,0.0,0.0,0.0,0.0,0.0,0.0,0.0,0.0,0.0,0.0,0.0,0.0,0.0,0.0,0.0,0.0,0.0,0.0,0.0,0.0,0.0,0.0,3.9679,3.9679,3.9679,3.9679,3.9679,3.9679,3.9679,3.9679,3.9679,3.9679,3.9963,4.0531,4.1115,4.1767,4.2396,4.2485,4.2806,4.329,4.329,4.329,4.329,4.329,4.3369,4.3472,4.3369,4.3472,4.3771,4.4465,4.5232,4.5935,4.6475,4.7044,4.7594,4.7355,4.7495,4.8046,4.9868,5.0589,5.1171,5.299,5.3501,5.3501,5.3501,5.3501,5.3501,5.3501,5.3501,5.3501,5.3501,5.3501,5.3501,5.3501,5.3501,5.3501,5.3501,5.3501,5.3501,5.3501,5.3501,5.3501,5.3501,5.3501,5.3501,5.3501,5.3501,5.3501,5.3501,5.3501,5.3501,5.3501,5.3501,5.3501,5.3501,5.3501,5.3501,5.3501,5.3501,5.3501,5.3501,5.3501,5.3501,5.3501,5.3501,5.3501,2.5106,2.8203,3.1315,0.0,3.5998,3.6626,3.7195,0.0,0.0,0.0,0.0,0.0,0.0,0.0,0.0,0.0,0.0,0.0,0.0,0.0,0.0,0.0,0.0,0.0,0.0,0.0,0.0,0.0,3.9388,3.9388,3.9388,3.9388,3.9388,3.9388,3.9388,3.9388,3.9388,3.9388,3.9574,3.9858,4.0516,4.098,4.128,4.2066,4.2716,4.329,4.329,4.329,4.329,4.329,4.329,4.329,4.329,4.363,4.4105,4.3989,4.4519,4.5347,4.5761,4.6123,4.6507,4.7106,4.8088,4.9206,5.0126,5.1208,5.2345,5.323,5.3501,5.3501,5.3501,5.3501,5.3501,5.3501,5.3501,5.3501,5.3501,5.3501,5.3501,5.3501,5.3501,5.3501,5.3501,5.3501,5.3501,5.3501,5.3501,5.3501,5.3501,5.3501,5.3501,5.3501,5.3501,5.3501,5.3501,5.3501,5.3501,5.3501,5.3501,5.3501,5.3501,5.3501,5.3501,5.3501,5.3501,5.3501,5.3501,5.3501,5.3501,5.3501,5.3501,5.3501,0.0,0.0,3.0058,3.3395,3.4981,3.5863,0.0,0.0,0.0,0.0,0.0,0.0,0.0,0.0,0.0,0.0,0.0,0.0,0.0,0.0,0.0,0.0,0.0,0.0,0.0,0.0,0.0,0.0,3.9388,3.9388,3.9388,3.9388,3.9388,3.9388,3.9388,3.9388,3.9388,3.9388,3.9388,3.9424,3.9918,4.0247,4.0427,4.1452,4.2222,4.2851,4.314,4.329,4.329,4.329,4.329,4.329,4.329,4.3771,4.4335,4.3591,4.3771,4.4481,4.5111,4.5289,4.5514,4.686,4.835,4.971,5.0258,5.1484,5.28,5.3348,5.3501,5.3501,5.3501,5.3501,5.3501,5.3501,5.3501,5.3501,5.3501,5.3501,5.3501,5.3501,5.3501,5.3501,5.3501,5.3501,5.3501,5.3501,5.3501,5.3501,5.3501,5.3501,5.3501,5.3501,5.3501,5.3501,5.3501,5.3501,5.3501,5.3501,5.3501,5.3501,5.3501,5.3501,5.3501,5.3501,5.3501,5.3501,5.3501,5.3501,5.3501,5.3501,5.3501,5.3501,0.0,2.4388,0.0,2.9939,3.2213,0.0,0.0,0.0,0.0,0.0,0.0,0.0,0.0,0.0,0.0,0.0,0.0,0.0,0.0,0.0,0.0,0.0,0.0,0.0,0.0,0.0,0.0,0.0,3.9388,3.9388,3.9388,3.9388,3.9388,3.9388,3.9388,3.9388,3.9388,3.9388,3.9388,3.9388,3.9454,3.9798,4.0397,4.0472,4.0861,4.1549,4.2791,4.329,4.329,4.329,4.329,4.329,4.329,4.3329,4.3369,4.3329,4.3329,4.3549,4.484,4.5289,4.5514,4.686,4.7381,4.7807,4.9789,5.049,5.0984,5.2956,5.3501,5.3501,5.3501,5.3501,5.3501,5.3501,5.3501,5.3501,5.3501,5.3501,5.3501,5.3501,5.3501,5.3501,5.3501,5.3501,5.3501,5.3501,5.3501,5.3501,5.3501,5.3501,5.3501,5.3501,5.3501,5.3501,5.3501,5.3501,5.3501,5.3501,5.3501,5.3501,5.3501,5.3501,5.3501,5.3501,5.3501,5.3501,5.3501,5.3501,5.3501,5.3501,5.3501,5.3501,0.0,0.0,0.0,2.8562,3.0776,3.2512,0.0,0.0,0.0,0.0,0.0,0.0,0.0,0.0,0.0,0.0,0.0,0.0,0.0,0.0,0.0,0.0,0.0,0.0,0.0,0.0,0.0,0.0,0.0,3.9388,3.9388,3.9388,3.9388,3.9388,3.9388,3.9388,3.9388,3.9388,3.9388,3.9388,3.9388,3.9544,3.9783,4.0202,4.0531,4.0831,4.2147,4.2701,4.2746,4.3125,4.329,4.329,4.329,4.329,4.329,4.329,4.329,4.3484,4.484,4.5753,4.6421,4.7102,4.8651,5.0265,5.0358,5.1336,5.2539,5.328,5.3501,5.3501,5.3501,5.3501,5.3501,5.3501,5.3501,5.3501,5.3501,5.3501,5.3501,5.3501,5.3501,5.3501,5.3501,5.3501,5.3501,5.3501,5.3501,5.3501,5.3501,5.3501,5.3501,5.3501,5.3501,5.3501,5.3501,5.3501,5.3501,5.3501,5.3501,5.3501,5.3501,5.3501,5.3501,5.3501,5.3501,5.3501,5.3501,5.3501,5.3501,5.3501,5.3501,5.3501,2.1994,0.0,0.0,0.0,0.0,0.0,0.0,0.0,0.0,0.0,0.0,0.0,0.0,0.0,0.0,0.0,0.0,0.0,0.0,0.0,0.0,0.0,0.0,0.0,0.0,0.0,0.0,0.0,0.0,0.0,3.9388,3.9388,3.9388,3.9388,3.9388,3.9388,3.9388,3.9388,3.9388,3.9388,3.9388,3.9388,3.9439,3.9873,4.0068,4.0142,4.1459,4.2186,4.2455,4.306,4.329,4.329,4.329,4.329,4.329,4.329,4.329,4.3484,4.484,4.5753,4.6502,4.7479,4.9191,5.0876,5.0892,5.1865,5.3041,5.3382,5.3501,5.3501,5.3501,5.3501,5.3501,5.3501,5.3501,5.3501,5.3501,5.3501,5.3501,5.3501,5.3501,5.3501,5.3501,5.3501,5.3501,5.3501,5.3501,5.3501,5.3501,5.3501,5.3501,5.3501,5.3501,5.3501,5.3501,5.3501,5.3501,5.3501,5.3501,5.3501,5.3501,5.3501,5.3501,5.3501,5.3501,5.3501,5.3501,5.3501,5.3501,5.3501,5.3501,5.3501,0.0,0.0,0.0,0.0,0.0,0.0,0.0,0.0,0.0,0.0,0.0,0.0,0.0,0.0,0.0,0.0,0.0,0.0,0.0,0.0,0.0,0.0,0.0,0.0,0.0,0.0,0.0,0.0,3.9373,3.9388,3.9388,3.9388,3.9388,3.9388,3.9388,3.9388,3.9388,3.9388,3.9388,3.9388,3.9388,3.9388,3.9388,3.9388,3.9388,3.9448,4.0816,4.1782,4.2425,4.3045,4.329,4.329,4.329,4.329,4.329,4.329,4.3305,4.3499,4.484,4.5346,4.5804,4.8081,4.8866,4.9296,5.1303,5.1921,5.2153,5.323,5.3501,5.3501,5.3501,5.3501,5.3501,5.3501,5.3501,5.3501,5.3501,5.3501,5.3501,5.3501,5.3501,5.3501,5.3501,5.3501,5.3501,5.3501,5.3501,5.3501,5.3501,5.3501,5.3501,5.3501,5.3501,5.3501,5.3501,5.3501,5.3501,5.3501,5.3501,5.3501,5.3501,5.3501,5.3501,5.3501,5.3501,5.3501,5.3501,5.3501,5.3501,5.3501,5.3501,5.3501,2.0617,0.0,0.0,0.0,0.0,0.0,0.0,0.0,0.0,0.0,0.0,0.0,0.0,0.0,0.0,0.0,0.0,0.0,0.0,0.0,0.0,0.0,0.0,0.0,0.0,0.0,0.0,0.0,3.914,3.9388,3.9388,3.9388,3.9388,3.9388,3.9388,3.9388,3.9388,3.9388,3.9388,3.9388,3.9388,3.9388,3.9388,3.9388,3.9388,3.9448,4.0816,4.1527,4.1782,4.2865,4.329,4.329,4.329,4.329,4.329,4.329,4.3604,4.4167,4.5005,4.6619,4.8341,4.8693,5.0342,5.217,5.1957,5.2435,5.311,5.3433,5.3501,5.3501,5.3501,5.3501,5.3501,5.3501,5.3501,5.3501,5.3501,5.3501,5.3501,5.3501,5.3501,5.3501,5.3501,5.3501,5.3501,5.3501,5.3501,5.3501,5.3501,5.3501,5.3501,5.3501,5.3501,5.3501,5.3501,5.3501,5.3501,5.3501,5.3501,5.3501,5.3501,5.3501,5.3501,5.3501,5.3501,5.3501,5.3501,5.3501,5.3501,5.3501,5.3501,5.3501,2.138,0.0,0.0,0.0,0.0,0.0,0.0,2.7215,0.0,0.0,0.0,0.0,0.0,0.0,0.0,0.0,0.0,0.0,0.0,0.0,0.0,0.0,0.0,0.0,0.0,3.7749,3.7973,3.7973,3.8347,3.8706,3.8975,3.899,3.9125,3.9373,3.9388,3.9388,3.9388,3.9388,3.9388,3.9388,3.9388,3.9388,3.9388,3.9388,3.9388,3.9448,4.0516,4.113,4.1459,4.2506,4.309,4.329,4.329,4.329,4.329,4.329,4.3708,4.4447,4.5592,4.7165,4.8903,4.9794,5.1357,5.2784,5.2627,5.299,5.3501,5.3501,5.3501,5.3501,5.3501,5.3501,5.3501,5.3501,5.3501,5.3501,5.3501,5.3501,5.3501,5.3501,5.3501,5.3501,5.3501,5.3501,5.3501,5.3501,5.3501,5.3501,5.3501,5.3501,5.3501,5.3501,5.3501,5.3501,5.3501,5.3501,5.3501,5.3501,5.3501,5.3501,5.3501,5.3501,5.3501,5.3501,5.3501,5.3501,5.3501,5.3501,5.3501,5.3501,5.3501,5.3501,2.2353,2.2503,0.0,0.0,0.0,0.0,2.7735,2.75,0.0,0.0,0.0,0.0,0.0,0.0,0.0,0.0,0.0,0.0,0.0,0.0,0.0,0.0,0.0,0.0,3.721,3.727,3.73,3.73,3.7375,3.7659,3.8257,3.8287,3.8601,3.929,3.9305,3.9298,3.9388,3.9388,3.9388,3.9388,3.9388,3.9388,3.9388,3.9388,3.9388,3.9454,4.0113,4.0771,4.1467,4.2126,4.2746,4.329,4.329,4.329,4.329,4.329,4.3788,4.47,4.6343,4.7442,4.8569,5.1059,5.1993,5.2277,5.323,5.3501,5.3501,5.3501,5.3501,5.3501,5.3501,5.3501,5.3501,5.3501,5.3501,5.3501,5.3501,5.3501,5.3501,5.3501,5.3501,5.3501,5.3501,5.3501,5.3501,5.3501,5.3501,5.3501,5.3501,5.3501,5.3501,5.3501,5.3501,5.3501,5.3501,5.3501,5.3501,5.3501,5.3501,5.3501,5.3501,5.3501,5.3501,5.3501,5.3501,5.3501,5.3501,5.3501,5.3501,5.3501,5.3501,5.3501,2.4246,2.4515,2.4866,2.4163,0.0,0.0,0.0,2.4163,0.0,0.0,0.0,0.0,0.0,0.0,0.0,0.0,0.0,0.0,0.0,0.0,0.0,0.0,0.0,0.0,3.5923,3.6357,3.6671,3.6671,3.7135,3.7464,3.7599,3.7599,3.7898,3.8571,3.8601,3.8856,3.9373,3.9388,3.9388,3.9388,3.9388,3.9388,3.9388,3.9388,3.9388,3.9454,4.0113,4.0771,4.1467,4.2126,4.2746,4.329,4.329,4.329,4.329,4.329,4.4219,4.5572,4.6578,4.8374,5.0415,5.153,5.247,5.323,5.3433,5.3501,5.3501,5.3501,5.3501,5.3501,5.3501,5.3501,5.3501,5.3501,5.3501,5.3501,5.3501,5.3501,5.3501,5.3501,5.3501,5.3501,5.3501,5.3501,5.3501,5.3501,5.3501,5.3501,5.3501,5.3501,5.3501,5.3501,5.3501,5.3501,5.3501,5.3501,5.3501,5.3501,5.3501,5.3501,5.3501,5.3501,5.3501,5.3501,5.3501,5.3501,5.3501,5.3501,5.3501,5.3501,5.3501,5.3501,2.5457,2.5337,2.56,2.5608,0.0,0.0,0.0,0.0,0.0,0.0,0.0,0.0,0.0,0.0,0.0,0.0,0.0,0.0,0.0,0.0,0.0,0.0,0.0,0.0,3.5534,3.5804,3.5998,3.5998,3.6282,3.6611,3.6926,3.6941,3.724,3.7883,3.8227,3.8556,3.8901,3.9245,3.9388,3.9388,3.9388,3.9388,3.9388,3.9388,3.9388,3.9439,3.9768,4.0472,4.1452,4.1767,4.2447,4.329,4.329,4.3591,4.4028,4.4028,4.5063,4.6644,4.7882,4.943,5.102,5.2272,5.3059,5.3501,5.3501,5.3501,5.3501,5.3501,5.3501,5.3501,5.3501,5.3501,5.3501,5.3501,5.3501,5.3501,5.3501,5.3501,5.3501,5.3501,5.3501,5.3501,5.3501,5.3501,5.3501,5.3501,5.3501,5.3501,5.3501,5.3501,5.3501,5.3501,5.3501,5.3501,5.3501,5.3501,5.3501,5.3501,5.3501,5.3501,5.3501,5.3501,5.3501,5.3501,5.3501,5.3501,5.3501,5.3501,5.3501,5.3501,5.3501,5.3501,0.0,0.0,0.0,0.0,0.0,2.5255,0.0,0.0,0.0,0.0,0.0,0.0,0.0,0.0,0.0,0.0,0.0,0.0,0.0,0.0,0.0,0.0,0.0,0.0,0.0,3.507,3.5085,3.5474,3.5145,3.5325,3.6252,3.6297,3.6582,3.721,3.7749,3.8138,3.8392,3.8945,3.9254,3.9388,3.9388,3.9388,3.9388,3.9388,3.9388,3.9388,3.9388,4.0172,4.1422,4.1422,4.2263,4.3551,4.3369,4.3927,4.4812,4.4812,4.5866,4.7539,4.9227,5.0265,5.1169,5.2926,5.3501,5.3501,5.3501,5.3501,5.3501,5.3501,5.3501,5.3501,5.3501,5.3501,5.3501,5.3501,5.3501,5.3501,5.3501,5.3501,5.3501,5.3501,5.3501,5.3501,5.3501,5.3501,5.3501,5.3501,5.3501,5.3501,5.3501,5.3501,5.3501,5.3501,5.3501,5.3501,5.3501,5.3501,5.3501,5.3501,5.3501,5.3501,5.3501,5.3501,5.3501,5.3501,5.3501,5.3501,5.3501,5.3501,5.3501,5.3501,5.3501,5.3501,0.0,0.0,0.0,0.0,2.9116,0.0,0.0,0.0,0.0,0.0,0.0,0.0,0.0,0.0,0.0,0.0,0.0,0.0,0.0,0.0,0.0,0.0,0.0,0.0,0.0,3.3544,3.3589,3.537,3.3858,3.3664,3.5519,3.5609,3.5923,3.6567,3.6671,3.7255,3.8377,3.8467,3.8811,3.9388,3.9388,3.9388,3.9388,3.9388,3.9388,3.9388,3.9388,4.0172,4.1422,4.1422,4.269,4.4548,4.3669,4.3927,4.4812,4.4812,4.5969,4.7768,4.9269,5.0376,5.1392,5.2994,5.3501,5.3501,5.3501,5.3501,5.3501,5.3501,5.3501,5.3501,5.3501,5.3501,5.3501,5.3501,5.3501,5.3501,5.3501,5.3501,5.3501,5.3501,5.3501,5.3501,5.3501,5.3501,5.3501,5.3501,5.3501,5.3501,5.3501,5.3501,5.3501,5.3501,5.3501,5.3501,5.3501,5.3501,5.3501,5.3501,5.3501,5.3501,5.3501,5.3501,5.3501,5.3501,5.3501,5.3501,5.3501,5.3501,5.3501,5.3501,5.3501,5.3501,0.0,0.0,0.0,0.0,0.0,0.0,2.5623,0.0,2.435,0.0,0.0,0.0,0.0,0.0,0.0,0.0,0.0,0.0,0.0,0.0,0.0,0.0,0.0,0.0,0.0,0.0,0.0,0.0,3.3425,3.3215,3.4816,3.5295,3.5624,3.5908,3.6297,3.6911,3.7808,3.8197,3.8736,3.9388,3.9388,3.9388,3.9388,3.9388,3.9388,3.9388,3.9388,4.0172,4.1445,4.1997,4.3242,4.4796,4.4952,4.5582,4.64,4.64,4.7289,4.8602,5.0124,5.0891,5.1471,5.301,5.3501,5.3501,5.3501,5.3501,5.3501,5.3501,5.3501,5.3501,5.3501,5.3501,5.3501,5.3501,5.3501,5.3501,5.3501,5.3501,5.3501,5.3501,5.3501,5.3501,5.3501,5.3501,5.3501,5.3501,5.3501,5.3501,5.3501,5.3501,5.3501,5.3501,5.3501,5.3501,5.3501,5.3501,5.3501,5.3501,5.3501,5.3501,5.3501,5.3501,5.3501,5.3501,5.3501,5.3501,5.3501,5.3501,5.3501,5.3501,5.3501,5.3501,3.2856,0.0,0.0,0.0,0.0,0.0,0.0,0.0,0.0,0.0,0.0,0.0,0.0,0.0,0.0,0.0,0.0,0.0,0.0,0.0,0.0,0.0,0.0,0.0,0.0,0.0,0.0,0.0,0.0,3.2332,3.4399,3.4951,3.531,3.5489,3.5968,3.6596,3.7404,3.7883,3.8556,3.9388,3.9388,3.9388,3.9388,3.9388,3.9388,3.9388,3.9388,4.0172,4.1483,4.2391,4.3759,4.53,4.6224,4.7172,4.795,4.7688,4.8193,4.9221,5.071,5.1472,5.2029,5.3145,5.3501,5.3501,5.3501,5.3501,5.3501,5.3501,5.3501,5.3501,5.3501,5.3501,5.3501,5.3501,5.3501,5.3501,5.3501,5.3501,5.3501,5.3501,5.3501,5.3501,5.3501,5.3501,5.3501,5.3501,5.3501,5.3501,5.3501,5.3501,5.3501,5.3501,5.3501,5.3501,5.3501,5.3501,5.3501,5.3501,5.3501,5.3501,5.3501,5.3501,5.3501,5.3501,5.3501,5.3501,5.3501,5.3501,5.3501,5.3501,5.3501,5.3501,0.0,0.0,0.0,3.0582,0.0,0.0,0.0,0.0,2.6303,0.0,0.0,0.0,0.0,0.0,0.0,0.0,0.0,0.0,0.0,0.0,0.0,0.0,0.0,0.0,0.0,0.0,0.0,0.0,0.0,0.0,3.4294,3.4533,3.4816,3.5489,3.5534,3.6133,3.7404,3.7434,3.8108,3.9388,3.9388,3.9388,3.9388,3.9388,3.9388,3.9388,3.9388,4.0172,4.1483,4.2391,4.4122,4.6244,4.7205,4.8112,4.8861,4.795,4.8193,4.9221,5.071,5.2198,5.3433,5.3484,5.3501,5.3501,5.3501,5.3501,5.3501,5.3501,5.3501,5.3501,5.3501,5.3501,5.3501,5.3501,5.3501,5.3501,5.3501,5.3501,5.3501,5.3501,5.3501,5.3501,5.3501,5.3501,5.3501,5.3501,5.3501,5.3501,5.3501,5.3501,5.3501,5.3501,5.3501,5.3501,5.3501,5.3501,5.3501,5.3501,5.3501,5.3501,5.3501,5.3501,5.3501,5.3501,5.3501,5.3501,5.3501,5.3501,5.3501,5.3501,5.3501,5.3501,0.0,0.0,3.5519,3.2841,0.0,0.0,0.0,0.0,0.0,0.0,0.0,0.0,0.0,0.0,0.0,0.0,0.0,0.0,0.0,0.0,0.0,0.0,0.0,0.0,0.0,0.0,0.0,0.0,2.9744,0.0,0.0,3.4279,3.4801,3.5489,3.5504,3.6118,3.7404,3.7404,3.8078,3.9388,3.9388,3.9388,3.9388,3.9388,3.9388,3.9388,3.9388,4.0492,4.2391,4.334,4.508,4.7239,4.8161,4.8719,4.897,4.8639,4.8719,4.9221,5.071,5.2215,5.3501,5.3501,5.3501,5.3501,5.3501,5.3501,5.3501,5.3501,5.3501,5.3501,5.3501,5.3501,5.3501,5.3501,5.3501,5.3501,5.3501,5.3501,5.3501,5.3501,5.3501,5.3501,5.3501,5.3501,5.3501,5.3501,5.3501,5.3501,5.3501,5.3501,5.3501,5.3501,5.3501,5.3501,5.3501,5.3501,5.3501,5.3501,5.3501,5.3501,5.3501,5.3501,5.3501,5.3501,5.3501,5.3501,5.3501,5.3501,5.3501,5.3501,5.3501,5.3501,3.6641,3.6806,0.0,3.4337,3.2871,0.0,2.8308,0.0,0.0,0.0,0.0,0.0,0.0,0.0,0.0,0.0,0.0,0.0,0.0,0.0,0.0,0.0,0.0,0.0,0.0,0.0,2.759,2.9472,2.8948,0.0,0.0,0.0,3.4442,3.5115,3.5385,3.6118,3.7404,3.7404,3.8078,3.9388,3.9388,3.9388,3.9388,3.9388,3.9388,3.9388,3.9388,4.0694,4.2863,4.3806,4.5518,4.7688,4.8639,4.9001,4.9001,4.9001,4.934,4.9932,5.0847,5.2215,5.3501,5.3501,5.3501,5.3501,5.3501,5.3501,5.3501,5.3501,5.3501,5.3501,5.3501,5.3501,5.3501,5.3501,5.3501,5.3501,5.3501,5.3501,5.3501,5.3501,5.3501,5.3501,5.3501,5.3501,5.3501,5.3501,5.3501,5.3501,5.3501,5.3501,5.3501,5.3501,5.3501,5.3501,5.3501,5.3501,5.3501,5.3501,5.3501,5.3501,5.3501,5.3501,5.3501,5.3501,5.3501,5.3501,5.3501,5.3501,5.3501,5.3501,5.3501,5.3501]}]]